[[{"header":{"parameterUnit":"m.s-1","parameterCategory":1,"la1":31.0,"la2":29.5877,"lo1":-88.7671,"lo2":-86.6584,"dy":0.0162,"dx":0.0185,"nx":115,"ny":88,"refTime":"2024-06-29T18:00:00:Z","depth":0,"parameterNumber":2,"parameterNumberName":"U-component_of_WINDS"},"data":[0.0,0.0,0.0,0.0,0.0,0.0,0.0,0.0,0.0,0.0,0.0,0.0,0.0,0.0,0.0,0.0,0.0,0.0,0.0,0.0,0.0,0.0,0.0,0.0,0.0,0.0,0.0,0.0,0.0,0.0,0.0,0.0,0.0,0.0,0.0,0.0,0.0,0.0,0.0,0.0,0.0,0.0,0.0,0.0,0.0,0.0,0.0,0.0,0.0,0.0,0.0,0.0,0.0,0.0,0.0,0.0,0.0,0.0,0.0,0.0,0.0,0.0,0.0,0.0,0.0,0.0,0.0,0.0,0.0,0.0,0.0,0.0,0.0,0.0,0.0,0.0,0.0,0.0,0.0,0.0,0.0,0.0,0.0,0.0,0.0,0.0,0.0,0.0,0.0,0.0,0.0,0.0,0.0,0.0,0.0,0.0,0.0,0.0,0.0,0.0,0.0,0.0,0.0,0.0,0.0,0.0,0.0,0.0,0.0,0.0,0.0,0.0,0.0,0.0,0.0,0.0,0.0,0.0,0.0,0.0,0.0,0.0,0.0,0.0,0.0,0.0,0.0,0.0,0.0,0.0,0.0,0.0,0.0,0.0,0.0,0.0,0.0,0.0,0.0,0.0,0.0,0.0,0.0,0.0,0.0,0.0,0.0,0.0,0.0,0.0,0.0,0.0,0.0,0.0,0.0,0.0,0.0,0.0,0.0,0.0,0.0,0.0,0.0,0.0,0.0,0.0,0.0,0.0,0.0,0.0,0.0,0.0,0.0,0.0,0.0,0.0,0.0,0.0,0.0,0.0,0.0,0.0,0.0,0.0,0.0,0.0,0.0,0.0,0.0,0.0,0.0,0.0,0.0,0.0,0.0,0.0,0.0,0.0,0.0,0.0,0.0,0.0,0.0,0.0,0.0,0.0,0.0,0.0,0.0,0.0,0.0,0.0,0.0,0.0,0.0,0.0,0.0,0.0,0.0,0.0,0.0,0.0,0.0,0.0,0.0,0.0,0.0,0.0,0.0,0.0,0.0,0.0,0.0,0.0,0.0,0.0,0.0,0.0,0.0,0.0,0.0,0.0,0.0,0.0,0.0,0.0,0.0,0.0,0.0,0.0,0.0,0.0,0.0,0.0,0.0,0.0,0.0,0.0,0.0,0.0,0.0,0.0,0.0,0.0,0.0,0.0,0.0,0.0,0.0,0.0,0.0,0.0,0.0,0.0,0.0,0.0,0.0,0.0,0.0,0.0,0.0,0.0,0.0,0.0,0.0,0.0,0.0,0.0,0.0,0.0,0.0,0.0,0.0,0.0,0.0,0.0,0.0,0.0,0.0,0.0,0.0,0.0,0.0,0.0,0.0,0.0,0.0,0.0,0.0,0.0,0.0,0.0,0.0,0.0,0.0,0.0,0.0,0.0,0.0,0.0,0.0,0.0,0.0,0.0,0.0,0.0,0.0,0.0,0.0,0.0,0.0,0.0,0.0,0.0,0.0,0.0,0.0,0.0,0.0,0.0,0.0,0.0,0.0,0.0,0.0,0.0,0.0,0.0,0.0,0.0,0.0,0.0,0.0,0.0,0.0,0.0,0.0,0.0,0.0,0.0,0.0,0.0,0.0,0.0,0.0,0.0,0.0,0.0,0.0,0.0,0.0,0.0,0.0,0.0,0.0,0.0,0.0,0.0,0.0,0.0,0.0,0.0,0.0,0.0,0.0,0.0,0.0,0.0,0.0,0.0,0.0,0.0,0.0,0.0,0.0,0.0,0.0,0.0,0.0,0.0,0.0,0.0,0.0,0.0,0.0,0.0,0.0,0.0,0.0,0.0,0.0,0.0,0.0,0.0,0.0,0.0,0.0,0.0,0.0,0.0,0.0,0.0,0.0,0.0,0.0,0.0,0.0,0.0,0.0,0.0,0.0,0.0,0.0,0.0,0.0,0.0,0.0,0.0,0.0,0.0,0.0,0.0,0.0,0.0,0.0,0.0,0.0,0.0,0.0,0.0,0.0,0.0,0.0,0.0,0.0,0.0,0.0,0.0,0.0,0.0,0.0,0.0,0.0,0.0,0.0,0.0,0.0,0.0,0.0,0.0,0.0,0.0,0.0,0.0,0.0,0.0,0.0,0.0,0.0,0.0,0.0,0.0,0.0,0.0,0.0,0.0,0.0,0.0,0.0,0.0,0.0,0.0,0.0,0.0,0.0,0.0,0.0,0.0,0.0,0.0,0.0,0.0,0.0,0.0,0.0,0.0,0.0,0.0,0.0,0.0,0.0,0.0,0.0,0.0,0.0,0.0,0.0,0.0,0.0,0.0,0.0,0.0,0.0,0.0,0.0,0.0,0.0,0.0,0.0,0.0,0.0,0.0,0.0,0.0,0.0,0.0,0.0,0.0,0.0,0.0,0.0,0.0,0.0,0.0,0.0,0.0,0.0,0.0,0.0,0.0,0.0,0.0,0.0,0.0,0.0,0.0,0.0,0.0,0.0,0.0,0.0,0.0,0.0,0.0,0.0,0.0,0.0,0.0,0.0,0.0,0.0,0.0,0.0,0.0,0.0,0.0,0.0,0.0,0.0,0.0,0.0,0.0,0.0,0.0,0.0,0.0,0.0,0.0,0.0,0.0,0.0,0.0,0.0,0.0,0.0,0.0,0.0,0.0,0.0,0.0,0.0,0.0,0.0,0.0,0.0,0.0,0.0,0.0,0.0,0.0,0.0,0.0,0.0,0.0,0.0,0.0,0.0,0.0,0.0,0.0,0.0,0.0,0.0,0.0,0.0,0.0,0.0,0.0,0.0,0.0,0.0,0.0,0.0,0.0,0.0,0.0,0.0,0.0,0.0,0.0,0.0,0.0,0.0,0.0,0.0,0.0,0.0,0.0,0.0,0.0,0.0,0.0,0.0,0.0,0.0,0.0,0.0,0.0,0.0,0.0,0.0,0.0,0.0,0.0,0.0,0.0,0.0,0.0,0.0,0.0,0.0,0.0,0.0,0.0,0.0,0.0,0.0,0.0,0.0,0.0,0.0,0.0,0.0,0.0,0.0,0.0,0.0,0.0,0.0,0.0,0.0,0.0,0.0,0.0,0.0,0.0,0.0,0.0,0.0,0.0,0.0,0.0,0.0,0.0,0.0,0.0,0.0,0.0,0.0,0.0,0.0,0.0,0.0,0.0,0.0,0.0,0.0,0.0,0.0,0.0,0.0,0.0,0.0,0.0,0.0,0.0,0.0,0.0,0.0,0.0,0.0,0.0,0.0,0.0,0.0,0.0,0.0,0.0,0.0,0.0,0.0,0.0,0.0,0.0,0.0,0.0,0.0,0.0,0.0,0.0,0.0,0.0,0.0,0.0,0.0,0.0,0.0,0.0,0.0,0.0,0.0,0.0,0.0,0.0,0.0,0.0,0.0,0.0,0.0,0.0,0.0,0.0,0.0,0.0,0.0,0.0,0.0,0.0,0.0,0.0,0.0,0.0,0.0,0.0,0.0,0.0,0.0,0.0,0.0,0.0,0.0,0.0,0.0,0.0,0.0,0.0,0.0,0.0,0.0,0.0,0.0,0.0,0.0,0.0,0.0,0.0,0.0,0.0,0.0,0.0,0.0,0.0,0.0,0.0,0.0,0.0,0.0,0.0,0.0,0.0,0.0,0.0,0.0,0.0,0.0,0.0,0.0,0.0,0.0,0.0,0.0,0.0,0.0,0.0,0.0,0.0,0.0,0.0,0.0,0.0,0.0,0.0,0.0,0.0,0.0,0.0,0.0,0.0,0.0,0.0,0.0,0.0,0.0,0.0,0.0,0.0,0.0,0.0,0.0,0.0,0.0,0.0,0.0,0.0,0.0,0.0,0.0,0.0,0.0,0.0,0.0,0.0,0.0,0.0,0.0,0.0,0.0,0.0,0.0,0.0,0.0,0.0,0.0,0.0,0.0,0.0,0.0,0.0,0.0,0.0,0.0,0.0,0.0,0.0,0.0,0.0,0.0,0.0,0.0,0.0,0.0,0.0,0.0,0.0,0.0,0.0,0.0,0.0,0.0,0.0,0.0,0.0,0.0,0.0,0.0,0.0,0.0,0.0,0.0,0.0,0.0,0.0,0.0,0.0,0.0,0.0,0.0,0.0,0.0,0.0,0.0,0.0,0.0,0.0,0.0,0.0,0.0,0.0,0.0,0.0,0.0,0.0,0.0,0.0,0.0,0.0,0.0,0.0,0.0,0.0,0.0,0.0,0.0,0.0,0.0,0.0,0.0,0.0,0.0,0.0,0.0,0.0,0.0,0.0,0.0,0.0,-0.5522,0.0,0.0,0.0,0.0,0.0,0.0,0.0,0.0,0.0,0.0,0.0,0.0,0.0,0.0,0.0,0.0,0.0,0.0,0.0,0.0,0.0,0.0,0.0,0.0,0.0,0.0,0.0,0.0,0.0,0.0,0.0,0.0,0.0,0.0,0.0,0.0,0.0,0.0,0.0,0.0,0.0,0.0,0.0,0.0,0.0,0.0,0.0,0.0,0.0,0.0,0.0,0.0,0.0,0.0,0.0,0.0,0.0,0.0,0.0,0.0,0.0,0.0,0.0,0.0,0.0,0.0,0.0,0.0,0.0,0.0,0.0,0.0,0.0,0.0,0.0,0.0,0.0,0.0,0.0,0.0,0.0,0.0,0.0,0.0,0.0,0.0,0.0,0.0,0.0,0.0,0.0,0.0,0.0,0.0,0.0,0.0,0.0,0.0,0.0,0.0,0.0,0.0,0.0,0.0,0.0,0.0,0.0,0.0,0.0,0.0,-0.8095,-0.7568,-0.7303,-0.6977,-0.6561,0.0,0.0,0.0,0.0,0.0,0.0,0.0,0.0,0.0,0.0,0.0,0.0,0.0,0.0,0.0,0.0,0.0,0.0,0.0,0.0,0.0,0.0,0.0,0.0,0.0,0.0,0.0,0.0,0.0,0.0,0.0,0.0,0.0,0.0,0.0,0.0,0.0,0.0,0.0,0.0,0.0,0.0,0.0,0.0,0.0,0.0,0.0,0.0,0.0,0.0,0.0,0.0,0.0,0.0,0.0,0.0,0.0,0.0,0.0,0.0,0.0,0.0,0.0,0.0,0.0,0.0,0.0,0.0,0.0,0.0,0.0,0.0,0.0,0.0,0.0,0.0,0.0,0.0,0.0,0.0,0.0,0.0,0.0,0.0,0.0,0.0,0.0,0.0,0.0,0.0,0.0,0.0,0.0,0.0,0.0,0.0,0.0,0.0,0.0,0.0,0.0,0.0,0.0,0.0,0.0,0.0,0.0,0.0,0.0,0.0,0.0,0.0,-0.7761,-0.7544,-0.7375,0.0,0.0,0.0,0.0,0.0,0.0,0.0,0.0,0.0,0.0,0.0,0.0,0.0,0.0,0.0,0.0,0.0,0.0,0.0,0.0,0.0,0.0,0.0,0.0,0.0,0.0,0.0,0.0,0.0,0.0,0.0,0.0,0.0,0.0,0.0,0.0,0.0,0.0,0.0,0.0,0.0,0.0,0.0,0.0,0.0,0.0,0.0,0.0,0.0,0.0,0.0,0.0,0.0,0.0,0.0,0.0,0.0,0.0,0.0,0.0,0.0,0.0,0.0,0.0,0.0,0.0,0.0,0.0,0.0,0.0,0.0,0.0,0.0,0.0,0.0,0.0,0.0,0.0,0.0,0.0,0.0,0.0,0.0,0.0,0.0,0.0,0.0,0.0,0.0,0.0,0.0,0.0,0.0,0.0,0.0,0.0,0.0,0.0,0.0,0.0,0.0,0.0,0.0,0.0,0.0,0.0,0.0,0.0,0.0,0.0,-0.8295,-0.8087,-0.7841,0.0,-0.7332,0.0,0.0,0.0,0.0,0.0,0.0,0.0,0.0,0.0,0.0,0.0,0.0,0.0,0.0,0.0,0.0,0.0,0.0,0.0,0.0,0.0,0.0,0.0,0.0,0.0,0.0,0.0,0.0,0.0,0.0,0.0,0.0,0.0,0.0,0.0,0.0,0.0,0.0,0.0,0.0,0.0,0.0,0.0,0.0,0.0,0.0,0.0,0.0,0.0,0.0,0.0,0.0,0.0,0.0,0.0,0.0,0.0,0.0,0.0,0.0,0.0,0.0,0.0,0.0,0.0,0.0,0.0,0.0,0.0,0.0,0.0,0.0,0.0,0.0,0.0,0.0,0.0,0.0,0.0,0.0,0.0,0.0,0.0,0.0,0.0,0.0,0.0,0.0,0.0,0.0,0.0,0.0,0.0,0.0,0.0,0.0,0.0,0.0,0.0,0.0,0.0,0.0,0.0,0.0,0.0,0.0,0.0,0.0,0.0,0.0,0.0,-0.8093,-0.7761,-0.7491,0.0,0.0,0.0,0.0,0.0,0.0,0.0,0.0,0.0,0.0,0.0,0.0,0.0,0.0,0.0,0.0,0.0,0.0,0.0,0.0,0.0,0.0,0.0,0.0,0.0,0.0,0.0,0.0,0.0,0.0,0.0,0.0,0.0,0.0,0.0,0.0,0.0,0.0,0.0,0.0,0.0,0.0,0.0,0.0,0.0,0.0,0.0,0.0,0.0,0.0,0.0,0.0,0.0,0.0,0.0,0.0,0.0,0.0,0.0,0.0,0.0,0.0,0.0,0.0,0.0,0.0,0.0,0.0,0.0,0.0,0.0,0.0,0.0,0.0,0.0,0.0,0.0,0.0,0.0,0.0,0.0,0.0,0.0,0.0,0.0,0.0,0.0,0.0,0.0,0.0,0.0,0.0,0.0,0.0,0.0,0.0,0.0,0.0,0.0,0.0,0.0,0.0,0.0,0.0,0.0,0.0,0.0,0.0,0.0,0.0,-0.86,0.0,-0.8053,-0.7731,-0.7499,-0.7359,0.0,0.0,0.0,0.0,0.0,0.0,0.0,0.0,0.0,0.0,0.0,0.0,0.0,0.0,0.0,0.0,0.0,0.0,0.0,0.0,0.0,0.0,0.0,0.0,0.0,0.0,0.0,0.0,0.0,0.0,0.0,0.0,0.0,0.0,0.0,0.0,0.0,0.0,0.0,0.0,0.0,0.0,0.0,0.0,0.0,0.0,0.0,0.0,0.0,0.0,0.0,0.0,0.0,0.0,0.0,0.0,0.0,0.0,0.0,0.0,0.0,0.0,0.0,0.0,0.0,0.0,0.0,0.0,0.0,0.0,0.0,0.0,0.0,0.0,0.0,0.0,0.0,0.0,0.0,0.0,0.0,0.0,0.0,0.0,0.0,0.0,0.0,0.0,0.0,0.0,0.0,0.0,0.0,0.0,0.0,0.0,0.0,0.0,0.0,0.0,0.0,0.0,0.0,0.0,0.0,0.0,0.0,0.0,0.0,-0.8638,-0.8305,-0.7925,-0.7753,-0.762,0.0,0.0,0.0,0.0,0.0,0.0,0.0,0.0,0.0,0.0,0.0,0.0,0.0,0.0,0.0,0.0,0.0,0.0,0.0,0.0,0.0,0.0,0.0,0.0,0.0,0.0,0.0,0.0,0.0,0.0,0.0,0.0,0.0,0.0,0.0,0.0,0.0,0.0,0.0,0.0,0.0,0.0,0.0,0.0,0.0,0.0,0.0,0.0,0.0,0.0,0.0,0.0,0.0,0.0,0.0,0.0,0.0,0.0,0.0,0.0,0.0,0.0,0.0,0.0,0.0,0.0,0.0,0.0,0.0,0.0,0.0,0.0,0.0,0.0,0.0,0.0,0.0,0.0,0.0,0.0,0.0,0.0,0.0,0.0,0.0,0.0,0.0,0.0,0.0,0.0,0.0,0.0,0.0,0.0,0.0,0.0,0.0,0.0,0.0,0.0,0.0,0.0,0.0,0.0,0.0,0.0,0.0,0.0,0.0,-0.8889,-0.8565,-0.8282,-0.8089,-0.787,-0.7702,0.0,0.0,0.0,0.0,0.0,0.0,0.0,0.0,0.0,0.0,0.0,0.0,0.0,0.0,0.0,0.0,0.0,0.0,0.0,0.0,0.0,0.0,0.0,0.0,0.0,0.0,0.0,0.0,0.0,0.0,0.0,0.0,0.0,0.0,0.0,0.0,0.0,0.0,0.0,0.0,0.0,0.0,0.0,0.0,0.0,0.0,0.0,0.0,0.0,0.0,0.0,0.0,0.0,0.0,0.0,0.0,0.0,0.0,0.0,0.0,0.0,0.0,0.0,0.0,0.0,0.0,0.0,0.0,0.0,0.0,0.0,0.0,0.0,0.0,0.0,0.0,0.0,0.0,0.0,0.0,0.0,0.0,0.0,0.0,0.0,0.0,0.0,0.0,0.0,0.0,0.0,0.0,0.0,0.0,0.0,0.0,0.0,0.0,0.0,0.0,0.0,0.0,0.0,0.0,0.0,0.0,0.0,0.0,0.0,-0.8834,0.0,-0.8323,0.0,-0.7992,-0.7805,0.0,0.0,0.0,0.0,0.0,0.0,0.0,0.0,0.0,0.0,0.0,0.0,0.0,0.0,0.0,0.0,0.0,0.0,0.0,0.0,0.0,0.0,0.0,0.0,0.0,0.0,0.0,0.0,0.0,0.0,0.0,0.0,0.0,0.0,0.0,0.0,0.0,0.0,0.0,0.0,0.0,0.0,0.0,0.0,0.0,0.0,0.0,0.0,0.0,0.0,0.0,0.0,0.0,0.0,0.0,0.0,0.0,0.0,0.0,0.0,0.0,0.0,0.0,0.0,0.0,0.0,0.0,0.0,0.0,0.0,0.0,0.0,0.0,0.0,0.0,0.0,0.0,0.0,0.0,0.0,0.0,0.0,0.0,0.0,0.0,0.0,0.0,0.0,0.0,0.0,0.0,0.0,0.0,0.0,0.0,0.0,0.0,0.0,0.0,0.0,0.0,0.0,0.0,0.0,0.0,0.0,0.0,0.0,-0.9014,-0.8723,-0.8573,-0.8431,-0.8309,-0.8102,-0.7933,0.0,0.0,0.0,0.0,0.0,0.0,0.0,0.0,0.0,0.0,0.0,0.0,0.0,0.0,0.0,0.0,0.0,0.0,0.0,0.0,0.0,0.0,0.0,0.0,0.0,0.0,0.0,0.0,0.0,0.0,0.0,0.0,0.0,0.0,0.0,0.0,0.0,0.0,0.0,0.0,0.0,0.0,0.0,0.0,0.0,0.0,0.0,0.0,0.0,0.0,0.0,0.0,0.0,0.0,0.0,0.0,0.0,0.0,0.0,0.0,0.0,0.0,0.0,0.0,0.0,0.0,0.0,0.0,0.0,0.0,0.0,0.0,0.0,0.0,0.0,0.0,0.0,0.0,0.0,0.0,0.0,0.0,0.0,0.0,0.0,0.0,0.0,0.0,0.0,0.0,0.0,0.0,0.0,0.0,0.0,0.0,0.0,0.0,0.0,0.0,0.0,0.0,0.0,0.0,0.0,0.0,0.0,0.0,0.0,-0.8812,-0.8585,-0.8455,-0.837,-0.8177,-0.8032,0.0,0.0,0.0,0.0,0.0,0.0,0.0,0.0,0.0,0.0,0.0,0.0,0.0,0.0,0.0,0.0,0.0,0.0,0.0,0.0,0.0,0.0,0.0,0.0,0.0,0.0,0.0,0.0,0.0,0.0,0.0,0.0,0.0,0.0,0.0,0.0,0.0,0.0,0.0,0.0,0.0,0.0,0.0,0.0,0.0,0.0,0.0,0.0,0.0,0.0,0.0,0.0,0.0,0.0,0.0,0.0,0.0,0.0,0.0,0.0,0.0,0.0,0.0,0.0,0.0,0.0,0.0,0.0,0.0,0.0,0.0,0.0,0.0,0.0,0.0,0.0,0.0,0.0,0.0,0.0,0.0,0.0,0.0,0.0,0.0,0.0,0.0,0.0,0.0,0.0,0.0,0.0,0.0,0.0,0.0,0.0,0.0,0.0,0.0,0.0,0.0,0.0,0.0,0.0,0.0,0.0,0.0,0.0,0.0,-0.9704,-0.9204,-0.8932,-0.8849,-0.8411,-0.8259,-0.8427,0.0,0.0,0.0,0.0,0.0,0.0,0.0,0.0,0.0,0.0,0.0,0.0,0.0,0.0,0.0,0.0,0.0,0.0,0.0,0.0,0.0,0.0,0.0,0.0,0.0,0.0,0.0,0.0,0.0,0.0,0.0,0.0,0.0,0.0,0.0,0.0,0.0,0.0,0.0,0.0,0.0,0.0,0.0,0.0,0.0,0.0,0.0,0.0,0.0,0.0,0.0,0.0,0.0,0.0,0.0,0.0,0.0,0.0,0.0,0.0,0.0,0.0,0.0,0.0,0.0,0.0,0.0,0.0,0.0,0.0,0.0,0.0,0.0,0.0,0.0,0.0,0.0,0.0,0.0,0.0,0.0,0.0,0.0,0.0,0.0,0.0,0.0,0.0,0.0,0.0,0.0,0.0,0.0,0.0,0.0,0.0,0.0,0.0,0.0,0.0,0.0,0.0,0.0,0.0,0.0,0.0,0.0,0.0,-1.1178,-1.0357,-0.9841,-0.965,-0.8859,-0.868,0.0,0.0,0.0,0.0,0.0,0.0,0.0,0.0,0.0,0.0,0.0,0.0,0.0,0.0,0.0,0.0,0.0,0.0,0.0,0.0,0.0,0.0,0.0,0.0,0.0,0.0,0.0,0.0,0.0,0.0,0.0,0.0,0.0,0.0,0.0,0.0,0.0,0.0,0.0,0.0,0.0,0.0,0.0,0.0,0.0,0.0,0.0,0.0,0.0,0.0,0.0,0.0,0.0,0.0,0.0,0.0,0.0,0.0,0.0,0.0,0.0,0.0,0.0,0.0,0.0,0.0,0.0,0.0,0.0,0.0,0.0,0.0,0.0,0.0,0.0,0.0,0.0,0.0,0.0,0.0,0.0,0.0,0.0,0.0,0.0,0.0,0.0,0.0,0.0,0.0,0.0,0.0,0.0,0.0,0.0,0.0,0.0,0.0,0.0,0.0,0.0,0.0,0.0,0.0,0.0,0.0,0.0,0.0,0.0,-1.2077,-1.1743,-1.1195,-1.0433,-1.0102,-0.9747,0.0,0.0,0.0,0.0,0.0,0.0,0.0,0.0,0.0,0.0,0.0,0.0,0.0,0.0,0.0,0.0,0.0,0.0,0.0,0.0,0.0,0.0,0.0,0.0,0.0,0.0,0.0,0.0,0.0,0.0,0.0,0.0,0.0,0.0,0.0,0.0,0.0,0.0,0.0,0.0,0.0,0.0,0.0,0.0,0.0,0.0,0.0,0.0,0.0,0.0,0.0,0.0,0.0,0.0,0.0,0.0,0.0,0.0,0.0,0.0,0.0,0.0,0.0,0.0,0.0,0.0,0.0,0.0,0.0,0.0,0.0,0.0,0.0,0.0,0.0,0.0,0.0,0.0,0.0,0.0,0.0,0.0,0.0,0.0,0.0,0.0,0.0,0.0,0.0,0.0,0.0,0.0,0.0,0.0,0.0,0.0,0.0,0.0,0.0,0.0,0.0,0.0,0.0,0.0,0.0,0.0,0.0,0.0,-1.3544,-1.2914,-1.2743,-1.2356,-1.172,-1.0978,-1.0503,0.0,0.0,0.0,0.0,0.0,0.0,0.0,0.0,0.0,0.0,0.0,0.0,0.0,0.0,0.0,0.0,0.0,0.0,0.0,0.0,0.0,0.0,0.0,0.0,0.0,0.0,0.0,0.0,0.0,0.0,0.0,0.0,0.0,0.0,0.0,0.0,0.0,0.0,0.0,0.0,0.0,0.0,0.0,0.0,0.0,0.0,0.0,0.0,0.0,0.0,0.0,0.0,0.0,0.0,0.0,0.0,0.0,0.0,0.0,0.0,0.0,0.0,0.0,0.0,0.0,0.0,0.0,0.0,0.0,0.0,0.0,0.0,0.0,0.0,0.0,0.0,0.0,0.0,0.0,0.0,0.0,0.0,0.0,0.0,0.0,0.0,0.0,0.0,0.0,0.0,0.0,0.0,0.0,0.0,0.0,0.0,0.0,0.0,0.0,0.0,0.0,0.0,0.0,0.0,0.0,0.0,0.0,0.0,-1.3818,-1.3604,-1.342,-1.3252,-1.308,-1.1695,-1.1115,0.0,0.0,0.0,0.0,0.0,0.0,0.0,0.0,0.0,0.0,0.0,0.0,0.0,0.0,0.0,0.0,0.0,0.0,0.0,0.0,0.0,0.0,0.0,0.0,0.0,0.0,0.0,0.0,0.0,0.0,0.0,0.0,0.0,0.0,0.0,0.0,0.0,0.0,0.0,0.0,0.0,0.0,0.0,0.0,0.0,0.0,0.0,0.0,0.0,0.0,0.0,0.0,0.0,0.0,0.0,0.0,0.0,0.0,0.0,0.0,0.0,0.0,0.0,0.0,0.0,0.0,0.0,0.0,0.0,0.0,0.0,0.0,0.0,0.0,0.0,0.0,0.0,0.0,0.0,0.0,0.0,0.0,0.0,0.0,0.0,0.0,0.0,0.0,0.0,0.0,0.0,0.0,0.0,0.0,0.0,0.0,0.0,0.0,0.0,0.0,0.0,0.0,0.0,0.0,0.0,0.0,0.0,0.0,-1.3889,-1.3682,-1.3535,-1.3362,-1.3184,-1.2684,-1.2198,0.0,0.0,0.0,0.0,0.0,0.0,0.0,0.0,0.0,0.0,0.0,0.0,0.0,0.0,0.0,0.0,0.0,0.0,0.0,0.0,0.0,0.0,0.0,0.0,0.0,0.0,0.0,0.0,0.0,0.0,0.0,0.0,0.0,0.0,0.0,0.0,0.0,0.0,0.0,0.0,0.0,0.0,0.0,0.0,0.0,0.0,0.0,0.0,1.0059,0.0,0.0,0.0,0.0,0.0,0.0,0.0,0.0,0.0,0.0,0.0,0.0,0.0,0.0,0.0,0.0,0.0,0.0,0.0,0.0,0.0,0.0,0.0,0.0,0.0,0.0,0.0,0.0,0.0,0.0,0.0,0.0,0.0,0.0,0.0,0.0,0.0,0.0,0.0,0.0,0.0,0.0,0.0,0.0,0.0,0.0,0.0,0.0,0.0,0.0,0.0,0.0,0.0,0.0,0.0,0.0,0.0,0.0,0.0,-1.4002,-1.3803,-1.3653,-1.3519,-1.3337,-1.3149,-1.2798,0.0,0.0,0.0,0.0,0.0,0.0,0.0,0.0,0.0,0.0,0.0,0.0,0.0,0.0,0.0,0.0,0.0,0.0,0.0,0.0,0.0,0.0,0.0,0.0,0.0,0.0,0.0,0.0,0.0,0.0,0.0,0.0,0.0,0.0,0.0,0.0,0.0,0.0,0.0,0.0,0.0,0.0,0.0,0.0,0.0,0.0,0.0,0.0,0.0,0.0,0.0,0.0,0.0,0.0,0.0,0.0,0.0,0.0,0.0,0.0,0.0,0.0,0.0,0.0,0.0,0.0,0.0,0.0,0.0,0.0,0.0,0.0,0.0,0.0,0.0,0.0,0.0,0.0,0.0,0.0,0.0,0.0,0.0,0.0,0.0,0.0,0.0,0.0,0.0,0.0,0.0,0.0,0.0,0.0,0.0,0.0,0.0,0.0,0.0,0.0,0.0,0.0,0.0,0.0,0.0,0.0,0.0,-1.4262,-1.411,-1.3936,-1.38,-1.3655,-1.3495,-1.3329,-1.3096,-1.2842,0.0,0.0,0.0,0.0,0.0,0.0,0.0,0.0,0.0,0.0,0.0,0.0,0.0,0.0,0.0,0.0,0.0,0.0,0.0,0.0,0.0,0.0,0.0,0.0,0.0,0.0,0.0,0.0,0.0,0.0,0.0,0.0,0.0,0.0,0.0,0.0,0.0,0.0,0.703,0.8534,0.0,0.0,0.0,0.0,0.0,0.0,0.0,0.0,1.0908,0.0,0.0,0.0,0.0,0.0,0.0,0.0,0.0,0.0,0.0,0.0,0.0,0.0,0.0,0.0,0.0,0.0,0.0,0.0,0.0,0.0,0.0,0.0,0.0,0.0,0.0,0.0,0.0,0.0,0.0,0.0,0.0,0.0,0.0,0.0,0.0,0.0,0.0,0.0,0.0,0.0,0.0,0.0,0.0,0.0,0.0,0.0,0.0,0.0,0.0,0.0,0.0,0.0,0.0,0.0,0.0,-1.4468,-1.4359,-1.4207,-1.4077,-1.3938,-1.3749,-1.3501,-1.3413,-1.3269,-1.3,0.0,0.0,0.0,0.0,0.0,0.0,0.0,0.0,0.0,0.0,0.0,0.0,0.0,0.0,0.0,0.0,0.0,0.0,0.0,0.0,0.0,0.0,0.0,0.0,0.0,0.0,0.0,0.0,0.0,0.0,0.0,0.0,0.0,0.0,0.0,0.0,0.0,0.0,0.0,1.0089,1.0646,0.0,0.0,0.0,0.0,0.0,0.0,0.0,0.0,1.067,0.0,0.0,0.0,0.0,0.0,0.0,0.0,0.0,0.0,0.0,0.0,0.0,0.0,0.0,0.0,0.0,0.0,0.0,0.0,0.0,0.0,0.0,0.0,0.0,0.0,0.0,0.0,0.0,0.0,0.0,0.0,0.0,0.0,0.0,0.0,0.0,0.0,0.0,0.0,0.0,0.0,0.0,0.0,0.0,0.0,0.0,0.0,0.0,0.0,0.0,0.0,0.0,0.0,0.0,0.0,-1.4543,-1.4458,-1.4328,-1.4196,-1.4058,-1.3861,-1.3653,-1.3528,-1.3362,0.0,0.0,0.0,0.0,0.0,0.0,0.0,0.0,0.0,0.0,0.0,0.0,0.0,0.0,0.0,0.0,0.0,0.0,0.0,0.0,0.0,0.0,0.0,0.0,0.0,0.0,0.0,0.0,0.0,0.0,0.0,0.0,0.0,0.0,0.0,0.0,0.0,0.0,0.0,0.0,1.0348,1.063,1.1956,0.0,0.0,0.0,0.0,0.0,0.0,1.0185,1.0223,0.0,0.0,0.0,0.0,0.0,0.0,0.0,0.0,0.0,0.0,0.0,0.0,0.0,0.0,0.0,0.0,0.0,0.0,0.0,0.0,0.0,0.0,0.0,0.0,0.0,0.0,0.0,0.0,0.0,0.0,0.0,0.0,0.0,0.0,0.0,0.0,0.0,0.0,0.0,0.0,0.0,0.0,0.0,0.0,0.0,0.0,0.0,0.0,0.0,0.0,0.0,0.0,0.0,0.0,0.0,-1.4616,-1.4558,-1.4458,-1.4328,-1.4136,-1.3972,-1.383,-1.3648,-1.3479,0.0,0.0,0.0,0.0,0.0,0.0,0.0,0.0,0.0,0.0,0.0,0.0,0.0,0.0,0.0,0.0,0.0,0.0,0.0,0.0,0.0,0.0,0.0,0.0,0.0,0.0,0.0,0.0,0.0,0.0,0.0,0.0,0.0,0.0,0.0,0.0,0.0,0.0,0.0,0.0,0.0,1.05,1.1564,1.1184,0.0,0.0,0.0,0.0,0.9497,0.9433,0.0,0.0,0.0,0.0,0.0,0.0,0.0,0.0,0.0,0.0,0.0,0.0,0.0,0.0,0.0,0.0,0.0,0.0,0.0,0.0,0.0,0.0,0.0,0.0,0.0,0.0,0.0,0.0,0.0,0.0,0.0,0.0,0.0,0.0,0.0,0.0,0.0,0.0,0.0,0.0,0.0,0.0,0.0,0.0,0.0,0.0,0.0,0.0,0.0,0.0,0.0,0.0,0.0,0.0,0.0,0.0,-1.4685,-1.4616,-1.4526,-1.4387,-1.4253,-1.4091,-1.39,-1.3746,-1.3575,0.0,0.0,0.0,0.0,0.0,0.0,0.0,0.0,0.0,0.0,0.0,0.0,0.0,0.0,0.0,0.0,0.0,0.0,0.0,0.0,0.0,0.0,0.0,0.0,0.0,0.0,0.0,0.0,0.0,0.0,0.0,0.0,0.0,0.0,0.0,0.0,0.0,0.0,0.0,0.0,0.0,1.069,1.1355,1.0625,0.9727,0.0,0.0,0.8805,0.8659,0.8538,0.0,0.0,0.0,0.0,0.0,0.0,0.0,0.0,0.0,0.0,0.0,0.0,0.0,0.0,0.0,0.0,0.0,0.0,0.0,0.0,0.0,0.0,0.0,0.0,0.0,0.0,0.0,0.0,0.0,0.0,0.0,0.0,0.0,0.0,0.0,0.0,0.0,0.0,0.0,0.0,0.0,0.0,0.0,0.0,0.0,0.0,0.0,0.0,0.0,0.0,0.0,0.0,0.0,0.0,0.0,-1.4905,-1.4756,-1.4688,-1.4582,-1.4457,-1.4329,-1.4184,-1.3997,-1.3881,-1.3703,0.0,0.0,0.0,0.0,0.0,0.0,0.0,0.0,0.0,0.0,0.0,0.0,0.0,0.0,0.0,0.0,0.0,0.0,0.0,0.0,0.0,0.0,0.0,0.0,0.0,0.0,0.0,0.0,0.0,0.0,0.0,0.0,0.0,0.0,0.0,0.0,0.0,0.0,0.0,0.0,0.0,0.0,1.0882,0.9812,0.0,0.0,0.0,0.7473,0.7298,0.0,0.0,0.0,0.0,0.0,0.0,0.0,0.0,0.0,0.0,0.0,0.0,0.0,0.0,0.0,0.0,0.0,0.0,0.0,0.0,0.0,0.0,0.0,0.0,0.0,0.0,0.0,0.0,0.0,0.0,0.0,0.0,0.0,0.0,0.0,0.0,0.0,0.0,0.0,0.0,0.0,0.0,0.0,0.0,0.0,0.0,0.0,0.0,0.0,0.0,0.0,0.0,0.0,0.0,0.0,0.0,0.0,-1.4823,-1.4757,-1.4668,-1.4517,-1.4404,-1.4259,-1.4143,-1.4019,0.0,0.0,0.0,0.0,0.0,0.0,0.0,0.0,0.0,0.0,0.0,0.0,0.0,0.0,0.0,0.0,0.0,0.0,0.0,0.0,0.0,0.0,0.0,0.0,0.0,0.0,0.0,0.047,0.0,0.0,0.0,0.0,0.0,0.0,0.0,0.0,0.0,0.0,0.0,0.0,0.0,0.0,0.9218,1.0143,0.873,0.7068,0.0,0.0,0.6044,0.5849,0.5987,0.6284,0.0,0.0,0.0,0.0,0.0,0.0,0.0,0.0,0.0,0.0,0.0,0.0,0.0,0.0,0.0,0.0,0.0,0.0,0.0,0.0,0.0,0.0,0.0,0.0,0.0,0.0,0.0,0.0,0.0,0.0,0.0,0.0,0.0,0.0,0.0,0.0,0.0,0.0,0.0,0.0,0.0,0.0,0.0,0.0,0.0,0.0,0.0,0.0,0.0,0.0,0.0,0.0,0.0,0.0,0.0,-1.4895,-1.4827,-1.4726,-1.4594,-1.4468,-1.4347,-1.4293,-1.4168,-1.3984,0.0,0.0,0.0,0.0,0.0,0.0,0.0,0.0,0.0,0.0,0.0,0.0,0.0,0.0,0.0,0.0,0.0,0.0,0.0,0.0,0.0,0.0,0.0,0.0,0.0,0.0,0.0,0.0,0.0,0.0,0.0,0.0,0.0,0.0,0.0,0.0,0.0,0.0,0.0,0.0,0.0,0.8274,0.9012,0.72,0.5253,0.0,0.0,0.4473,0.4507,0.4699,0.5051,0.5681,0.0,0.0,0.0,0.0,0.0,0.0,0.0,0.0,0.0,0.0,0.0,0.0,0.0,0.0,0.0,0.0,0.0,0.0,0.0,0.0,0.0,0.0,0.0,0.0,0.0,0.0,0.0,0.0,0.0,0.0,0.0,0.0,0.0,0.0,0.0,0.0,0.0,0.0,0.0,0.0,0.0,0.0,0.0,0.0,0.0,0.0,0.0,0.0,0.0,0.0,0.0,0.0,0.0,-1.497,-1.4894,-1.4864,-1.4785,-1.4654,-1.4576,-1.4474,-1.4371,-1.4281,-1.413,0.0,0.0,0.0,0.0,0.0,0.0,0.0,0.0,0.0,0.0,0.0,0.0,0.0,0.0,0.0,0.0,0.0,0.0,0.0,0.0,0.0,0.0,0.0,0.0,0.0,0.0,0.0,0.0,-0.2184,-0.1804,-0.0951,0.0,0.0,0.0,0.0,0.0,0.0,0.0,0.0,0.0,0.0,0.5933,0.694,0.5028,0.0,0.0,0.2191,0.2739,0.284,0.3169,0.3642,0.4345,0.5327,0.0,0.0,0.0,0.0,0.0,0.0,0.0,0.0,0.0,0.0,0.0,0.0,0.0,0.0,0.0,0.0,0.0,0.0,0.0,0.0,0.0,0.0,0.0,0.0,0.0,0.0,0.0,0.0,0.0,0.0,0.0,0.0,0.0,0.0,0.0,0.0,0.0,0.0,0.0,0.0,0.0,0.0,0.0,0.0,0.0,0.0,0.0,0.0,0.0,0.0,0.0,0.0,-1.4988,-1.4929,-1.4909,-1.4837,-1.4734,-1.4679,-1.4572,-1.4465,-1.4368,-1.4244,0.0,0.0,0.0,0.0,0.0,0.0,0.0,0.0,0.0,0.0,0.0,0.0,0.0,0.0,0.0,0.0,0.0,0.0,0.0,0.0,0.0,0.0,0.0,0.0,0.0,0.0,0.0,0.0,-0.3926,-0.3558,-0.2744,0.0,0.0,0.0,0.0,0.0,0.0,0.0,0.0,0.0,0.0,0.3179,0.4405,0.2543,0.0551,-0.0677,-0.0017,0.071,0.0937,0.1419,0.2059,0.2848,0.0,0.0,0.0,0.0,0.0,0.0,0.0,0.0,0.0,0.0,0.0,0.0,0.0,0.0,0.0,0.0,0.0,0.0,0.0,0.0,0.0,0.0,0.0,0.0,0.0,0.0,0.0,-1.1603,0.0,0.0,-1.163,0.0,0.0,0.0,0.0,0.0,0.0,0.0,0.0,0.0,0.0,0.0,0.0,0.0,0.0,0.0,0.0,0.0,0.0,0.0,0.0,0.0,0.0,-1.5068,-1.499,-1.494,-1.4869,-1.4804,-1.4734,-1.4672,-1.4594,-1.4456,-1.4329,-1.4165,0.0,0.0,0.0,0.0,0.0,0.0,0.0,0.0,0.0,0.0,0.0,0.0,0.0,0.0,0.0,0.0,0.0,0.0,0.0,0.0,0.0,0.0,0.0,0.0,0.0,0.0,-0.5626,-0.5534,-0.5315,0.0,0.0,0.0,0.0,0.0,0.0,0.0,0.0,0.0,0.0,0.0,0.0094,0.1459,-0.027,-0.216,-0.3356,-0.258,-0.1689,-0.1209,-0.0557,0.0269,0.0,0.0,0.0,0.0,0.0,0.0,0.0,0.0,0.0,0.0,0.0,0.0,0.0,0.0,0.0,0.0,0.0,0.0,0.0,0.0,0.0,0.0,0.0,0.0,0.0,0.0,0.0,-1.3729,-1.3646,0.0,0.0,0.0,0.0,0.0,0.0,0.0,0.0,0.0,0.0,0.0,-1.6449,-1.6488,0.0,0.0,0.0,0.0,0.0,0.0,0.0,0.0,0.0,0.0,0.0,0.0,-1.5064,-1.5,-1.4985,-1.4921,-1.4859,-1.4794,-1.4736,-1.4658,-1.4588,-1.4177,-1.3428,0.0,0.0,0.0,0.0,0.0,0.0,0.0,0.0,0.0,0.0,0.0,0.0,0.0,0.0,0.0,0.0,0.0,0.0,0.0,0.0,0.0,0.0,0.0,0.0,0.0,-0.6902,0.0,0.0,0.0,0.0,0.0,0.0,0.0,0.0,0.0,0.0,0.0,-0.2536,-0.2847,-0.3209,-0.3057,-0.205,-0.3379,-0.4945,0.0,0.0,0.0,0.0,0.0,0.0,0.0,0.0,0.0,0.0,0.0,0.0,0.0,0.0,0.7509,0.9785,1.0619,1.111,1.1559,0.0,0.0,0.0,0.0,0.0,0.0,0.0,0.0,0.0,0.0,0.0,0.0,0.0,0.0,-1.5678,-1.5616,-1.513,0.0,0.0,0.0,0.0,0.0,0.0,0.0,0.0,-1.7168,-1.7466,-1.7501,-1.75,-1.7526,0.0,-1.7641,-1.7113,0.0,0.0,0.0,0.0,0.0,0.0,0.0,0.0,-1.5077,-1.504,-1.5314,-1.5429,-1.5345,-1.5315,-1.525,-1.5176,-1.4785,-1.4222,-1.3485,-1.2549,-1.1632,0.0,0.0,0.0,0.0,0.0,0.0,0.0,0.0,0.0,0.0,0.0,0.0,0.0,0.0,0.0,0.0,0.0,0.0,0.0,0.0,0.0,0.0,0.0,-0.8062,0.0,0.0,0.0,0.0,0.0,0.0,0.0,0.0,0.0,-0.8768,-0.7197,-0.6225,-0.6375,-0.6648,-0.6386,-0.5248,0.0,0.0,0.0,0.0,0.0,0.0,0.0,-0.4336,-0.3546,-0.2881,-0.1894,-0.026,0.2283,0.3989,0.3631,0.0,0.0,0.8013,0.9171,0.9774,1.0271,1.0671,1.0998,1.1182,1.1296,1.1518,0.0,0.0,0.0,0.0,0.0,0.0,0.0,0.0,-1.7565,-1.7581,0.0,-1.752,0.0,0.0,0.0,0.0,-1.7671,-1.7705,0.0,0.0,-1.7853,-1.7827,-1.7856,-1.7927,-1.7902,-1.7873,-1.7963,-1.797,-1.788,-1.6962,0.0,0.0,0.0,0.0,0.0,0.0,-1.5175,-1.5249,-1.597,-1.632,-1.6249,-1.6205,-1.6135,-1.6005,-1.5045,-1.4441,-1.4274,-1.335,-1.2444,-1.1534,-1.0621,0.0,0.0,0.0,0.0,0.0,0.0,0.0,0.0,0.0,0.0,0.0,0.0,0.0,0.0,0.0,0.0,0.0,0.0,0.0,0.0,-0.853,0.0,0.0,0.0,0.0,0.0,0.0,0.0,0.0,0.0,0.0,-1.0398,-0.9899,-0.9734,-0.9873,0.0,0.0,0.0,0.0,-1.0264,-1.1103,-0.9867,-0.8598,-0.8057,-0.7431,-0.6775,-0.6109,0.0,0.0,-0.1657,0.0396,0.1638,0.1509,0.1302,0.2376,0.6051,0.739,0.8189,0.8792,0.9286,0.9692,0.996,1.0145,1.0359,-1.9204,0.0,0.0,0.0,0.0,-1.8248,-1.851,-1.8536,-1.9172,-1.9467,-1.9457,-1.8897,0.0,0.0,0.0,0.0,0.0,0.0,-1.8699,-1.8778,-1.9982,-2.0556,-2.0579,-2.114,-2.141,-2.1391,-2.0811,-2.0511,-2.045,-1.9027,-1.8018,-1.7417,0.0,0.0,0.0,0.0,-1.6948,-1.697,-1.7139,-1.7206,-1.7204,-1.6537,-1.5866,-1.5203,-1.4826,-1.4581,-1.4441,-1.2986,-1.205,-1.1708,-1.0284,0.0,0.0,0.0,0.0,0.0,0.0,0.0,0.0,0.0,0.0,0.0,0.0,0.0,0.0,0.0,0.0,0.0,0.0,0.0,-0.8847,-0.9072,-0.9414,0.0,0.0,0.0,0.0,0.0,0.0,0.0,0.0,0.0,-1.2663,-1.2128,-1.1893,0.0,0.0,-1.1587,-1.0676,-1.1131,-1.1807,-1.2536,-1.1611,0.0,-1.0126,-0.9641,-0.9112,-0.8446,-0.7322,-0.5956,-0.4364,-0.2942,-0.1885,-0.1477,-0.1215,-0.0293,0.1917,0.4471,0.6293,0.7134,0.7659,0.8084,0.8456,0.8687,0.8922,-2.1278,-1.9831,-1.9428,-1.9434,-1.9804,-2.0283,-2.0489,-2.051,-2.1079,-2.1333,-2.1349,-2.0867,-2.0662,-2.0658,-2.0143,0.0,0.0,0.0,-2.0688,-2.0722,-2.1779,-2.2232,-2.2256,-2.2722,-2.2933,-2.2917,-2.241,-2.1981,-2.1629,-2.062,-1.9679,-1.8813,0.0,0.0,-1.7738,-1.7729,-1.7731,-1.7716,-1.801,-1.8146,-1.811,-1.7195,-1.6275,-1.54,-1.4967,-1.4698,-1.4563,-1.3521,-1.259,-1.1863,-1.0813,-0.9907,0.0,0.0,0.0,0.0,0.0,0.0,0.0,0.0,0.0,0.0,0.0,-0.8236,-0.821,0.0,0.0,0.0,-0.8704,-0.9138,-0.928,-0.9781,0.0,0.0,0.0,0.0,0.0,0.0,0.0,-1.3177,-1.3585,-1.4027,-1.4469,-1.4194,-1.3931,-1.3923,-1.3842,-1.3571,-1.3079,0.0,-1.3278,-1.365,-1.3001,-1.2277,-1.1814,-1.1432,-1.0959,-1.0246,-0.9212,-0.8147,-0.7074,-0.5973,-0.5089,-0.4582,-0.3941,-0.2892,-0.1077,0.1209,0.3395,0.502,0.5823,0.6349,0.6787,0.7073,0.7324,-2.3215,-2.3132,-2.2271,-2.23,-2.2904,-2.2919,-2.2907,-2.2909,-2.2966,-2.3015,-2.301,-2.3011,-2.3036,-2.3096,-2.3105,0.0,-2.3099,-2.3103,-2.3069,-2.3111,-2.3168,-2.3173,-2.3101,-2.3179,-2.3203,-2.3208,-2.3129,-2.2694,-2.1949,-2.1829,-2.1403,-2.059,-1.9019,-1.8136,-1.8024,-1.8014,-1.7979,-1.7924,-1.8703,-1.9027,-1.8899,-1.806,-1.7155,-1.6209,-1.5372,-1.4859,-1.4703,-1.4526,-1.3673,-1.2118,-1.1823,-1.0952,-0.9341,0.0,0.0,0.0,0.0,0.0,0.0,0.0,0.0,0.0,0.0,0.0,0.0,0.0,0.0,0.0,-0.9553,0.0,-0.9538,-1.0596,0.0,0.0,0.0,-1.2749,-1.29,-1.2936,-1.3234,-1.3913,0.0,0.0,-1.5859,-1.5947,-1.5785,-1.5402,-1.5586,-1.5572,-1.5142,-1.481,-1.4652,-1.4573,-1.4087,-1.355,-1.3143,-1.2816,-1.2348,-1.1627,-1.0982,-1.0253,-0.9514,-0.8569,-0.7859,-0.7467,-0.6634,-0.5269,-0.3238,-0.1977,-0.0522,0.2388,0.3707,0.4505,0.5007,0.5375,0.5724,-2.4972,-2.4959,-2.4748,-2.3996,-2.2991,-2.2985,-2.2979,-2.2978,-2.2985,-2.3026,-2.3071,-2.3069,-2.3075,-2.3104,-2.3107,-2.3098,-2.3101,-2.3107,-2.3103,-2.3146,-2.3782,-2.4084,-2.409,-2.4688,-2.498,-2.4939,-2.4302,-2.3884,-2.366,-2.3006,-2.2583,-2.2369,-2.1969,-2.1096,-1.9835,-1.9793,-1.9738,-1.9676,-1.9875,-1.9628,-1.8922,-1.8667,-1.7817,-1.6245,-1.5992,-1.5527,-1.4803,-1.4109,-1.3492,-1.2968,-1.1729,-1.0529,-0.9424,-0.9231,0.0,0.0,0.0,0.0,0.0,0.0,0.0,0.0,0.0,-0.8368,-0.8275,0.0,-0.8299,0.0,-0.9658,-1.0695,-1.1038,-1.1348,0.0,0.0,-1.2605,-1.2747,-1.2884,-1.3387,-1.3817,-1.3989,-1.5009,-1.5818,-1.6046,-1.6532,-1.6811,-1.6593,-1.6321,-1.6065,-1.5782,-1.5543,-1.5337,-1.524,-1.4869,-1.448,-1.4154,-1.3739,-1.3257,-1.2706,-1.217,-1.1694,-1.122,-1.0356,-0.95,-0.8946,-0.8273,-0.7103,-0.544,-0.4187,-0.296,-0.1362,0.0643,0.2479,0.3215,0.3704,0.4159,-2.563,-2.5637,-2.5605,-2.5043,-2.4169,-2.4156,-2.4152,-2.4167,-2.4185,-2.422,-2.4255,-2.4245,-2.4247,-2.4249,-2.4259,-2.4268,-2.4248,-2.4266,-2.4263,-2.4279,-2.4755,-2.4973,-2.5002,-2.5434,-2.564,-2.5621,-2.5123,-2.469,-2.432,-2.3832,-2.3395,-2.3048,-2.3016,-2.2516,-2.1593,-2.1559,-2.1353,-2.092,-2.0506,-2.0044,-1.9495,-1.9098,-1.8418,-1.7436,-1.6646,-1.5987,-1.5447,-1.4565,-1.3859,-1.3391,-1.245,-1.115,-0.9556,-0.9682,-0.9615,0.0,0.0,0.0,0.0,0.0,0.0,0.0,0.0,0.0,0.0,0.0,-0.8933,-0.9263,-1.068,-1.159,-1.1593,-1.1872,-1.2226,-1.2653,-1.2693,-1.2886,-1.3332,-1.3735,-1.4257,-1.4898,-1.5734,-1.6354,-1.6594,-1.6991,-1.7203,-1.7149,-1.6863,-1.6557,-1.6315,-1.6057,-1.5889,-1.5797,-1.5507,-1.5128,-1.4807,-1.4392,-1.3989,-1.362,-1.3196,-1.2765,-1.2413,-1.1664,-1.089,-1.0252,-0.9715,-0.8889,-0.7335,-0.6177,-0.5137,-0.4016,-0.2433,-0.06,0.1142,0.1884,0.2441,-2.5696,-2.5696,-2.5638,-2.5605,-2.5603,-2.56,-2.5613,-2.5617,-2.5664,-2.5697,-2.5697,-2.5694,-2.5693,-2.5697,-2.5697,-2.5697,-2.5697,-2.5693,-2.5701,-2.5699,-2.5694,-2.5701,-2.57,-2.5701,-2.5696,-2.5694,-2.564,-2.5251,-2.4569,-2.45,-2.4133,-2.3448,-2.3373,-2.332,-2.3331,-2.333,-2.2805,-2.1707,-2.0785,-2.0269,-2.0201,-1.9462,-1.9012,-1.8846,-1.7316,-1.639,-1.6208,-1.5314,-1.4462,-1.3719,-1.3451,-1.2357,-1.0272,-1.0455,-1.0195,0.0,-0.91,0.0,0.0,0.0,0.0,0.0,0.0,0.0,0.0,-0.9526,-0.9827,-1.0599,-1.1971,-1.2525,-1.1846,-1.229,-1.2654,-1.2736,-1.2802,-1.3182,-1.3906,-1.4161,-1.4797,-1.6067,-1.6308,-1.6628,-1.7203,-1.7314,-1.7314,-1.7281,-1.7178,-1.7059,-1.6897,-1.6563,-1.6307,-1.6256,-1.5953,-1.5565,-1.5233,-1.4907,-1.4634,-1.4408,-1.4019,-1.3649,-1.3374,-1.2738,-1.2079,-1.1513,-1.1071,-1.0355,-0.8944,-0.7995,-0.7114,-0.6115,-0.5173,-0.3696,-0.1186,0.002,0.061,-2.5702,-2.5694,-2.5697,-2.5684,-2.5684,-2.568,-2.5683,-2.5685,-2.5699,-2.5701,-2.5694,-2.5693,-2.5696,-2.5697,-2.5697,-2.5697,-2.5696,-2.5696,-2.5695,-2.5695,-2.5701,-2.5697,-2.5697,-2.57,-2.5697,-2.5697,-2.5694,-2.56,-2.5443,-2.5442,-2.5337,-2.5145,-2.5113,-2.5109,-2.5123,0.0,0.0,0.0,-2.0774,-2.0298,-2.0265,-2.0063,-1.9609,-1.8908,-1.7906,0.0,-1.629,-1.5382,-1.4783,-1.4551,-1.3854,0.0,0.0,0.0,0.0,0.0,0.0,0.0,0.0,0.0,0.0,0.0,-0.9764,-0.986,-1.0394,-1.0264,-1.0541,-1.1471,-1.2361,-1.2822,-1.2657,-1.2762,-1.2851,-1.2877,-1.3402,-1.381,-1.402,-1.508,-1.6006,-1.6237,-1.6848,-1.727,-1.735,-1.7379,-1.7367,-1.7347,-1.7277,-1.7508,-1.8057,-1.7279,-1.6639,-1.6509,-1.6305,-1.5906,-1.5623,-1.5448,-1.5237,-1.4959,-1.4643,-1.4342,-1.4095,-1.3608,-1.3056,-1.2513,-1.2229,-1.1678,-1.0473,-0.9657,-0.8833,-0.7957,-0.7086,-0.5701,-0.3036,-0.1893,-0.1186,-2.5695,-2.5702,-2.5696,-2.5693,0.0,-2.5701,-2.5698,-2.5697,-2.57,-2.5693,-2.5694,-2.5696,-2.5697,-2.5697,-2.5697,-2.5697,-2.5697,-2.5697,-2.5697,-2.5697,-2.5694,-2.5693,-2.5693,-2.5697,-2.5694,-2.5694,-2.57,-2.5697,-2.5701,-2.5696,-2.5677,-2.564,-2.5601,-2.561,-2.5574,-2.4741,-2.365,-2.2317,-2.1017,-2.0326,-2.0298,-2.0269,-2.002,-1.9528,-1.8287,0.0,0.0,0.0,0.0,0.0,0.0,0.0,0.0,0.0,0.0,-1.0279,-0.9967,-0.9648,-0.922,-0.9789,-1.0304,-1.0575,-1.1204,-1.1497,-1.1311,-1.1377,-1.17,-1.2277,-1.2753,-1.2978,-1.2915,-1.3209,-1.3447,-1.3471,-1.4103,-1.4671,-1.515,-1.5838,-1.6478,-1.6862,-1.7284,-1.7529,-1.7462,-1.7794,-1.7955,-1.7926,-1.8193,-1.8434,-1.857,-1.7962,-1.7439,-1.7607,-1.743,-1.7198,-1.7013,-1.6525,-1.6152,-1.5964,-1.5443,-1.4942,-1.4686,-1.4292,-1.3838,-1.3389,-1.3113,-1.2626,-1.1694,-1.0927,-1.0205,-0.9485,-0.8681,-0.7684,-0.5872,-0.4367,-0.2995,-2.5692,-2.57,-2.5696,-2.5695,-2.5695,-2.5702,-2.5692,-2.5695,-2.5698,0.0,0.0,-2.5698,-2.5698,-2.5699,-2.5697,-2.5697,-2.5697,-2.5697,-2.5697,-2.5697,-2.5697,-2.5697,-2.5697,-2.5693,-2.5701,-2.5701,-2.5696,-2.5693,-2.5701,-2.5701,-2.5694,-2.5702,-2.5636,-2.5607,-2.5485,-2.3869,-2.2979,-2.2843,-2.1269,-2.036,-2.0309,-2.0292,-2.0264,-2.0205,-1.8538,-1.7612,-1.7579,-1.5943,-1.4982,-1.4921,-1.4808,-1.4713,-1.4583,-1.3745,-1.2679,-1.1509,-1.0978,-1.0415,-0.9716,-1.0752,-1.1432,-1.142,-1.2608,-1.2992,-1.2173,-1.247,-1.2763,-1.2937,-1.3288,-1.3415,-1.3184,-1.3826,-1.4263,-1.4262,-1.4903,-1.5618,-1.6218,-1.652,-1.6869,-1.7411,-1.7557,-1.7644,-1.7744,-1.8247,-1.8689,-1.8788,-1.9134,-1.9486,-1.9202,-1.8792,-1.8506,-1.8625,-1.8474,-1.8481,-1.836,-1.7799,-1.7288,-1.7137,-1.645,-1.5786,-1.5506,-1.5025,-1.4563,-1.4348,-1.395,-1.338,-1.2677,-1.2003,-1.1389,-1.0812,-1.0123,-0.9429,-0.8649,-0.6948,-0.5221,-2.5693,-2.5692,-2.57,-2.5699,-2.5699,-2.5699,-2.5699,-2.5699,-2.5699,-2.5698,-2.5699,-2.5695,-2.5693,-2.5693,-2.5699,-2.5697,-2.5697,-2.5697,-2.5697,-2.5697,-2.5697,-2.5697,-2.5697,-2.5696,-2.5696,-2.5696,-2.5695,-2.5693,-2.5697,-2.57,-2.5693,-2.5692,-2.5693,-2.565,-2.5466,-2.3872,-2.3001,-2.2941,-2.1288,-2.0386,-2.0389,-2.0324,-2.0298,-2.0212,-1.8612,-1.7661,-1.7575,-1.5994,-1.5053,-1.4982,-1.4916,-1.4804,-1.4665,-1.3872,-1.3129,-1.2575,-1.1965,-1.1543,-1.136,-1.1511,-1.1794,-1.2301,-1.3032,-1.3345,-1.305,-1.3019,-1.3065,-1.3203,-1.4326,-1.4859,-1.4276,-1.4812,-1.5275,-1.5334,-1.5881,-1.6366,-1.6508,-1.7026,-1.7444,-1.7611,-1.7581,-1.7897,-1.8449,-1.8729,-1.9115,-1.955,-1.9817,-1.987,-2.0179,-1.9937,-1.9518,-1.9204,-1.8959,-1.8813,-1.8805,-1.8504,-1.8259,-1.8191,-1.7838,-1.7407,-1.7226,-1.6164,-1.543,-1.5504,-1.4959,-1.4234,-1.3562,-1.3024,-1.2478,-1.1898,-1.1244,-1.0636,-0.9973,-0.9032,-0.7929,-2.5693,-2.5693,-2.5692,-2.5702,-2.5702,-2.5702,-2.5702,-2.5702,-2.5692,-2.5702,-2.57,-2.5698,-2.5696,-2.5694,-2.5702,-2.57,-2.5697,-2.5697,-2.5697,-2.5697,-2.5697,-2.5697,-2.5697,-2.5697,-2.5697,-2.5697,-2.5697,-2.5696,-2.5693,-2.5696,-2.5697,-2.5701,-2.5697,-2.5662,-2.551,-2.4341,-2.3478,-2.2981,-2.1287,-2.0381,-2.0382,-2.0376,-2.0346,-2.0302,-1.9063,-1.8153,-1.7658,-1.6469,-1.5565,-1.5025,-1.4947,-1.4836,-1.4699,-1.4278,-1.3756,-1.3135,-1.3122,-1.2744,-1.1808,-1.207,-1.2558,-1.3213,-1.3878,-1.4211,-1.4076,-1.3505,-1.3349,-1.3828,-1.4909,-1.54,-1.5005,-1.5598,-1.6034,-1.6053,-1.6685,-1.7074,-1.7143,-1.7395,-1.7809,-1.8162,-1.8289,-1.8587,-1.9315,-1.9757,-2.0075,-2.0463,-2.0671,-2.101,-2.1255,-2.1047,-2.0747,-2.0401,-2.0255,-2.0157,-1.9986,-1.9529,-1.9248,-1.9154,-1.8625,-1.8207,-1.7988,-1.7101,-1.6741,-1.6646,-1.6248,-1.5637,-1.4836,-1.4259,-1.3653,-1.2849,-1.2259,-1.1685,-1.1111,-1.036,-0.9087,-2.5693,-2.5693,-2.5693,-2.5693,-2.5693,-2.5693,-2.5693,-2.5693,-2.5693,-2.5693,-2.5702,-2.5701,-2.5699,-2.5696,-2.5694,-2.5702,-2.5699,-2.5697,-2.5697,-2.5697,-2.5697,-2.5697,-2.5697,-2.5697,-2.5697,-2.5697,-2.5697,-2.5697,-2.5696,-2.5697,-2.5697,-2.5693,-2.5697,-2.5673,-2.5575,-2.4727,-2.3871,-2.297,-2.1483,-2.0583,-2.0404,-2.0389,-2.0353,-2.0264,-1.9462,-1.8693,-1.7992,-1.7156,-1.6262,-1.5381,-1.5232,-1.5065,-1.4766,-1.4692,-1.4325,-1.3735,-1.4062,-1.3775,-1.2541,-1.2803,-1.3412,-1.4126,-1.4638,-1.4975,-1.5003,-1.4315,-1.4046,-1.4697,-1.5615,-1.6097,-1.5956,-1.6437,-1.6837,-1.6871,-1.7339,-1.765,-1.7684,-1.7864,-1.8219,-1.8773,-1.9066,-1.9488,-2.0183,-2.0735,-2.1083,-2.1287,-2.1669,-2.194,-2.1899,-2.1804,-2.1639,-2.1472,-2.1372,-2.1205,-2.1135,-2.0591,-2.0138,-2.0059,-1.9492,-1.9053,-1.8745,-1.8457,-1.8084,-1.7846,-1.7768,-1.7192,-1.6161,-1.5507,-1.4848,-1.3958,-1.3311,-1.2711,-1.1932,-1.1102,-0.9885,-2.5731,-2.5693,-2.5771,-2.5693,-2.5732,-2.5703,-2.5693,-2.5693,-2.5693,-2.5693,-2.5693,-2.5693,-2.5692,-2.5702,-2.5697,-2.5694,-2.5693,-2.5699,-2.5697,-2.5697,-2.5697,-2.5697,-2.5697,-2.5697,-2.5697,-2.5697,-2.5697,-2.5697,-2.5696,-2.5696,-2.5701,-2.5695,-2.5699,-2.5664,-2.5507,-2.4749,-2.3879,-2.3011,-2.2061,-2.1194,-2.0439,-2.0384,-2.0382,-2.0292,-1.9532,-1.9046,-1.8819,-1.8029,-1.7147,-1.6288,-1.6179,-1.5783,-1.5038,-1.4827,-1.4693,-1.4535,-1.4507,-1.4305,-1.4013,-1.3964,-1.4321,-1.4973,-1.5073,-1.5344,-1.5906,-1.5808,-1.5654,-1.5932,-1.6971,-1.7379,-1.692,-1.7392,-1.7763,-1.7726,-1.7863,-1.797,-1.8069,-1.8577,-1.8995,-1.9058,-1.9774,-2.0423,-2.1041,-2.1278,-2.1522,-2.1919,-2.2037,-2.2094,-2.1943,-2.1884,-2.1811,-2.1663,-2.1494,-2.1379,-2.1269,-2.1206,-2.0903,-2.0767,-2.0653,-2.03,-2.0016,-1.9896,-1.9764,-1.8842,-1.8964,-1.8623,-1.7468,-1.6643,-1.6099,-1.5154,-1.4439,-1.3797,-1.2555,-1.1771,-1.0807,-2.7234,-2.7255,-2.7246,-2.6943,-2.6445,-2.5918,-2.5693,-2.5693,-2.5693,-2.5693,-2.5693,-2.5693,-2.5693,-2.5692,-2.57,-2.5696,-2.5694,-2.5699,-2.5697,-2.5697,-2.5697,-2.5697,-2.5697,-2.5697,-2.5697,-2.5697,-2.5697,-2.5695,-2.5702,-2.5699,-2.5694,-2.5701,-2.5699,-2.5677,-2.5615,-2.5254,-2.4639,-2.3781,-2.2912,-2.2044,-2.1212,-2.0655,-2.039,-2.0328,-1.9993,-1.9522,-1.9031,-1.8618,-1.7997,-1.7154,-1.7022,-1.6824,-1.6394,-1.5386,-1.5199,-1.5958,-1.5978,-1.5844,-1.5696,-1.5648,-1.5738,-1.5971,-1.6323,-1.6639,-1.6853,-1.7209,-1.7395,-1.7421,-1.7838,-1.7954,-1.7675,-1.7847,-1.8011,-1.8011,-1.8011,-1.8165,-1.8628,-1.8927,-1.9388,-2.0272,-2.0733,-2.1221,-2.1809,-2.1964,-2.2041,-2.2226,-2.222,-2.2154,-2.2046,-2.1949,-2.1846,-2.1751,-2.1639,-2.1518,-2.1402,-2.1301,-2.1206,-2.1087,-2.095,-2.0786,-2.0669,-2.0501,-2.02,-1.9684,-1.9695,-1.9343,-1.8239,-1.77,-1.7205,-1.627,-1.539,-1.4633,-1.3472,-1.2855,-1.2018,-2.8288,-2.8289,-2.8291,-2.7939,-2.7305,-2.668,-2.6279,-2.6064,-2.6055,-2.5918,-2.5703,-2.5693,-2.5693,-2.5692,-2.5701,-2.5698,-2.5696,-2.57,-2.5697,-2.5697,-2.5697,-2.5697,-2.5697,-2.5697,-2.5696,-2.5695,-2.5695,-2.5701,-2.5693,-2.5699,-2.5699,-2.5701,-2.5699,-2.5699,-2.5697,-2.5621,-2.5162,-2.4323,-2.366,-2.2824,-2.1779,-2.1083,-2.0644,-2.043,-2.034,-1.9985,-1.9386,-1.9298,-1.8871,-1.8019,-1.7892,-1.771,-1.7372,-1.6196,-1.6188,-1.7482,-1.7188,-1.6856,-1.6762,-1.6711,-1.6753,-1.6904,-1.7375,-1.7683,-1.7843,-1.8237,-1.8497,-1.843,-1.8333,-1.825,-1.8159,-1.8106,-1.8093,-1.8093,-1.8229,-1.864,-1.9093,-1.947,-2.0276,-2.1267,-2.1584,-2.1927,-2.2369,-2.2407,-2.2338,-2.2288,-2.2254,-2.2203,-2.2104,-2.1995,-2.1892,-2.1827,-2.1768,-2.1639,-2.1495,-2.1387,-2.1301,-2.1199,-2.1063,-2.0958,-2.0844,-2.0662,-2.0484,-2.006,-1.9939,-1.9659,-1.9033,-1.859,-1.8115,-1.7142,-1.6245,-1.5426,-1.4553,-1.4007,-1.3421,-2.8287,-2.8327,-2.832,-2.832,-2.8223,-2.8125,-2.7666,-2.6934,-2.6904,-2.6475,-2.581,-2.5703,-2.5693,-2.5692,-2.57,-2.57,-2.5699,-2.5702,-2.5697,-2.5697,-2.5697,-2.5697,-2.5697,-2.5697,-2.5694,-2.5701,-2.5701,-2.5701,-2.5696,-2.5692,-2.5697,-2.5699,-2.5699,-2.5699,-2.5697,-2.564,-2.5172,-2.4469,-2.4234,-2.3441,-2.1973,-2.1693,-2.1215,-2.0552,-2.0341,-2.0257,-2.0204,-2.0152,-1.973,-1.8874,-1.8786,-1.8355,-1.7557,-1.7347,-1.7903,-1.8978,-1.7847,-1.6968,-1.6979,-1.6913,-1.711,-1.7677,-1.7807,-1.7993,-1.8529,-1.8606,-1.8594,-1.8603,-1.8525,-1.8437,-1.8413,-1.8319,-1.8303,-1.8398,-1.8993,-1.9326,-1.947,-2.0667,-2.1442,-2.1729,-2.2169,-2.2456,-2.2489,-2.2446,-2.2386,-2.2333,-2.2305,-2.226,-2.2141,-2.2042,-2.1932,-2.1834,-2.1774,-2.1753,-2.1612,-2.1496,-2.1372,-2.1254,-2.1151,-2.1095,-2.0941,-2.0769,-2.0586,-2.0441,-2.0262,-2.0038,-1.9734,-1.929,-1.8732,-1.7916,-1.6948,-1.6111,-1.5548,-1.5127,-1.4517,-2.9959,-2.9911,-2.9355,-2.9131,-2.9072,-2.8555,-2.8105,-2.7783,-2.7226,-2.6836,-2.6464,-2.5955,-2.5701,-2.5701,-2.5698,-2.5696,-2.5696,-2.57,-2.5697,-2.5697,-2.5697,-2.5697,-2.5697,-2.5694,-2.5702,-2.5699,-2.5696,-2.5697,-2.5694,-2.5697,-2.5693,-2.5699,-2.5699,-2.5699,-2.5697,-2.5685,-2.546,-2.5114,-2.4611,-2.3964,-2.3287,-2.2275,-2.1524,-2.1231,-2.0611,-2.0299,-2.0297,-2.0279,-2.0092,-1.9748,-1.9659,-1.9473,-1.9115,-1.8937,-1.9058,-1.9439,-1.8927,-1.8512,-1.8447,-1.8398,-1.8431,-1.8614,-1.8628,-1.8615,-1.8816,-1.8788,-1.8724,-1.8732,-1.8714,-1.8841,-1.9139,-1.8759,-1.8509,-1.9016,-1.9345,-1.9946,-2.0755,-2.1456,-2.1909,-2.2297,-2.2609,-2.2637,-2.2533,-2.2487,-2.2427,-2.2333,-2.2276,-2.2231,-2.2209,-2.2063,-2.1901,-2.1827,-2.1789,-2.1753,-2.162,-2.1566,-2.1472,-2.1325,-2.1215,-2.1151,-2.1022,-2.0884,-2.0711,-2.056,-2.0449,-2.027,-1.9935,-1.9565,-1.909,-1.8667,-1.7702,-1.705,-1.6581,-1.6126,-1.5517,-3.0917,-3.081,-3.0273,-3.001,-2.9941,-2.9394,-2.8974,-2.8672,-2.8095,-2.7537,-2.6961,-2.6373,-2.5982,-2.5727,-2.5694,-2.5701,-2.57,-2.5697,-2.5697,-2.5697,-2.5695,-2.5695,-2.5694,-2.5699,-2.5694,-2.5701,-2.5694,-2.5696,-2.5699,-2.5701,-2.5699,-2.5699,-2.5699,-2.5699,-2.5699,-2.5695,-2.5636,-2.5476,-2.5009,-2.4603,-2.42,-2.3165,-2.2232,-2.1693,-2.1053,-2.0569,-2.0326,-2.0292,-2.0273,-2.0188,-2.0122,-2.0034,-1.9947,-1.9798,-1.9672,-1.9606,-1.9524,-1.9457,-1.9355,-1.9328,-1.9247,-1.9177,-1.9119,-1.906,-1.8984,-1.8941,-1.8887,-1.8905,-1.9359,-1.9781,-1.9882,-1.9522,-1.9351,-1.9865,-2.0151,-2.0681,-2.1667,-2.2021,-2.2358,-2.266,-2.2712,-2.2632,-2.2525,-2.2492,-2.2419,-2.2324,-2.2257,-2.2211,-2.2172,-2.2046,-2.1861,-2.1812,-2.1759,-2.1716,-2.1612,-2.1542,-2.1472,-2.1333,-2.127,-2.1215,-2.1119,-2.0973,-2.0834,-2.0702,-2.0551,-2.0373,-2.0106,-1.9762,-1.945,-1.9149,-1.8629,-1.7942,-1.7519,-1.7101,-1.6481,-3.0917,-3.0908,-3.0898,-3.082,-3.0781,-3.0693,-3.0321,-2.9656,-2.9489,-2.855,-2.7397,-2.7014,-2.6484,-2.5898,-2.5747,-2.5694,-2.5702,-2.5694,-2.5696,-2.5695,-2.5702,-2.5699,-2.5698,-2.5692,-2.5694,-2.5683,-2.5693,-2.5699,-2.5697,-2.5697,-2.5685,-2.5687,-2.5695,-2.5685,-2.5687,-2.564,-2.561,-2.5576,-2.5495,-2.5149,-2.442,-2.4157,-2.3379,-2.2061,-2.164,-2.1158,-2.0403,-2.0325,-2.0263,-2.0193,-2.0084,-1.9974,-1.9908,-1.9785,-1.9679,-1.9613,-1.9553,-1.9482,-1.9416,-1.9355,-1.9297,-1.9268,-1.918,-1.9118,-1.9086,-1.9079,-1.9027,-1.9093,-2.0033,-2.0857,-2.0657,-2.0703,-2.0782,-2.0868,-2.1329,-2.1759,-2.2074,-2.2562,-2.2948,-2.2833,-2.2751,-2.2654,-2.2547,-2.2484,-2.2438,-2.2324,-2.2225,-2.2143,-2.2067,-2.1957,-2.1869,-2.1789,-2.1738,-2.1686,-2.1595,-2.1511,-2.1411,-2.1324,-2.1301,-2.1262,-2.1143,-2.1014,-2.0916,-2.0776,-2.0561,-2.0392,-2.0133,-1.9815,-1.9614,-1.9328,-1.8985,-1.8674,-1.8192,-1.7729,-1.7424,-3.0918,-3.0918,-3.0918,-3.0917,-3.0917,-3.0916,-3.0719,-3.0416,-2.9886,-2.9297,-2.863,-2.7521,-2.6832,-2.6498,-2.5988,-2.5694,-2.5693,-2.5696,-2.5696,-2.5694,-2.5693,-2.5692,-2.57,-2.5693,-2.5671,-2.5627,-2.5634,-2.5629,-2.5629,-2.5629,-2.5619,-2.5629,-2.5629,-2.5629,-2.5622,-2.5605,-2.5608,-2.56,-2.5604,-2.5445,-2.5149,-2.4604,-2.3983,-2.3389,-2.2271,-2.1454,-2.1185,-2.0623,-2.0292,-2.0212,-2.0112,-2.0018,-1.9908,-1.9785,-1.9661,-1.9604,-1.9576,-1.9546,-1.9479,-1.9411,-1.9347,-1.9308,-1.9246,-1.92,-1.9126,-1.913,-1.9106,-1.9118,-2.0055,-2.1035,-2.2141,-2.204,-2.179,-2.171,-2.1893,-2.2233,-2.26,-2.282,-2.2901,-2.2932,-2.2812,-2.2689,-2.2587,-2.2525,-2.2446,-2.2302,-2.2172,-2.2044,-2.2007,-2.1913,-2.1783,-2.1686,-2.1656,-2.1632,-2.1518,-2.1449,-2.1379,-2.1317,-2.1294,-2.1246,-2.1143,-2.1078,-2.0973,-2.0793,-2.0578,-2.0359,-2.0108,-1.9904,-1.9723,-1.9512,-1.9202,-1.8893,-1.862,-1.8261,-1.7868,-3.0918,-3.0918,-3.0916,-3.0916,-3.0915,-3.0913,-3.0881,-3.0792,-3.0279,-2.9863,-2.9311,-2.8115,-2.7281,-2.6877,-2.6094,-2.5712,-2.5699,-2.5668,-2.5653,-2.5673,-2.5691,-2.5702,-2.5688,-2.5674,-2.5642,-2.5602,-2.5603,-2.561,-2.561,-2.561,-2.561,-2.561,-2.561,-2.561,-2.5608,-2.5603,-2.5602,-2.5601,-2.5603,-2.5608,-2.5499,-2.5059,-2.4561,-2.4114,-2.3118,-2.224,-2.1635,-2.1014,-2.0577,-2.0266,-2.0112,-1.9996,-1.9905,-1.9779,-1.9669,-1.9642,-1.9608,-1.9581,-1.9531,-1.9464,-1.9407,-1.9332,-1.9286,-1.9249,-1.9232,-1.9365,-1.9585,-1.9296,-2.0722,-2.2156,-2.3115,-2.3023,-2.2641,-2.2552,-2.2497,-2.2643,-2.3016,-2.2986,-2.2927,-2.2936,-2.2829,-2.2677,-2.2605,-2.2533,-2.2455,-2.2316,-2.2132,-2.1998,-2.1978,-2.1884,-2.1761,-2.1649,-2.1625,-2.1556,-2.1424,-2.1371,-2.134,-2.1285,-2.1254,-2.1199,-2.1111,-2.1095,-2.103,-2.0735,-2.051,-2.0342,-2.0118,-1.9993,-1.983,-1.9596,-1.9365,-1.9078,-1.8767,-1.8438,-1.8069,-3.0916,-3.0897,-3.0895,-3.0893,-3.0902,-3.0888,-3.0854,-3.0809,-3.0755,-3.0317,-2.9556,-2.8608,-2.7808,-2.7017,-2.6149,-2.5674,-2.5687,-2.5642,-2.5624,-2.5624,-2.5656,-2.5675,-2.5668,-2.5639,-2.5608,-2.5605,-2.5603,-2.56,-2.5586,-2.5586,-2.5596,-2.5578,-2.5595,-2.5593,-2.5583,-2.5594,-2.5577,-2.559,-2.5592,-2.5586,-2.559,-2.5488,-2.511,-2.4366,-2.4047,-2.3263,-2.2118,-2.1566,-2.0998,-2.0301,-2.0068,-1.9962,-1.989,-1.9779,-1.9694,-1.9686,-1.9644,-1.9622,-1.9583,-1.9526,-1.9442,-1.9347,-1.9311,-1.9321,-1.9448,-1.9981,-2.0255,-1.9839,-2.1757,-2.3312,-2.343,-2.3376,-2.3274,-2.3265,-2.3076,-2.3077,-2.3072,-2.2974,-2.2936,-2.2944,-2.2838,-2.2681,-2.2609,-2.2533,-2.2441,-2.2316,-2.2141,-2.2021,-2.1969,-2.1884,-2.1761,-2.1679,-2.1619,-2.1519,-2.1394,-2.1348,-2.1317,-2.1262,-2.1207,-2.1135,-2.1071,-2.1046,-2.0932,-2.0661,-2.046,-2.0291,-2.0152,-2.0028,-1.9856,-1.9637,-1.9409,-1.9172,-1.8874,-1.8541,-1.8254,-3.0916,-3.0905,-3.0849,-3.0825,-3.0834,-3.0824,-3.0807,-3.0794,-3.0794,-3.0658,-3.0158,-2.8875,-2.8126,-2.7727,-2.6305,-2.5629,-2.5627,-2.5612,-2.5603,-2.561,-2.5607,-2.5622,-2.5625,-2.5617,-2.5601,-2.5606,-2.5597,-2.5576,-2.5534,-2.5528,-2.5538,-2.5522,-2.5547,-2.5538,-2.5522,-2.5531,-2.5525,-2.5535,-2.5528,-2.5521,-2.5513,-2.5511,-2.5391,-2.5087,-2.4462,-2.3907,-2.326,-2.212,-2.1005,-2.0141,-1.9967,-1.9909,-1.989,-1.981,-1.9741,-1.9709,-1.9689,-1.964,-1.9588,-1.9536,-1.9458,-1.9402,-1.943,-1.9587,-2.005,-2.0306,-2.078,-2.1269,-2.2425,-2.304,-2.3415,-2.3473,-2.3357,-2.3241,-2.3168,-2.3107,-2.3033,-2.2957,-2.2902,-2.291,-2.2786,-2.2659,-2.256,-2.2492,-2.2455,-2.2307,-2.2147,-2.1998,-2.1969,-2.1876,-2.1753,-2.1672,-2.1589,-2.1489,-2.1403,-2.1333,-2.1278,-2.1223,-2.1143,-2.1038,-2.0974,-2.0917,-2.0745,-2.0503,-2.0416,-2.0272,-2.0143,-2.0028,-1.9838,-1.9662,-1.9465,-1.9239,-1.8912,-1.8579,-1.8333,-3.0852,-3.085,-3.0817,-3.0792,-3.0791,-3.0788,-3.079,-3.0792,-3.0791,-3.0779,-3.0443,-2.9339,-2.8521,-2.8065,-2.6741,-2.589,-2.5601,-2.5557,-2.5561,-2.5554,-2.5554,-2.557,-2.5582,-2.5587,-2.557,-2.5564,-2.5564,-2.5544,-2.5518,-2.5515,-2.5515,-2.5518,-2.5515,-2.5515,-2.5509,-2.5515,-2.5508,-2.5511,-2.5513,-2.5476,-2.5447,-2.5447,-2.5423,-2.531,-2.4812,-2.449,-2.3865,-2.2306,-2.0941,-2.0205,-1.9936,-1.9898,-1.989,-1.9835,-1.9776,-1.9712,-1.9721,-1.9672,-1.9604,-1.9534,-1.9466,-1.9498,-1.9635,-2.0026,-2.0476,-2.0933,-2.1834,-2.2062,-2.2659,-2.3133,-2.3412,-2.345,-2.3321,-2.3226,-2.3119,-2.3036,-2.3008,-2.2928,-2.2863,-2.2838,-2.2756,-2.2627,-2.2523,-2.2479,-2.2405,-2.2293,-2.2124,-2.2036,-2.1984,-2.1869,-2.1768,-2.1657,-2.1582,-2.1497,-2.138,-2.1294,-2.1215,-2.1151,-2.103,-2.0941,-2.0901,-2.0819,-2.067,-2.051,-2.0382,-2.0252,-2.0141,-2.0018,-1.9856,-1.9683,-1.9505,-1.9258,-1.8905,-1.8592,-1.8365,-3.0791,-3.0798,-3.0793,-3.0796,-3.0792,-3.079,-3.0777,-3.0784,-3.0771,-3.0751,-3.048,-2.9681,-2.8732,-2.8142,-2.69,-2.6185,-2.5509,-2.5512,-2.5512,-2.5522,-2.5522,-2.5528,-2.557,-2.5544,-2.5528,-2.5511,-2.5511,-2.5495,-2.5484,-2.5488,-2.5491,-2.5481,-2.5494,-2.5488,-2.5481,-2.5494,-2.5481,-2.5488,-2.5472,-2.5451,-2.5417,-2.5405,-2.5355,-2.5308,-2.524,-2.4709,-2.3801,-2.249,-2.1314,-2.0329,-2.0039,-1.9913,-1.9894,-1.9835,-1.9776,-1.9715,-1.9705,-1.9672,-1.9613,-1.9543,-1.9575,-1.969,-2.0231,-2.0675,-2.0968,-2.1899,-2.2515,-2.2529,-2.3179,-2.3479,-2.3449,-2.336,-2.3253,-2.3168,-2.3049,-2.3008,-2.297,-2.2881,-2.2829,-2.2855,-2.272,-2.2587,-2.2506,-2.2432,-2.2372,-2.231,-2.2147,-2.2036,-2.1969,-2.1876,-2.1753,-2.1635,-2.1574,-2.1528,-2.138,-2.1254,-2.1151,-2.1071,-2.0909,-2.0826,-2.0819,-2.0745,-2.0645,-2.0494,-2.0304,-2.0183,-2.0098,-1.9965,-1.982,-1.9647,-1.942,-1.9157,-1.8879,-1.8592,-1.8319,-3.0795,-3.0791,-3.0792,-3.0789,-3.0796,-3.0738,-3.0725,-3.073,-3.0727,-3.071,-3.0369,-2.9099,-2.8368,-2.8047,-2.6637,-2.5657,-2.5505,-2.5498,-2.5515,-2.5515,-2.5513,-2.5512,-2.5526,-2.5494,-2.5491,-2.5506,-2.5511,-2.548,-2.5435,-2.5427,-2.5421,-2.5425,-2.5433,-2.5421,-2.5425,-2.5429,-2.5417,-2.5427,-2.5414,-2.5409,-2.5392,-2.5356,-2.5317,-2.5293,-2.526,-2.4772,-2.4066,-2.3493,-2.2809,-2.1834,-2.0721,-2.0079,-1.9916,-1.9882,-1.9823,-1.9715,-1.9696,-1.9663,-1.9632,-1.9655,-1.9811,-2.0369,-2.0665,-2.1079,-2.2218,-2.2527,-2.3041,-2.3282,-2.3604,-2.3589,-2.3383,-2.3268,-2.3172,-2.3074,-2.2974,-2.2889,-2.2855,-2.2825,-2.2799,-2.2738,-2.265,-2.2552,-2.2426,-2.2419,-2.2358,-2.2296,-2.2178,-2.2036,-2.194,-2.1868,-2.1744,-2.162,-2.1597,-2.1528,-2.1364,-2.1223,-2.1103,-2.099,-2.0843,-2.0727,-2.0719,-2.0695,-2.0595,-2.0416,-2.0191,-2.0096,-1.9993,-1.9869,-1.9723,-1.9523,-1.931,-1.9071,-1.881,-1.8541,-1.8279,-3.0792,-3.079,-3.0767,-3.0759,-3.0748,-3.073,-3.0698,-3.0696,-3.0662,-3.0647,-3.0389,-2.9201,-2.8456,-2.7966,-2.6695,-2.5894,-2.5509,-2.5451,-2.5451,-2.5447,-2.5451,-2.5452,-2.5458,-2.5455,-2.5453,-2.5447,-2.5458,-2.5436,-2.5394,-2.5395,-2.5395,-2.5391,-2.5391,-2.5395,-2.5391,-2.5387,-2.5368,-2.5355,-2.5351,-2.5332,-2.5308,-2.5274,-2.5257,-2.524,-2.5184,-2.4861,-2.4473,-2.3955,-2.3496,-2.2792,-2.174,-2.0636,-2.0118,-2.018,-2.0157,-1.9756,-1.9657,-1.9882,-2.0015,-2.0148,-2.0416,-2.1199,-2.1494,-2.2016,-2.2738,-2.3091,-2.343,-2.3656,-2.3645,-2.3501,-2.3289,-2.3232,-2.3135,-2.3024,-2.2944,-2.2859,-2.2808,-2.2777,-2.2716,-2.2667,-2.2601,-2.2484,-2.2402,-2.2377,-2.2366,-2.2305,-2.2141,-2.1998,-2.1963,-2.1876,-2.1753,-2.1642,-2.162,-2.1528,-2.1349,-2.1199,-2.1055,-2.0933,-2.0785,-2.0702,-2.0661,-2.0619,-2.0578,-2.0356,-2.0129,-1.9973,-1.9876,-1.9751,-1.9589,-1.935,-1.9134,-1.8965,-1.8748,-1.847,-1.8234,-3.0789,-3.0782,-3.0738,-3.0704,-3.0701,-3.0703,-3.0682,-3.0678,-3.0635,-3.0593,-3.0352,-2.9569,-2.8488,-2.7872,-2.6849,-2.6036,-2.5593,-2.5405,-2.5408,-2.5404,-2.5404,-2.5405,-2.5405,-2.5415,-2.5401,-2.5387,-2.5406,-2.5392,-2.5392,-2.5387,-2.5374,-2.5378,-2.5369,-2.5355,-2.5364,-2.5364,-2.5337,-2.5293,-2.5274,-2.5254,-2.5228,-2.5202,-2.5193,-2.518,-2.5109,-2.5044,-2.4784,-2.4346,-2.3864,-2.3733,-2.306,-2.2015,-2.118,-2.0759,-2.0888,-2.0131,-2.0208,-2.048,-2.0838,-2.095,-2.1224,-2.2005,-2.2482,-2.2859,-2.3101,-2.3489,-2.3724,-2.3657,-2.3547,-2.3383,-2.3217,-2.316,-2.3107,-2.2999,-2.2932,-2.2868,-2.2799,-2.2725,-2.2659,-2.2605,-2.256,-2.2465,-2.2369,-2.2321,-2.231,-2.2282,-2.2118,-2.1998,-2.1963,-2.1884,-2.1753,-2.1649,-2.162,-2.1459,-2.1278,-2.1199,-2.1038,-2.0859,-2.0735,-2.0668,-2.0601,-2.0526,-2.0441,-2.026,-2.0076,-1.9884,-1.9726,-1.9636,-1.9435,-1.9183,-1.9014,-1.8855,-1.8625,-1.8392,-1.8142,-3.076,-3.0725,-3.0704,-3.0701,-3.069,-3.0638,-3.0629,-3.0618,-3.0601,-3.0564,-3.0274,-2.8878,-2.8125,-2.7532,-2.6259,-2.5536,-2.5406,-2.5378,-2.5392,-2.5392,-2.5392,-2.5387,-2.5384,-2.5384,-2.5356,-2.5346,-2.5356,-2.5374,-2.5374,-2.5337,-2.5332,-2.5327,-2.5327,-2.5302,-2.5259,-2.5224,-2.5258,-2.5242,-2.5228,-2.5207,-2.5195,-2.5191,-2.5155,-2.5126,-2.5057,-2.5012,-2.4991,-2.4815,-2.4655,-2.4585,-2.4467,-2.4151,-2.3473,-2.2588,-2.1984,-2.1695,-2.1457,-2.1464,-2.1688,-2.1722,-2.2054,-2.2555,-2.2887,-2.3194,-2.3524,-2.3793,-2.3786,-2.3611,-2.34,-2.3235,-2.3196,-2.3098,-2.3011,-2.2914,-2.285,-2.279,-2.2725,-2.2672,-2.2636,-2.2596,-2.2528,-2.2468,-2.2386,-2.2316,-2.231,-2.2268,-2.2126,-2.2021,-2.1984,-2.1884,-2.1753,-2.1664,-2.1613,-2.1412,-2.1183,-2.1143,-2.1038,-2.0826,-2.0694,-2.061,-2.0526,-2.0415,-2.0285,-2.0058,-1.9838,-1.965,-1.9534,-1.9483,-1.9317,-1.9075,-1.8924,-1.8753,-1.8509,-1.8261,-1.7996,-3.073,-3.0704,-3.0666,-3.0653,-3.0641,-3.0611,-3.0591,-3.0559,-3.053,-3.0274,-2.9564,-2.8478,-2.762,-2.7007,-2.601,-2.5393,-2.5351,-2.5336,-2.5346,-2.5341,-2.5351,-2.5346,-2.5337,-2.5346,-2.5327,-2.5302,-2.5307,-2.5327,-2.5351,-2.5307,-2.5282,-2.5257,-2.5262,-2.5232,-2.5202,-2.5207,-2.521,-2.5205,-2.52,-2.5183,-2.5159,-2.5156,-2.5117,-2.5054,-2.5015,-2.4982,-2.4941,-2.4894,-2.4832,-2.478,-2.4742,-2.4726,-2.444,-2.3984,-2.3317,-2.3133,-2.2533,-2.224,-2.247,-2.2548,-2.2802,-2.3437,-2.3471,-2.3509,-2.3696,-2.3738,-2.3614,-2.3398,-2.3283,-2.3139,-2.3098,-2.3011,-2.2914,-2.2859,-2.2808,-2.2756,-2.2707,-2.2624,-2.2601,-2.2555,-2.2482,-2.2413,-2.2349,-2.2302,-2.2305,-2.2231,-2.2118,-2.2058,-2.1998,-2.1884,-2.1744,-2.1634,-2.1543,-2.1357,-2.1167,-2.1127,-2.1014,-2.0809,-2.0636,-2.0552,-2.0467,-2.0356,-2.0061,-1.9741,-1.956,-1.9431,-1.9387,-1.9343,-1.915,-1.8981,-1.8779,-1.8593,-1.8379,-1.8129,-1.7882,-3.0706,-3.0666,-3.0628,-3.0608,-3.061,-3.0577,-3.0554,-3.0486,-3.0278,-2.9853,-2.9124,-2.8106,-2.7234,-2.655,-2.5847,-2.5351,-2.5298,-2.5298,-2.5298,-2.5303,-2.5303,-2.5298,-2.5288,-2.5282,-2.5272,-2.5262,-2.5242,-2.5237,-2.5282,-2.5272,-2.5247,-2.5231,-2.521,-2.521,-2.5205,-2.5204,-2.5208,-2.5181,-2.517,-2.5145,-2.5091,-2.5073,-2.5041,-2.498,-2.4984,-2.4947,-2.4875,-2.4834,-2.4798,-2.4777,-2.4739,-2.4689,-2.467,-2.4562,-2.4488,-2.426,-2.3124,-2.2978,-2.313,-2.3326,-2.3493,-2.394,-2.394,-2.3865,-2.3739,-2.3594,-2.3363,-2.3144,-2.3061,-2.3028,-2.2986,-2.2919,-2.285,-2.2816,-2.2769,-2.2729,-2.2659,-2.2601,-2.2528,-2.2482,-2.2427,-2.2372,-2.2316,-2.2302,-2.2305,-2.2217,-2.2112,-2.2044,-2.1984,-2.1876,-2.1744,-2.1603,-2.1466,-2.1286,-2.1159,-2.1103,-2.0973,-2.0767,-2.0627,-2.051,-2.0409,-2.0314,-1.9947,-1.9603,-1.9387,-1.9276,-1.925,-1.9183,-1.9014,-1.8824,-1.862,-1.8413,-1.8196,-1.7996,-1.7747,-3.0672,-3.061,-3.0608,-3.0606,-3.0602,-3.055,-3.0506,-3.0379,-2.9711,-2.9329,-2.8881,-2.7545,-2.6746,-2.6347,-2.5693,-2.5341,-2.5298,-2.5303,-2.5293,-2.5287,-2.5282,-2.5262,-2.5228,-2.5222,-2.5227,-2.5221,-2.5212,-2.5207,-2.5231,-2.5221,-2.521,-2.5213,-2.5208,-2.5206,-2.5214,-2.5193,-2.518,-2.5131,-2.5109,-2.5079,-2.5019,-2.5018,-2.4976,-2.4929,-2.491,-2.4882,-2.4826,-2.4791,-2.4768,-2.4715,-2.4699,-2.4666,-2.4615,-2.455,-2.4428,-2.4348,-2.4173,-2.4108,-2.4008,-2.3934,-2.3876,-2.4008,-2.3896,-2.3792,-2.3649,-2.3478,-2.3265,-2.3045,-2.297,-2.291,-2.2885,-2.2851,-2.2808,-2.2756,-2.2699,-2.2646,-2.2587,-2.2538,-2.2474,-2.2427,-2.2377,-2.233,-2.2282,-2.2282,-2.2268,-2.2194,-2.2112,-2.2044,-2.1963,-2.1832,-2.1706,-2.1549,-2.1419,-2.1247,-2.1127,-2.1079,-2.0908,-2.071,-2.0585,-2.045,-2.0314,-2.0183,-1.9909,-1.9585,-1.9332,-1.9131,-1.9094,-1.9007,-1.8858,-1.8685,-1.851,-1.8262,-1.8003,-1.7801,-1.7618,-3.0629,-3.0608,-3.0549,-3.0535,-3.054,-3.0515,-3.0209,-2.9754,-2.9372,-2.8634,-2.7752,-2.701,-2.6346,-2.5885,-2.5409,-2.5307,-2.5297,-2.5297,-2.5273,-2.5252,-2.5247,-2.5241,-2.5221,-2.521,-2.5209,-2.5204,-2.5202,-2.5206,-2.5206,-2.5208,-2.5208,-2.5214,-2.5199,-2.5208,-2.5189,-2.5152,-2.5131,-2.5091,-2.5051,-2.5031,-2.5002,-2.4965,-2.4912,-2.4837,-2.4834,-2.4809,-2.4766,-2.4754,-2.4704,-2.4649,-2.4615,-2.4599,-2.4565,-2.449,-2.4348,-2.4144,-2.4228,-2.4219,-2.4182,-2.4171,-2.4064,-2.3944,-2.3812,-2.3712,-2.3522,-2.3383,-2.3217,-2.3033,-2.2859,-2.2795,-2.2777,-2.2725,-2.2681,-2.2641,-2.2614,-2.2574,-2.252,-2.2457,-2.2402,-2.2369,-2.2321,-2.2265,-2.2245,-2.2237,-2.2223,-2.2166,-2.2083,-2.2015,-2.1913,-2.1774,-2.1639,-2.1495,-2.1349,-2.1207,-2.1119,-2.1038,-2.0819,-2.0636,-2.0533,-2.0381,-2.0216,-2.0031,-1.981,-1.9487,-1.915,-1.8993,-1.8955,-1.8867,-1.8748,-1.8588,-1.84,-1.8136,-1.7875,-1.7645,-1.7418,-2.9939,-2.9959,-3.0347,-3.038,-3.0186,-3.018,-2.9668,-2.8913,-2.8576,-2.7796,-2.6837,-2.6356,-2.586,-2.5432,-2.5312,-2.5292,-2.5272,-2.5262,-2.5247,-2.5221,-2.521,-2.5215,-2.5213,-2.5206,-2.5206,-2.5201,-2.5208,-2.5191,-2.517,-2.5182,-2.5178,-2.5195,-2.516,-2.5174,-2.5162,-2.5128,-2.5088,-2.507,-2.5009,-2.4979,-2.4961,-2.491,-2.4849,-2.4798,-2.477,-2.4742,-2.4686,-2.4681,-2.4641,-2.4574,-2.4549,-2.4541,-2.4541,-2.442,-2.4247,-2.4094,-2.4122,-2.4114,-2.4066,-2.4016,-2.3937,-2.3843,-2.3723,-2.3578,-2.3316,-2.3265,-2.3184,-2.2952,-2.2764,-2.2685,-2.2659,-2.2627,-2.2587,-2.256,-2.2533,-2.2501,-2.2468,-2.2369,-2.2274,-2.2217,-2.2183,-2.2186,-2.2172,-2.2192,-2.2163,-2.2115,-2.2055,-2.1986,-2.184,-2.1678,-2.1541,-2.1387,-2.1309,-2.1167,-2.103,-2.0925,-2.0729,-2.057,-2.0458,-2.0302,-2.0121,-1.998,-1.982,-1.9453,-1.9037,-1.8874,-1.8824,-1.876,-1.8657,-1.8438,-1.8235,-1.8022,-1.7788,-1.7515,-1.7238,-2.8135,-2.8213,-2.9801,-2.9973,-2.9291,-2.929,-2.8792,-2.7939,-2.7193,-2.6813,-2.6404,-2.5832,-2.5456,-2.5316,-2.5292,-2.5272,-2.5212,-2.5217,-2.521,-2.5213,-2.5212,-2.521,-2.5199,-2.5203,-2.5191,-2.5191,-2.5189,-2.5146,-2.5109,-2.5119,-2.5143,-2.517,-2.5134,-2.5122,-2.511,-2.5092,-2.5035,-2.5009,-2.4946,-2.4915,-2.4887,-2.4842,-2.4774,-2.4721,-2.4707,-2.4676,-2.4606,-2.4607,-2.4575,-2.4507,-2.4472,-2.4464,-2.4438,-2.4321,-2.4152,-2.4015,-2.3995,-2.3967,-2.3886,-2.3867,-2.3836,-2.3751,-2.3607,-2.3407,-2.3184,-2.3232,-2.3114,-2.285,-2.2659,-2.2569,-2.2569,-2.2547,-2.2487,-2.2415,-2.2379,-2.2352,-2.2282,-2.222,-2.2132,-2.2058,-2.2044,-2.2075,-2.2046,-2.2052,-2.2052,-2.2009,-2.1968,-2.1884,-2.1685,-2.1519,-2.1402,-2.1285,-2.123,-2.1119,-2.0934,-2.0803,-2.0678,-2.0527,-2.0365,-2.02,-2.0,-1.9876,-1.9777,-1.9424,-1.9026,-1.887,-1.8704,-1.8593,-1.845,-1.8241,-1.8049,-1.7862,-1.755,-1.7205,-1.7009,-2.7923,-2.7967,-2.8642,-2.8709,-2.8409,-2.8407,-2.7891,-2.714,-2.6736,-2.6274,-2.5797,-2.5456,-2.5273,-2.5242,-2.5241,-2.5231,-2.5209,-2.5209,-2.5212,-2.5205,-2.5203,-2.5207,-2.5185,-2.5152,-2.5131,-2.5125,-2.5138,-2.5129,-2.5092,-2.5092,-2.5107,-2.5123,-2.5101,-2.5101,-2.5089,-2.5054,-2.5005,-2.4949,-2.4915,-2.4889,-2.4832,-2.4785,-2.4723,-2.4695,-2.4654,-2.4615,-2.455,-2.4541,-2.4472,-2.4393,-2.4348,-2.433,-2.4312,-2.419,-2.4026,-2.3875,-2.3875,-2.3824,-2.3761,-2.3742,-2.3751,-2.3582,-2.3409,-2.3217,-2.3074,-2.3086,-2.2952,-2.2756,-2.2579,-2.2474,-2.2422,-2.2386,-2.2349,-2.2254,-2.2195,-2.2158,-2.211,-2.2032,-2.2003,-2.1943,-2.1963,-2.1998,-2.1949,-2.1905,-2.1897,-2.1897,-2.1855,-2.1768,-2.1565,-2.1388,-2.1294,-2.1167,-2.1119,-2.1022,-2.086,-2.0745,-2.066,-2.0475,-2.0272,-2.008,-1.9887,-1.9797,-1.9654,-1.9325,-1.9014,-1.8767,-1.8581,-1.8406,-1.8248,-1.8096,-1.7916,-1.7733,-1.7371,-1.6941,-1.6742,-2.7147,-2.7127,-2.7127,-2.7291,-2.7488,-2.7511,-2.7005,-2.6298,-2.6197,-2.5898,-2.5301,-2.5272,-2.5241,-2.5206,-2.521,-2.5204,-2.5206,-2.5205,-2.5187,-2.518,-2.5168,-2.5177,-2.516,-2.5132,-2.5088,-2.5088,-2.5085,-2.5082,-2.5054,-2.5079,-2.506,-2.5044,-2.5053,-2.5034,-2.5038,-2.4999,-2.4952,-2.4894,-2.4851,-2.4822,-2.4755,-2.4709,-2.4646,-2.4624,-2.4582,-2.4524,-2.4446,-2.4402,-2.4376,-2.4275,-2.421,-2.4162,-2.4113,-2.4044,-2.3895,-2.3801,-2.3738,-2.3736,-2.3671,-2.3649,-2.3607,-2.3386,-2.3244,-2.3098,-2.302,-2.2944,-2.2859,-2.2672,-2.2484,-2.2341,-2.2268,-2.2265,-2.2169,-2.2073,-2.2023,-2.1972,-2.1915,-2.185,-2.1842,-2.1834,-2.184,-2.184,-2.1811,-2.1744,-2.1744,-2.1736,-2.17,-2.161,-2.1457,-2.1294,-2.1191,-2.1087,-2.0982,-2.0884,-2.0786,-2.0627,-2.0483,-2.0348,-2.015,-1.9957,-1.978,-1.9682,-1.9519,-1.9213,-1.892,-1.8644,-1.8438,-1.8261,-1.8089,-1.7942,-1.7733,-1.7481,-1.7212,-1.6806,-1.6528,-2.5495,-2.5351,-2.5428,-2.5909,-2.6592,-2.663,-2.6144,-2.5524,-2.5432,-2.5394,-2.5276,-2.5222,-2.5205,-2.5208,-2.5202,-2.5195,-2.5191,-2.5185,-2.5158,-2.5138,-2.5116,-2.5114,-2.5111,-2.5092,-2.5076,-2.5082,-2.5063,-2.5034,-2.4999,-2.4992,-2.4956,-2.4931,-2.4931,-2.4945,-2.4989,-2.4935,-2.487,-2.4803,-2.4753,-2.4723,-2.4676,-2.463,-2.4574,-2.4524,-2.4481,-2.4402,-2.4339,-2.4275,-2.4238,-2.4181,-2.4095,-2.4045,-2.4002,-2.3894,-2.3782,-2.3694,-2.3691,-2.3634,-2.3508,-2.3517,-2.3392,-2.3196,-2.3086,-2.2995,-2.2881,-2.2829,-2.2777,-2.256,-2.2293,-2.2175,-2.2155,-2.2118,-2.2001,-2.1899,-2.1848,-2.1812,-2.1746,-2.1701,-2.1708,-2.1731,-2.1672,-2.162,-2.1612,-2.1588,-2.1588,-2.1573,-2.1527,-2.145,-2.1325,-2.1175,-2.1063,-2.0974,-2.0868,-2.0736,-2.0627,-2.0458,-2.0304,-2.0193,-2.002,-1.9815,-1.9654,-1.9552,-1.935,-1.909,-1.8767,-1.8425,-1.8241,-1.8075,-1.7889,-1.7672,-1.7419,-1.7191,-1.6918,-1.6669,-1.6383,-2.5327,-2.5298,-2.5298,-2.5462,-2.5731,-2.5731,-2.5548,-2.5316,-2.5253,-2.5232,-2.523,-2.5209,-2.5212,-2.5214,-2.5203,-2.5166,-2.5137,-2.5144,-2.5116,-2.5101,-2.5085,-2.5089,-2.507,-2.505,-2.5047,-2.5018,-2.4988,-2.4926,-2.4861,-2.4875,-2.4868,-2.4832,-2.4832,-2.4844,-2.4847,-2.4832,-2.4794,-2.4746,-2.4717,-2.4668,-2.4579,-2.454,-2.4499,-2.443,-2.4348,-2.4275,-2.4228,-2.4162,-2.4104,-2.4055,-2.3967,-2.3895,-2.3861,-2.3773,-2.3684,-2.3603,-2.3564,-2.3444,-2.3301,-2.3229,-2.3208,-2.3086,-2.2974,-2.2868,-2.2751,-2.2751,-2.2627,-2.2432,-2.2152,-2.2032,-2.1943,-2.1922,-2.1834,-2.1731,-2.1679,-2.1679,-2.1642,-2.1619,-2.1619,-2.1642,-2.1613,-2.152,-2.1472,-2.1427,-2.1411,-2.1372,-2.1341,-2.1317,-2.1223,-2.1038,-2.0892,-2.0851,-2.0761,-2.061,-2.0458,-2.0304,-2.0106,-1.9957,-1.9826,-1.9664,-1.9527,-1.9413,-1.9209,-1.8939,-1.8562,-1.8202,-1.8049,-1.7875,-1.7598,-1.7357,-1.7149,-1.6954,-1.6727,-1.6497,-1.6222,-2.5298,-2.5298,-2.5298,-2.5298,-2.5298,-2.5302,-2.5302,-2.5267,-2.5221,-2.5209,-2.5208,-2.5201,-2.5178,-2.5174,-2.5168,-2.516,-2.5095,-2.5098,-2.5085,-2.507,-2.506,-2.5037,-2.5008,-2.4969,-2.4929,-2.4908,-2.4887,-2.4832,-2.4815,-2.4807,-2.4793,-2.4763,-2.4742,-2.4734,-2.4738,-2.4738,-2.4732,-2.4678,-2.4629,-2.459,-2.4514,-2.4437,-2.4376,-2.4303,-2.4229,-2.4153,-2.4095,-2.4046,-2.3967,-2.3907,-2.3825,-2.3751,-2.3718,-2.3684,-2.3603,-2.3519,-2.3372,-2.3259,-2.3151,-2.3011,-2.2986,-2.2927,-2.282,-2.2751,-2.2672,-2.2646,-2.252,-2.2313,-2.2046,-2.1907,-2.1804,-2.1774,-2.1663,-2.1566,-2.1504,-2.1504,-2.1435,-2.1411,-2.1411,-2.1443,-2.1443,-2.1372,-2.1341,-2.1286,-2.1239,-2.1191,-2.1135,-2.1111,-2.1079,-2.0933,-2.0753,-2.0686,-2.0611,-2.0467,-2.0321,-2.0148,-1.9947,-1.9718,-1.9592,-1.9483,-1.9354,-1.9232,-1.9014,-1.8812,-1.8471,-1.8143,-1.7889,-1.7659,-1.7371,-1.7122,-1.6911,-1.672,-1.6528,-1.6297,-1.6069,-2.5303,-2.5298,-2.5297,-2.5301,-2.5301,-2.5287,-2.5262,-2.5206,-2.5213,-2.5206,-2.5187,-2.5197,-2.5168,-2.5103,-2.5107,-2.5107,-2.5101,-2.5076,-2.5025,-2.4989,-2.4975,-2.4945,-2.491,-2.4865,-2.4834,-2.4803,-2.4789,-2.4778,-2.48,-2.4742,-2.4711,-2.4671,-2.4615,-2.4616,-2.4624,-2.4615,-2.4624,-2.4581,-2.4541,-2.4499,-2.4411,-2.4303,-2.4247,-2.4181,-2.4113,-2.4055,-2.3986,-2.3895,-2.3834,-2.3771,-2.3725,-2.3656,-2.362,-2.3589,-2.3519,-2.3372,-2.3175,-2.3102,-2.3015,-2.2872,-2.2782,-2.2742,-2.2694,-2.2641,-2.2592,-2.252,-2.2419,-2.2172,-2.1903,-2.1821,-2.1738,-2.1625,-2.1511,-2.1419,-2.1325,-2.1254,-2.1175,-2.1151,-2.1151,-2.1167,-2.1167,-2.1143,-2.1167,-2.1127,-2.1046,-2.1014,-2.0933,-2.0835,-2.0811,-2.0812,-2.0655,-2.0526,-2.0441,-2.0331,-2.0158,-1.9965,-1.9744,-1.9519,-1.9391,-1.9288,-1.9176,-1.9056,-1.8874,-1.8659,-1.8373,-1.8056,-1.7679,-1.7385,-1.7136,-1.6905,-1.6678,-1.6556,-1.6411,-1.616,-1.5925,-2.5302,-2.5297,-2.5238,-2.5237,-2.5232,-2.5235,-2.5215,-2.5208,-2.5205,-2.5182,-2.5118,-2.5125,-2.5116,-2.5085,-2.5085,-2.5057,-2.504,-2.5004,-2.4938,-2.4901,-2.4873,-2.4849,-2.482,-2.48,-2.478,-2.474,-2.4717,-2.4686,-2.4655,-2.4622,-2.4579,-2.4546,-2.4489,-2.4482,-2.4456,-2.4447,-2.4464,-2.4472,-2.4438,-2.4376,-2.4303,-2.42,-2.4133,-2.4055,-2.3966,-2.3905,-2.3845,-2.3779,-2.3714,-2.3647,-2.3589,-2.3519,-2.3473,-2.3407,-2.3313,-2.3074,-2.2974,-2.2923,-2.2812,-2.2764,-2.2681,-2.256,-2.2487,-2.2427,-2.2405,-2.2374,-2.2299,-2.202,-2.1754,-2.1641,-2.1556,-2.1449,-2.1348,-2.1254,-2.1183,-2.1119,-2.1046,-2.1022,-2.1022,-2.0973,-2.0973,-2.0981,-2.0989,-2.0924,-2.0851,-2.0819,-2.0753,-2.0636,-2.0578,-2.0597,-2.0531,-2.0392,-2.025,-2.0129,-1.9957,-1.9754,-1.9537,-1.9317,-1.9206,-1.9101,-1.8962,-1.8829,-1.8721,-1.8477,-1.8109,-1.7747,-1.7392,-1.7136,-1.6905,-1.6671,-1.6442,-1.6368,-1.6244,-1.6013,-1.5786,-2.5271,-2.5247,-2.5225,-2.5209,-2.5198,-2.5184,-2.5163,-2.5157,-2.5174,-2.514,-2.5097,-2.5095,-2.5079,-2.5063,-2.506,-2.5027,-2.4945,-2.4917,-2.4882,-2.4832,-2.4768,-2.478,-2.4774,-2.4726,-2.4678,-2.4646,-2.4614,-2.4572,-2.4523,-2.4454,-2.4418,-2.4409,-2.4366,-2.4348,-2.4321,-2.4303,-2.4284,-2.4303,-2.4294,-2.4238,-2.4162,-2.4084,-2.3986,-2.3926,-2.3804,-2.3771,-2.3739,-2.368,-2.36,-2.3542,-2.3482,-2.3372,-2.3289,-2.3184,-2.3061,-2.2872,-2.2829,-2.2782,-2.2729,-2.2646,-2.2547,-2.2446,-2.233,-2.2237,-2.2178,-2.2147,-2.2038,-2.1863,-2.1641,-2.145,-2.1371,-2.1293,-2.1183,-2.1095,-2.1055,-2.1006,-2.0981,-2.094,-2.09,-2.0843,-2.0826,-2.0834,-2.0801,-2.0728,-2.067,-2.0645,-2.0603,-2.0526,-2.0458,-2.0443,-2.0368,-2.0239,-2.0076,-1.9929,-1.9756,-1.9556,-1.9336,-1.915,-1.9037,-1.8912,-1.8772,-1.8657,-1.856,-1.8208,-1.7781,-1.7468,-1.7199,-1.6926,-1.6693,-1.6457,-1.6247,-1.61,-1.6019,-1.5887,-1.5659,-2.5212,-2.5206,-2.5208,-2.5189,-2.518,-2.5134,-2.5107,-2.5091,-2.5095,-2.5085,-2.5088,-2.5082,-2.5041,-2.5008,-2.4972,-2.495,-2.4873,-2.482,-2.48,-2.4783,-2.47,-2.4678,-2.4655,-2.4624,-2.4556,-2.4522,-2.4479,-2.4445,-2.4393,-2.4339,-2.4303,-2.4275,-2.4266,-2.4238,-2.4191,-2.4181,-2.4143,-2.4085,-2.4105,-2.4094,-2.4017,-2.3917,-2.3804,-2.3792,-2.3736,-2.3687,-2.3645,-2.3567,-2.3464,-2.3427,-2.3357,-2.322,-2.3098,-2.2961,-2.282,-2.2738,-2.2694,-2.2663,-2.261,-2.2547,-2.2419,-2.2344,-2.2268,-2.21,-2.2003,-2.203,-2.1957,-2.1693,-2.145,-2.1317,-2.123,-2.1143,-2.1063,-2.0974,-2.0917,-2.0835,-2.076,-2.0735,-2.0718,-2.0669,-2.0669,-2.0661,-2.0636,-2.057,-2.0527,-2.0484,-2.0409,-2.0356,-2.0304,-2.0287,-2.0143,-2.0048,-1.993,-1.9771,-1.9549,-1.9362,-1.9157,-1.8988,-1.8874,-1.8709,-1.8542,-1.845,-1.8397,-1.7922,-1.7427,-1.7282,-1.7031,-1.6772,-1.6537,-1.6349,-1.6138,-1.5881,-1.5754,-1.5665,-1.5519,-2.5204,-2.5198,-2.5155,-2.5134,-2.5119,-2.5107,-2.5089,-2.5089,-2.5037,-2.5037,-2.5025,-2.5024,-2.4991,-2.4929,-2.4861,-2.4829,-2.477,-2.4738,-2.4692,-2.4646,-2.4588,-2.4554,-2.453,-2.4481,-2.4428,-2.4402,-2.4375,-2.4312,-2.4248,-2.4228,-2.4199,-2.4143,-2.4124,-2.4085,-2.4066,-2.4045,-2.3996,-2.3896,-2.3905,-2.3925,-2.3865,-2.3836,-2.3783,-2.3714,-2.3652,-2.3555,-2.3499,-2.3418,-2.3292,-2.3196,-2.318,-2.3082,-2.2948,-2.2808,-2.2685,-2.2587,-2.2542,-2.2525,-2.2462,-2.2396,-2.2279,-2.2126,-2.2032,-2.1907,-2.1869,-2.1949,-2.1846,-2.1526,-2.1302,-2.1199,-2.1111,-2.1023,-2.0926,-2.0844,-2.077,-2.0662,-2.0561,-2.0552,-2.0535,-2.0518,-2.0501,-2.0477,-2.046,-2.0433,-2.0407,-2.0331,-2.0237,-2.015,-2.0088,-2.0043,-1.9843,-1.9764,-1.9764,-1.9617,-1.9398,-1.9146,-1.8939,-1.8774,-1.8639,-1.8471,-1.8301,-1.8122,-1.7949,-1.7475,-1.7073,-1.6968,-1.6842,-1.6644,-1.6414,-1.6197,-1.5963,-1.5681,-1.5458,-1.5323,-1.5244,-2.5174,-2.5145,-2.5122,-2.5088,-2.5085,-2.5057,-2.5056,-2.5031,-2.4957,-2.491,-2.4908,-2.492,-2.488,-2.4834,-2.4783,-2.4747,-2.4695,-2.4637,-2.4596,-2.4539,-2.4489,-2.4445,-2.4402,-2.4339,-2.4321,-2.4294,-2.4201,-2.4134,-2.4106,-2.4096,-2.4075,-2.4045,-2.4006,-2.3957,-2.3926,-2.3907,-2.3865,-2.3751,-2.3759,-2.3747,-2.3736,-2.3714,-2.3673,-2.3598,-2.3519,-2.3441,-2.336,-2.3289,-2.3184,-2.3052,-2.2999,-2.2961,-2.2846,-2.2716,-2.2503,-2.2379,-2.2355,-2.2399,-2.2327,-2.222,-2.2092,-2.1936,-2.184,-2.1744,-2.1587,-2.1654,-2.1685,-2.1388,-2.1095,-2.0974,-2.0949,-2.0885,-2.0762,-2.0663,-2.0628,-2.0569,-2.0492,-2.0441,-2.0424,-2.0407,-2.0365,-2.0256,-2.0247,-2.021,-2.0183,-2.0166,-2.0071,-2.0045,-1.9973,-1.9787,-1.9599,-1.9446,-1.9464,-1.942,-1.9225,-1.8976,-1.8736,-1.8569,-1.842,-1.8321,-1.8176,-1.7808,-1.7454,-1.7101,-1.6848,-1.6735,-1.6586,-1.6414,-1.6219,-1.5985,-1.5742,-1.548,-1.5255,-1.5023,-1.4863,-2.5156,-2.5101,-2.5082,-2.5089,-2.5076,-2.4998,-2.4973,-2.495,-2.4853,-2.4783,-2.4772,-2.4768,-2.4761,-2.4764,-2.4718,-2.4698,-2.465,-2.4557,-2.4507,-2.4446,-2.4403,-2.4358,-2.4284,-2.4219,-2.42,-2.4161,-2.4084,-2.4036,-2.3997,-2.3977,-2.3976,-2.3976,-2.3945,-2.3905,-2.3834,-2.3783,-2.3741,-2.3694,-2.3669,-2.3643,-2.3618,-2.3594,-2.3551,-2.3485,-2.3404,-2.3345,-2.3253,-2.316,-2.3086,-2.2961,-2.282,-2.2777,-2.2712,-2.2592,-2.2326,-2.2181,-2.2169,-2.2214,-2.22,-2.204,-2.1886,-2.173,-2.1678,-2.1572,-2.1419,-2.1356,-2.1388,-2.1238,-2.0949,-2.0794,-2.0778,-2.0745,-2.062,-2.052,-2.0484,-2.0441,-2.0373,-2.0312,-2.0295,-2.0277,-2.021,-2.01,-2.0055,-2.0,-1.999,-1.998,-1.9962,-1.9962,-1.9884,-1.9592,-1.9347,-1.9187,-1.9101,-1.9045,-1.8969,-1.8817,-1.8569,-1.8359,-1.8228,-1.8169,-1.8029,-1.7679,-1.7288,-1.6848,-1.6635,-1.6522,-1.6349,-1.6154,-1.5963,-1.577,-1.5541,-1.5272,-1.5,-1.4771,-1.45,-2.512,-2.5082,-2.505,-2.5023,-2.4991,-2.4906,-2.4837,-2.4826,-2.4746,-2.4707,-2.4689,-2.4604,-2.4604,-2.4707,-2.4588,-2.4548,-2.4534,-2.4456,-2.4403,-2.4349,-2.4284,-2.4237,-2.419,-2.4105,-2.4055,-2.4024,-2.4004,-2.3976,-2.3895,-2.3875,-2.3852,-2.3848,-2.3797,-2.3756,-2.3725,-2.3703,-2.368,-2.3632,-2.3587,-2.3562,-2.3485,-2.3471,-2.3482,-2.3401,-2.3262,-2.3184,-2.3089,-2.2999,-2.2893,-2.2773,-2.2641,-2.2609,-2.2533,-2.2438,-2.2189,-2.2015,-2.2003,-2.2003,-2.1959,-2.1827,-2.1654,-2.1464,-2.1411,-2.1379,-2.1246,-2.1135,-2.1119,-2.1055,-2.081,-2.0636,-2.0595,-2.0586,-2.0501,-2.0382,-2.0312,-2.0245,-2.0185,-2.0148,-2.0121,-2.0103,-2.0061,-2.0,-1.994,-1.9894,-1.9848,-1.983,-1.9769,-1.9769,-1.9726,-1.9428,-1.9117,-1.8943,-1.8774,-1.8685,-1.8627,-1.8613,-1.8425,-1.8202,-1.7996,-1.7895,-1.7754,-1.757,-1.7178,-1.6656,-1.6442,-1.6328,-1.6138,-1.5925,-1.5697,-1.5497,-1.5311,-1.5062,-1.4794,-1.4494,-1.4215]},{"header":{"parameterUnit":"m.s-1","parameterCategory":1,"la1":31.0,"la2":29.5877,"lo1":-88.7671,"lo2":-86.6584,"dy":0.0162,"dx":0.0185,"nx":115,"ny":88,"refTime":"2024-06-29T18:00:00:Z","depth":0,"parameterNumber":3,"parameterNumberName":"V-component_of_WINDS"},"data":[0.0,0.0,0.0,0.0,0.0,0.0,0.0,0.0,0.0,0.0,0.0,0.0,0.0,0.0,0.0,0.0,0.0,0.0,0.0,0.0,0.0,0.0,0.0,0.0,0.0,0.0,0.0,0.0,0.0,0.0,0.0,0.0,0.0,0.0,0.0,0.0,0.0,0.0,0.0,0.0,0.0,0.0,0.0,0.0,0.0,0.0,0.0,0.0,0.0,0.0,0.0,0.0,0.0,0.0,0.0,0.0,0.0,0.0,0.0,0.0,0.0,0.0,0.0,0.0,0.0,0.0,0.0,0.0,0.0,0.0,0.0,0.0,0.0,0.0,0.0,0.0,0.0,0.0,0.0,0.0,0.0,0.0,0.0,0.0,0.0,0.0,0.0,0.0,0.0,0.0,0.0,0.0,0.0,0.0,0.0,0.0,0.0,0.0,0.0,0.0,0.0,0.0,0.0,0.0,0.0,0.0,0.0,0.0,0.0,0.0,0.0,0.0,0.0,0.0,0.0,0.0,0.0,0.0,0.0,0.0,0.0,0.0,0.0,0.0,0.0,0.0,0.0,0.0,0.0,0.0,0.0,0.0,0.0,0.0,0.0,0.0,0.0,0.0,0.0,0.0,0.0,0.0,0.0,0.0,0.0,0.0,0.0,0.0,0.0,0.0,0.0,0.0,0.0,0.0,0.0,0.0,0.0,0.0,0.0,0.0,0.0,0.0,0.0,0.0,0.0,0.0,0.0,0.0,0.0,0.0,0.0,0.0,0.0,0.0,0.0,0.0,0.0,0.0,0.0,0.0,0.0,0.0,0.0,0.0,0.0,0.0,0.0,0.0,0.0,0.0,0.0,0.0,0.0,0.0,0.0,0.0,0.0,0.0,0.0,0.0,0.0,0.0,0.0,0.0,0.0,0.0,0.0,0.0,0.0,0.0,0.0,0.0,0.0,0.0,0.0,0.0,0.0,0.0,0.0,0.0,0.0,0.0,0.0,0.0,0.0,0.0,0.0,0.0,0.0,0.0,0.0,0.0,0.0,0.0,0.0,0.0,0.0,0.0,0.0,0.0,0.0,0.0,0.0,0.0,0.0,0.0,0.0,0.0,0.0,0.0,0.0,0.0,0.0,0.0,0.0,0.0,0.0,0.0,0.0,0.0,0.0,0.0,0.0,0.0,0.0,0.0,0.0,0.0,0.0,0.0,0.0,0.0,0.0,0.0,0.0,0.0,0.0,0.0,0.0,0.0,0.0,0.0,0.0,0.0,0.0,0.0,0.0,0.0,0.0,0.0,0.0,0.0,0.0,0.0,0.0,0.0,0.0,0.0,0.0,0.0,0.0,0.0,0.0,0.0,0.0,0.0,0.0,0.0,0.0,0.0,0.0,0.0,0.0,0.0,0.0,0.0,0.0,0.0,0.0,0.0,0.0,0.0,0.0,0.0,0.0,0.0,0.0,0.0,0.0,0.0,0.0,0.0,0.0,0.0,0.0,0.0,0.0,0.0,0.0,0.0,0.0,0.0,0.0,0.0,0.0,0.0,0.0,0.0,0.0,0.0,0.0,0.0,0.0,0.0,0.0,0.0,0.0,0.0,0.0,0.0,0.0,0.0,0.0,0.0,0.0,0.0,0.0,0.0,0.0,0.0,0.0,0.0,0.0,0.0,0.0,0.0,0.0,0.0,0.0,0.0,0.0,0.0,0.0,0.0,0.0,0.0,0.0,0.0,0.0,0.0,0.0,0.0,0.0,0.0,0.0,0.0,0.0,0.0,0.0,0.0,0.0,0.0,0.0,0.0,0.0,0.0,0.0,0.0,0.0,0.0,0.0,0.0,0.0,0.0,0.0,0.0,0.0,0.0,0.0,0.0,0.0,0.0,0.0,0.0,0.0,0.0,0.0,0.0,0.0,0.0,0.0,0.0,0.0,0.0,0.0,0.0,0.0,0.0,0.0,0.0,0.0,0.0,0.0,0.0,0.0,0.0,0.0,0.0,0.0,0.0,0.0,0.0,0.0,0.0,0.0,0.0,0.0,0.0,0.0,0.0,0.0,0.0,0.0,0.0,0.0,0.0,0.0,0.0,0.0,0.0,0.0,0.0,0.0,0.0,0.0,0.0,0.0,0.0,0.0,0.0,0.0,0.0,0.0,0.0,0.0,0.0,0.0,0.0,0.0,0.0,0.0,0.0,0.0,0.0,0.0,0.0,0.0,0.0,0.0,0.0,0.0,0.0,0.0,0.0,0.0,0.0,0.0,0.0,0.0,0.0,0.0,0.0,0.0,0.0,0.0,0.0,0.0,0.0,0.0,0.0,0.0,0.0,0.0,0.0,0.0,0.0,0.0,0.0,0.0,0.0,0.0,0.0,0.0,0.0,0.0,0.0,0.0,0.0,0.0,0.0,0.0,0.0,0.0,0.0,0.0,0.0,0.0,0.0,0.0,0.0,0.0,0.0,0.0,0.0,0.0,0.0,0.0,0.0,0.0,0.0,0.0,0.0,0.0,0.0,0.0,0.0,0.0,0.0,0.0,0.0,0.0,0.0,0.0,0.0,0.0,0.0,0.0,0.0,0.0,0.0,0.0,0.0,0.0,0.0,0.0,0.0,0.0,0.0,0.0,0.0,0.0,0.0,0.0,0.0,0.0,0.0,0.0,0.0,0.0,0.0,0.0,0.0,0.0,0.0,0.0,0.0,0.0,0.0,0.0,0.0,0.0,0.0,0.0,0.0,0.0,0.0,0.0,0.0,0.0,0.0,0.0,0.0,0.0,0.0,0.0,0.0,0.0,0.0,0.0,0.0,0.0,0.0,0.0,0.0,0.0,0.0,0.0,0.0,0.0,0.0,0.0,0.0,0.0,0.0,0.0,0.0,0.0,0.0,0.0,0.0,0.0,0.0,0.0,0.0,0.0,0.0,0.0,0.0,0.0,0.0,0.0,0.0,0.0,0.0,0.0,0.0,0.0,0.0,0.0,0.0,0.0,0.0,0.0,0.0,0.0,0.0,0.0,0.0,0.0,0.0,0.0,0.0,0.0,0.0,0.0,0.0,0.0,0.0,0.0,0.0,0.0,0.0,0.0,0.0,0.0,0.0,0.0,0.0,0.0,0.0,0.0,0.0,0.0,0.0,0.0,0.0,0.0,0.0,0.0,0.0,0.0,0.0,0.0,0.0,0.0,0.0,0.0,0.0,0.0,0.0,0.0,0.0,0.0,0.0,0.0,0.0,0.0,0.0,0.0,0.0,0.0,0.0,0.0,0.0,0.0,0.0,0.0,0.0,0.0,0.0,0.0,0.0,0.0,0.0,0.0,0.0,0.0,0.0,0.0,0.0,0.0,0.0,0.0,0.0,0.0,0.0,0.0,0.0,0.0,0.0,0.0,0.0,0.0,0.0,0.0,0.0,0.0,0.0,0.0,0.0,0.0,0.0,0.0,0.0,0.0,0.0,0.0,0.0,0.0,0.0,0.0,0.0,0.0,0.0,0.0,0.0,0.0,0.0,0.0,0.0,0.0,0.0,0.0,0.0,0.0,0.0,0.0,0.0,0.0,0.0,0.0,0.0,0.0,0.0,0.0,0.0,0.0,0.0,0.0,0.0,0.0,0.0,0.0,0.0,0.0,0.0,0.0,0.0,0.0,0.0,0.0,0.0,0.0,0.0,0.0,0.0,0.0,0.0,0.0,0.0,0.0,0.0,0.0,0.0,0.0,0.0,0.0,0.0,0.0,0.0,0.0,0.0,0.0,0.0,0.0,0.0,0.0,0.0,0.0,0.0,0.0,0.0,0.0,0.0,0.0,0.0,0.0,0.0,0.0,0.0,0.0,0.0,0.0,0.0,0.0,0.0,0.0,0.0,0.0,0.0,0.0,0.0,0.0,0.0,0.0,0.0,0.0,0.0,0.0,0.0,0.0,0.0,0.0,0.0,0.0,0.0,0.0,0.0,0.0,0.0,0.0,0.0,0.0,0.0,0.0,0.0,0.0,0.0,0.0,0.0,0.0,0.0,0.0,0.0,0.0,0.0,0.0,0.0,0.0,0.0,0.0,0.0,0.0,0.0,0.0,0.0,0.0,0.0,0.0,0.0,0.0,0.0,0.0,0.0,0.0,0.0,0.0,0.0,0.0,0.0,0.0,0.0,0.0,0.0,0.0,0.0,0.0,0.0,0.0,0.0,0.0,0.0,0.0,0.0,0.0,0.0,0.0,0.0,0.0,0.0,0.0,0.0,0.0,0.0,0.0,0.0,0.0,0.0,0.0,0.0,0.0,0.0,0.0,0.0,0.0,0.0,0.5415,0.0,0.0,0.0,0.0,0.0,0.0,0.0,0.0,0.0,0.0,0.0,0.0,0.0,0.0,0.0,0.0,0.0,0.0,0.0,0.0,0.0,0.0,0.0,0.0,0.0,0.0,0.0,0.0,0.0,0.0,0.0,0.0,0.0,0.0,0.0,0.0,0.0,0.0,0.0,0.0,0.0,0.0,0.0,0.0,0.0,0.0,0.0,0.0,0.0,0.0,0.0,0.0,0.0,0.0,0.0,0.0,0.0,0.0,0.0,0.0,0.0,0.0,0.0,0.0,0.0,0.0,0.0,0.0,0.0,0.0,0.0,0.0,0.0,0.0,0.0,0.0,0.0,0.0,0.0,0.0,0.0,0.0,0.0,0.0,0.0,0.0,0.0,0.0,0.0,0.0,0.0,0.0,0.0,0.0,0.0,0.0,0.0,0.0,0.0,0.0,0.0,0.0,0.0,0.0,0.0,0.0,0.0,0.0,0.0,0.0,0.6004,0.6047,0.6335,0.6436,0.6322,0.0,0.0,0.0,0.0,0.0,0.0,0.0,0.0,0.0,0.0,0.0,0.0,0.0,0.0,0.0,0.0,0.0,0.0,0.0,0.0,0.0,0.0,0.0,0.0,0.0,0.0,0.0,0.0,0.0,0.0,0.0,0.0,0.0,0.0,0.0,0.0,0.0,0.0,0.0,0.0,0.0,0.0,0.0,0.0,0.0,0.0,0.0,0.0,0.0,0.0,0.0,0.0,0.0,0.0,0.0,0.0,0.0,0.0,0.0,0.0,0.0,0.0,0.0,0.0,0.0,0.0,0.0,0.0,0.0,0.0,0.0,0.0,0.0,0.0,0.0,0.0,0.0,0.0,0.0,0.0,0.0,0.0,0.0,0.0,0.0,0.0,0.0,0.0,0.0,0.0,0.0,0.0,0.0,0.0,0.0,0.0,0.0,0.0,0.0,0.0,0.0,0.0,0.0,0.0,0.0,0.0,0.0,0.0,0.0,0.0,0.0,0.0,0.6687,0.6974,0.7138,0.0,0.0,0.0,0.0,0.0,0.0,0.0,0.0,0.0,0.0,0.0,0.0,0.0,0.0,0.0,0.0,0.0,0.0,0.0,0.0,0.0,0.0,0.0,0.0,0.0,0.0,0.0,0.0,0.0,0.0,0.0,0.0,0.0,0.0,0.0,0.0,0.0,0.0,0.0,0.0,0.0,0.0,0.0,0.0,0.0,0.0,0.0,0.0,0.0,0.0,0.0,0.0,0.0,0.0,0.0,0.0,0.0,0.0,0.0,0.0,0.0,0.0,0.0,0.0,0.0,0.0,0.0,0.0,0.0,0.0,0.0,0.0,0.0,0.0,0.0,0.0,0.0,0.0,0.0,0.0,0.0,0.0,0.0,0.0,0.0,0.0,0.0,0.0,0.0,0.0,0.0,0.0,0.0,0.0,0.0,0.0,0.0,0.0,0.0,0.0,0.0,0.0,0.0,0.0,0.0,0.0,0.0,0.0,0.0,0.0,0.611,0.6304,0.6638,0.0,0.7252,0.0,0.0,0.0,0.0,0.0,0.0,0.0,0.0,0.0,0.0,0.0,0.0,0.0,0.0,0.0,0.0,0.0,0.0,0.0,0.0,0.0,0.0,0.0,0.0,0.0,0.0,0.0,0.0,0.0,0.0,0.0,0.0,0.0,0.0,0.0,0.0,0.0,0.0,0.0,0.0,0.0,0.0,0.0,0.0,0.0,0.0,0.0,0.0,0.0,0.0,0.0,0.0,0.0,0.0,0.0,0.0,0.0,0.0,0.0,0.0,0.0,0.0,0.0,0.0,0.0,0.0,0.0,0.0,0.0,0.0,0.0,0.0,0.0,0.0,0.0,0.0,0.0,0.0,0.0,0.0,0.0,0.0,0.0,0.0,0.0,0.0,0.0,0.0,0.0,0.0,0.0,0.0,0.0,0.0,0.0,0.0,0.0,0.0,0.0,0.0,0.0,0.0,0.0,0.0,0.0,0.0,0.0,0.0,0.0,0.0,0.0,0.628,0.6687,0.7016,0.0,0.0,0.0,0.0,0.0,0.0,0.0,0.0,0.0,0.0,0.0,0.0,0.0,0.0,0.0,0.0,0.0,0.0,0.0,0.0,0.0,0.0,0.0,0.0,0.0,0.0,0.0,0.0,0.0,0.0,0.0,0.0,0.0,0.0,0.0,0.0,0.0,0.0,0.0,0.0,0.0,0.0,0.0,0.0,0.0,0.0,0.0,0.0,0.0,0.0,0.0,0.0,0.0,0.0,0.0,0.0,0.0,0.0,0.0,0.0,0.0,0.0,0.0,0.0,0.0,0.0,0.0,0.0,0.0,0.0,0.0,0.0,0.0,0.0,0.0,0.0,0.0,0.0,0.0,0.0,0.0,0.0,0.0,0.0,0.0,0.0,0.0,0.0,0.0,0.0,0.0,0.0,0.0,0.0,0.0,0.0,0.0,0.0,0.0,0.0,0.0,0.0,0.0,0.0,0.0,0.0,0.0,0.0,0.0,0.0,0.5585,0.0,0.6348,0.675,0.7008,0.7169,0.0,0.0,0.0,0.0,0.0,0.0,0.0,0.0,0.0,0.0,0.0,0.0,0.0,0.0,0.0,0.0,0.0,0.0,0.0,0.0,0.0,0.0,0.0,0.0,0.0,0.0,0.0,0.0,0.0,0.0,0.0,0.0,0.0,0.0,0.0,0.0,0.0,0.0,0.0,0.0,0.0,0.0,0.0,0.0,0.0,0.0,0.0,0.0,0.0,0.0,0.0,0.0,0.0,0.0,0.0,0.0,0.0,0.0,0.0,0.0,0.0,0.0,0.0,0.0,0.0,0.0,0.0,0.0,0.0,0.0,0.0,0.0,0.0,0.0,0.0,0.0,0.0,0.0,0.0,0.0,0.0,0.0,0.0,0.0,0.0,0.0,0.0,0.0,0.0,0.0,0.0,0.0,0.0,0.0,0.0,0.0,0.0,0.0,0.0,0.0,0.0,0.0,0.0,0.0,0.0,0.0,0.0,0.0,0.0,0.5543,0.5965,0.6475,0.671,0.6891,0.0,0.0,0.0,0.0,0.0,0.0,0.0,0.0,0.0,0.0,0.0,0.0,0.0,0.0,0.0,0.0,0.0,0.0,0.0,0.0,0.0,0.0,0.0,0.0,0.0,0.0,0.0,0.0,0.0,0.0,0.0,0.0,0.0,0.0,0.0,0.0,0.0,0.0,0.0,0.0,0.0,0.0,0.0,0.0,0.0,0.0,0.0,0.0,0.0,0.0,0.0,0.0,0.0,0.0,0.0,0.0,0.0,0.0,0.0,0.0,0.0,0.0,0.0,0.0,0.0,0.0,0.0,0.0,0.0,0.0,0.0,0.0,0.0,0.0,0.0,0.0,0.0,0.0,0.0,0.0,0.0,0.0,0.0,0.0,0.0,0.0,0.0,0.0,0.0,0.0,0.0,0.0,0.0,0.0,0.0,0.0,0.0,0.0,0.0,0.0,0.0,0.0,0.0,0.0,0.0,0.0,0.0,0.0,0.0,0.521,0.5656,0.6045,0.6349,0.6604,0.6814,0.0,0.0,0.0,0.0,0.0,0.0,0.0,0.0,0.0,0.0,0.0,0.0,0.0,0.0,0.0,0.0,0.0,0.0,0.0,0.0,0.0,0.0,0.0,0.0,0.0,0.0,0.0,0.0,0.0,0.0,0.0,0.0,0.0,0.0,0.0,0.0,0.0,0.0,0.0,0.0,0.0,0.0,0.0,0.0,0.0,0.0,0.0,0.0,0.0,0.0,0.0,0.0,0.0,0.0,0.0,0.0,0.0,0.0,0.0,0.0,0.0,0.0,0.0,0.0,0.0,0.0,0.0,0.0,0.0,0.0,0.0,0.0,0.0,0.0,0.0,0.0,0.0,0.0,0.0,0.0,0.0,0.0,0.0,0.0,0.0,0.0,0.0,0.0,0.0,0.0,0.0,0.0,0.0,0.0,0.0,0.0,0.0,0.0,0.0,0.0,0.0,0.0,0.0,0.0,0.0,0.0,0.0,0.0,0.0,0.5282,0.0,0.6006,0.0,0.6471,0.6666,0.0,0.0,0.0,0.0,0.0,0.0,0.0,0.0,0.0,0.0,0.0,0.0,0.0,0.0,0.0,0.0,0.0,0.0,0.0,0.0,0.0,0.0,0.0,0.0,0.0,0.0,0.0,0.0,0.0,0.0,0.0,0.0,0.0,0.0,0.0,0.0,0.0,0.0,0.0,0.0,0.0,0.0,0.0,0.0,0.0,0.0,0.0,0.0,0.0,0.0,0.0,0.0,0.0,0.0,0.0,0.0,0.0,0.0,0.0,0.0,0.0,0.0,0.0,0.0,0.0,0.0,0.0,0.0,0.0,0.0,0.0,0.0,0.0,0.0,0.0,0.0,0.0,0.0,0.0,0.0,0.0,0.0,0.0,0.0,0.0,0.0,0.0,0.0,0.0,0.0,0.0,0.0,0.0,0.0,0.0,0.0,0.0,0.0,0.0,0.0,0.0,0.0,0.0,0.0,0.0,0.0,0.0,0.0,0.5009,0.5372,0.5607,0.5835,0.6092,0.6301,0.6496,0.0,0.0,0.0,0.0,0.0,0.0,0.0,0.0,0.0,0.0,0.0,0.0,0.0,0.0,0.0,0.0,0.0,0.0,0.0,0.0,0.0,0.0,0.0,0.0,0.0,0.0,0.0,0.0,0.0,0.0,0.0,0.0,0.0,0.0,0.0,0.0,0.0,0.0,0.0,0.0,0.0,0.0,0.0,0.0,0.0,0.0,0.0,0.0,0.0,0.0,0.0,0.0,0.0,0.0,0.0,0.0,0.0,0.0,0.0,0.0,0.0,0.0,0.0,0.0,0.0,0.0,0.0,0.0,0.0,0.0,0.0,0.0,0.0,0.0,0.0,0.0,0.0,0.0,0.0,0.0,0.0,0.0,0.0,0.0,0.0,0.0,0.0,0.0,0.0,0.0,0.0,0.0,0.0,0.0,0.0,0.0,0.0,0.0,0.0,0.0,0.0,0.0,0.0,0.0,0.0,0.0,0.0,0.0,0.0,0.5413,0.5589,0.5784,0.5957,0.6204,0.6374,0.0,0.0,0.0,0.0,0.0,0.0,0.0,0.0,0.0,0.0,0.0,0.0,0.0,0.0,0.0,0.0,0.0,0.0,0.0,0.0,0.0,0.0,0.0,0.0,0.0,0.0,0.0,0.0,0.0,0.0,0.0,0.0,0.0,0.0,0.0,0.0,0.0,0.0,0.0,0.0,0.0,0.0,0.0,0.0,0.0,0.0,0.0,0.0,0.0,0.0,0.0,0.0,0.0,0.0,0.0,0.0,0.0,0.0,0.0,0.0,0.0,0.0,0.0,0.0,0.0,0.0,0.0,0.0,0.0,0.0,0.0,0.0,0.0,0.0,0.0,0.0,0.0,0.0,0.0,0.0,0.0,0.0,0.0,0.0,0.0,0.0,0.0,0.0,0.0,0.0,0.0,0.0,0.0,0.0,0.0,0.0,0.0,0.0,0.0,0.0,0.0,0.0,0.0,0.0,0.0,0.0,0.0,0.0,0.0,0.5788,0.5836,0.5968,0.6124,0.6167,0.6337,0.6599,0.0,0.0,0.0,0.0,0.0,0.0,0.0,0.0,0.0,0.0,0.0,0.0,0.0,0.0,0.0,0.0,0.0,0.0,0.0,0.0,0.0,0.0,0.0,0.0,0.0,0.0,0.0,0.0,0.0,0.0,0.0,0.0,0.0,0.0,0.0,0.0,0.0,0.0,0.0,0.0,0.0,0.0,0.0,0.0,0.0,0.0,0.0,0.0,0.0,0.0,0.0,0.0,0.0,0.0,0.0,0.0,0.0,0.0,0.0,0.0,0.0,0.0,0.0,0.0,0.0,0.0,0.0,0.0,0.0,0.0,0.0,0.0,0.0,0.0,0.0,0.0,0.0,0.0,0.0,0.0,0.0,0.0,0.0,0.0,0.0,0.0,0.0,0.0,0.0,0.0,0.0,0.0,0.0,0.0,0.0,0.0,0.0,0.0,0.0,0.0,0.0,0.0,0.0,0.0,0.0,0.0,0.0,0.0,0.6421,0.6331,0.6345,0.6509,0.6246,0.6379,0.0,0.0,0.0,0.0,0.0,0.0,0.0,0.0,0.0,0.0,0.0,0.0,0.0,0.0,0.0,0.0,0.0,0.0,0.0,0.0,0.0,0.0,0.0,0.0,0.0,0.0,0.0,0.0,0.0,0.0,0.0,0.0,0.0,0.0,0.0,0.0,0.0,0.0,0.0,0.0,0.0,0.0,0.0,0.0,0.0,0.0,0.0,0.0,0.0,0.0,0.0,0.0,0.0,0.0,0.0,0.0,0.0,0.0,0.0,0.0,0.0,0.0,0.0,0.0,0.0,0.0,0.0,0.0,0.0,0.0,0.0,0.0,0.0,0.0,0.0,0.0,0.0,0.0,0.0,0.0,0.0,0.0,0.0,0.0,0.0,0.0,0.0,0.0,0.0,0.0,0.0,0.0,0.0,0.0,0.0,0.0,0.0,0.0,0.0,0.0,0.0,0.0,0.0,0.0,0.0,0.0,0.0,0.0,0.0,0.6695,0.6848,0.6944,0.6938,0.7008,0.6969,0.0,0.0,0.0,0.0,0.0,0.0,0.0,0.0,0.0,0.0,0.0,0.0,0.0,0.0,0.0,0.0,0.0,0.0,0.0,0.0,0.0,0.0,0.0,0.0,0.0,0.0,0.0,0.0,0.0,0.0,0.0,0.0,0.0,0.0,0.0,0.0,0.0,0.0,0.0,0.0,0.0,0.0,0.0,0.0,0.0,0.0,0.0,0.0,0.0,0.0,0.0,0.0,0.0,0.0,0.0,0.0,0.0,0.0,0.0,0.0,0.0,0.0,0.0,0.0,0.0,0.0,0.0,0.0,0.0,0.0,0.0,0.0,0.0,0.0,0.0,0.0,0.0,0.0,0.0,0.0,0.0,0.0,0.0,0.0,0.0,0.0,0.0,0.0,0.0,0.0,0.0,0.0,0.0,0.0,0.0,0.0,0.0,0.0,0.0,0.0,0.0,0.0,0.0,0.0,0.0,0.0,0.0,0.0,0.6845,0.6975,0.7283,0.7461,0.7521,0.7387,0.7337,0.0,0.0,0.0,0.0,0.0,0.0,0.0,0.0,0.0,0.0,0.0,0.0,0.0,0.0,0.0,0.0,0.0,0.0,0.0,0.0,0.0,0.0,0.0,0.0,0.0,0.0,0.0,0.0,0.0,0.0,0.0,0.0,0.0,0.0,0.0,0.0,0.0,0.0,0.0,0.0,0.0,0.0,0.0,0.0,0.0,0.0,0.0,0.0,0.0,0.0,0.0,0.0,0.0,0.0,0.0,0.0,0.0,0.0,0.0,0.0,0.0,0.0,0.0,0.0,0.0,0.0,0.0,0.0,0.0,0.0,0.0,0.0,0.0,0.0,0.0,0.0,0.0,0.0,0.0,0.0,0.0,0.0,0.0,0.0,0.0,0.0,0.0,0.0,0.0,0.0,0.0,0.0,0.0,0.0,0.0,0.0,0.0,0.0,0.0,0.0,0.0,0.0,0.0,0.0,0.0,0.0,0.0,0.0,0.6777,0.7176,0.7554,0.7865,0.8055,0.7595,0.7586,0.0,0.0,0.0,0.0,0.0,0.0,0.0,0.0,0.0,0.0,0.0,0.0,0.0,0.0,0.0,0.0,0.0,0.0,0.0,0.0,0.0,0.0,0.0,0.0,0.0,0.0,0.0,0.0,0.0,0.0,0.0,0.0,0.0,0.0,0.0,0.0,0.0,0.0,0.0,0.0,0.0,0.0,0.0,0.0,0.0,0.0,0.0,0.0,0.0,0.0,0.0,0.0,0.0,0.0,0.0,0.0,0.0,0.0,0.0,0.0,0.0,0.0,0.0,0.0,0.0,0.0,0.0,0.0,0.0,0.0,0.0,0.0,0.0,0.0,0.0,0.0,0.0,0.0,0.0,0.0,0.0,0.0,0.0,0.0,0.0,0.0,0.0,0.0,0.0,0.0,0.0,0.0,0.0,0.0,0.0,0.0,0.0,0.0,0.0,0.0,0.0,0.0,0.0,0.0,0.0,0.0,0.0,0.0,0.6699,0.7047,0.7387,0.7695,0.7941,0.808,0.8093,0.0,0.0,0.0,0.0,0.0,0.0,0.0,0.0,0.0,0.0,0.0,0.0,0.0,0.0,0.0,0.0,0.0,0.0,0.0,0.0,0.0,0.0,0.0,0.0,0.0,0.0,0.0,0.0,0.0,0.0,0.0,0.0,0.0,0.0,0.0,0.0,0.0,0.0,0.0,0.0,0.0,0.0,0.0,0.0,0.0,0.0,0.0,0.0,0.7983,0.0,0.0,0.0,0.0,0.0,0.0,0.0,0.0,0.0,0.0,0.0,0.0,0.0,0.0,0.0,0.0,0.0,0.0,0.0,0.0,0.0,0.0,0.0,0.0,0.0,0.0,0.0,0.0,0.0,0.0,0.0,0.0,0.0,0.0,0.0,0.0,0.0,0.0,0.0,0.0,0.0,0.0,0.0,0.0,0.0,0.0,0.0,0.0,0.0,0.0,0.0,0.0,0.0,0.0,0.0,0.0,0.0,0.0,0.0,0.6436,0.6807,0.7145,0.7436,0.77,0.7999,0.8192,0.0,0.0,0.0,0.0,0.0,0.0,0.0,0.0,0.0,0.0,0.0,0.0,0.0,0.0,0.0,0.0,0.0,0.0,0.0,0.0,0.0,0.0,0.0,0.0,0.0,0.0,0.0,0.0,0.0,0.0,0.0,0.0,0.0,0.0,0.0,0.0,0.0,0.0,0.0,0.0,0.0,0.0,0.0,0.0,0.0,0.0,0.0,0.0,0.0,0.0,0.0,0.0,0.0,0.0,0.0,0.0,0.0,0.0,0.0,0.0,0.0,0.0,0.0,0.0,0.0,0.0,0.0,0.0,0.0,0.0,0.0,0.0,0.0,0.0,0.0,0.0,0.0,0.0,0.0,0.0,0.0,0.0,0.0,0.0,0.0,0.0,0.0,0.0,0.0,0.0,0.0,0.0,0.0,0.0,0.0,0.0,0.0,0.0,0.0,0.0,0.0,0.0,0.0,0.0,0.0,0.0,0.0,0.5889,0.6172,0.6554,0.688,0.7184,0.748,0.7734,0.8084,0.85,0.0,0.0,0.0,0.0,0.0,0.0,0.0,0.0,0.0,0.0,0.0,0.0,0.0,0.0,0.0,0.0,0.0,0.0,0.0,0.0,0.0,0.0,0.0,0.0,0.0,0.0,0.0,0.0,0.0,0.0,0.0,0.0,0.0,0.0,0.0,0.0,0.0,0.0,0.4468,0.5893,0.0,0.0,0.0,0.0,0.0,0.0,0.0,0.0,0.9952,0.0,0.0,0.0,0.0,0.0,0.0,0.0,0.0,0.0,0.0,0.0,0.0,0.0,0.0,0.0,0.0,0.0,0.0,0.0,0.0,0.0,0.0,0.0,0.0,0.0,0.0,0.0,0.0,0.0,0.0,0.0,0.0,0.0,0.0,0.0,0.0,0.0,0.0,0.0,0.0,0.0,0.0,0.0,0.0,0.0,0.0,0.0,0.0,0.0,0.0,0.0,0.0,0.0,0.0,0.0,0.0,0.5391,0.5674,0.5994,0.6341,0.6686,0.7024,0.7388,0.7627,0.7894,0.8202,0.0,0.0,0.0,0.0,0.0,0.0,0.0,0.0,0.0,0.0,0.0,0.0,0.0,0.0,0.0,0.0,0.0,0.0,0.0,0.0,0.0,0.0,0.0,0.0,0.0,0.0,0.0,0.0,0.0,0.0,0.0,0.0,0.0,0.0,0.0,0.0,0.0,0.0,0.0,0.7146,0.7859,0.0,0.0,0.0,0.0,0.0,0.0,0.0,0.0,1.0764,0.0,0.0,0.0,0.0,0.0,0.0,0.0,0.0,0.0,0.0,0.0,0.0,0.0,0.0,0.0,0.0,0.0,0.0,0.0,0.0,0.0,0.0,0.0,0.0,0.0,0.0,0.0,0.0,0.0,0.0,0.0,0.0,0.0,0.0,0.0,0.0,0.0,0.0,0.0,0.0,0.0,0.0,0.0,0.0,0.0,0.0,0.0,0.0,0.0,0.0,0.0,0.0,0.0,0.0,0.0,0.5096,0.5388,0.5698,0.6044,0.6407,0.6779,0.7126,0.7441,0.7734,0.0,0.0,0.0,0.0,0.0,0.0,0.0,0.0,0.0,0.0,0.0,0.0,0.0,0.0,0.0,0.0,0.0,0.0,0.0,0.0,0.0,0.0,0.0,0.0,0.0,0.0,0.0,0.0,0.0,0.0,0.0,0.0,0.0,0.0,0.0,0.0,0.0,0.0,0.0,0.0,0.7605,0.8268,0.9362,0.0,0.0,0.0,0.0,0.0,0.0,1.1487,1.1505,0.0,0.0,0.0,0.0,0.0,0.0,0.0,0.0,0.0,0.0,0.0,0.0,0.0,0.0,0.0,0.0,0.0,0.0,0.0,0.0,0.0,0.0,0.0,0.0,0.0,0.0,0.0,0.0,0.0,0.0,0.0,0.0,0.0,0.0,0.0,0.0,0.0,0.0,0.0,0.0,0.0,0.0,0.0,0.0,0.0,0.0,0.0,0.0,0.0,0.0,0.0,0.0,0.0,0.0,0.0,0.482,0.5084,0.5388,0.5752,0.611,0.6478,0.682,0.7219,0.7529,0.0,0.0,0.0,0.0,0.0,0.0,0.0,0.0,0.0,0.0,0.0,0.0,0.0,0.0,0.0,0.0,0.0,0.0,0.0,0.0,0.0,0.0,0.0,0.0,0.0,0.0,0.0,0.0,0.0,0.0,0.0,0.0,0.0,0.0,0.0,0.0,0.0,0.0,0.0,0.0,0.0,0.8694,0.9812,1.0544,0.0,0.0,0.0,0.0,1.2074,1.2074,0.0,0.0,0.0,0.0,0.0,0.0,0.0,0.0,0.0,0.0,0.0,0.0,0.0,0.0,0.0,0.0,0.0,0.0,0.0,0.0,0.0,0.0,0.0,0.0,0.0,0.0,0.0,0.0,0.0,0.0,0.0,0.0,0.0,0.0,0.0,0.0,0.0,0.0,0.0,0.0,0.0,0.0,0.0,0.0,0.0,0.0,0.0,0.0,0.0,0.0,0.0,0.0,0.0,0.0,0.0,0.0,0.4542,0.482,0.5144,0.5522,0.5885,0.6237,0.663,0.6966,0.7294,0.0,0.0,0.0,0.0,0.0,0.0,0.0,0.0,0.0,0.0,0.0,0.0,0.0,0.0,0.0,0.0,0.0,0.0,0.0,0.0,0.0,0.0,0.0,0.0,0.0,0.0,0.0,0.0,0.0,0.0,0.0,0.0,0.0,0.0,0.0,0.0,0.0,0.0,0.0,0.0,0.0,0.9479,1.0157,1.1026,1.1852,0.0,0.0,1.2575,1.2688,1.2688,0.0,0.0,0.0,0.0,0.0,0.0,0.0,0.0,0.0,0.0,0.0,0.0,0.0,0.0,0.0,0.0,0.0,0.0,0.0,0.0,0.0,0.0,0.0,0.0,0.0,0.0,0.0,0.0,0.0,0.0,0.0,0.0,0.0,0.0,0.0,0.0,0.0,0.0,0.0,0.0,0.0,0.0,0.0,0.0,0.0,0.0,0.0,0.0,0.0,0.0,0.0,0.0,0.0,0.0,0.0,0.4064,0.4441,0.4596,0.4861,0.528,0.559,0.5948,0.6305,0.6714,0.7114,0.0,0.0,0.0,0.0,0.0,0.0,0.0,0.0,0.0,0.0,0.0,0.0,0.0,0.0,0.0,0.0,0.0,0.0,0.0,0.0,0.0,0.0,0.0,0.0,0.0,0.0,0.0,0.0,0.0,0.0,0.0,0.0,0.0,0.0,0.0,0.0,0.0,0.0,0.0,0.0,0.0,0.0,1.0647,1.1616,0.0,0.0,0.0,1.3276,1.3406,0.0,0.0,0.0,0.0,0.0,0.0,0.0,0.0,0.0,0.0,0.0,0.0,0.0,0.0,0.0,0.0,0.0,0.0,0.0,0.0,0.0,0.0,0.0,0.0,0.0,0.0,0.0,0.0,0.0,0.0,0.0,0.0,0.0,0.0,0.0,0.0,0.0,0.0,0.0,0.0,0.0,0.0,0.0,0.0,0.0,0.0,0.0,0.0,0.0,0.0,0.0,0.0,0.0,0.0,0.0,0.0,0.0,0.4285,0.4406,0.466,0.5052,0.5367,0.5689,0.6021,0.6444,0.0,0.0,0.0,0.0,0.0,0.0,0.0,0.0,0.0,0.0,0.0,0.0,0.0,0.0,0.0,0.0,0.0,0.0,0.0,0.0,0.0,0.0,0.0,0.0,0.0,0.0,0.0,0.5586,0.0,0.0,0.0,0.0,0.0,0.0,0.0,0.0,0.0,0.0,0.0,0.0,0.0,0.0,1.1132,1.1314,1.2353,1.3363,0.0,0.0,1.3942,1.4035,1.4019,1.391,0.0,0.0,0.0,0.0,0.0,0.0,0.0,0.0,0.0,0.0,0.0,0.0,0.0,0.0,0.0,0.0,0.0,0.0,0.0,0.0,0.0,0.0,0.0,0.0,0.0,0.0,0.0,0.0,0.0,0.0,0.0,0.0,0.0,0.0,0.0,0.0,0.0,0.0,0.0,0.0,0.0,0.0,0.0,0.0,0.0,0.0,0.0,0.0,0.0,0.0,0.0,0.0,0.0,0.0,0.0,0.4026,0.4269,0.4573,0.4918,0.5248,0.5543,0.5811,0.616,0.6521,0.0,0.0,0.0,0.0,0.0,0.0,0.0,0.0,0.0,0.0,0.0,0.0,0.0,0.0,0.0,0.0,0.0,0.0,0.0,0.0,0.0,0.0,0.0,0.0,0.0,0.0,0.0,0.0,0.0,0.0,0.0,0.0,0.0,0.0,0.0,0.0,0.0,0.0,0.0,0.0,0.0,1.25,1.2319,1.3226,1.4144,0.0,0.0,1.4461,1.446,1.4461,1.4362,1.4104,0.0,0.0,0.0,0.0,0.0,0.0,0.0,0.0,0.0,0.0,0.0,0.0,0.0,0.0,0.0,0.0,0.0,0.0,0.0,0.0,0.0,0.0,0.0,0.0,0.0,0.0,0.0,0.0,0.0,0.0,0.0,0.0,0.0,0.0,0.0,0.0,0.0,0.0,0.0,0.0,0.0,0.0,0.0,0.0,0.0,0.0,0.0,0.0,0.0,0.0,0.0,0.0,0.0,0.3698,0.3991,0.414,0.4415,0.4832,0.5001,0.5232,0.5535,0.5842,0.6199,0.0,0.0,0.0,0.0,0.0,0.0,0.0,0.0,0.0,0.0,0.0,0.0,0.0,0.0,0.0,0.0,0.0,0.0,0.0,0.0,0.0,0.0,0.0,0.0,0.0,0.0,0.0,0.0,0.7978,0.8352,0.9346,0.0,0.0,0.0,0.0,0.0,0.0,0.0,0.0,0.0,0.0,1.3404,1.3331,1.3956,0.0,0.0,1.4997,1.4867,1.4868,1.4831,1.4742,1.4551,1.42,0.0,0.0,0.0,0.0,0.0,0.0,0.0,0.0,0.0,0.0,0.0,0.0,0.0,0.0,0.0,0.0,0.0,0.0,0.0,0.0,0.0,0.0,0.0,0.0,0.0,0.0,0.0,0.0,0.0,0.0,0.0,0.0,0.0,0.0,0.0,0.0,0.0,0.0,0.0,0.0,0.0,0.0,0.0,0.0,0.0,0.0,0.0,0.0,0.0,0.0,0.0,0.0,0.3581,0.3861,0.4012,0.4272,0.4646,0.4787,0.4982,0.5229,0.5515,0.5882,0.0,0.0,0.0,0.0,0.0,0.0,0.0,0.0,0.0,0.0,0.0,0.0,0.0,0.0,0.0,0.0,0.0,0.0,0.0,0.0,0.0,0.0,0.0,0.0,0.0,0.0,0.0,0.0,0.7874,0.8207,0.9046,0.0,0.0,0.0,0.0,0.0,0.0,0.0,0.0,0.0,0.0,1.4049,1.4185,1.4704,1.5312,1.5894,1.5908,1.5863,1.5881,1.5825,1.5774,1.5651,0.0,0.0,0.0,0.0,0.0,0.0,0.0,0.0,0.0,0.0,0.0,0.0,0.0,0.0,0.0,0.0,0.0,0.0,0.0,0.0,0.0,0.0,0.0,0.0,0.0,0.0,0.0,0.4955,0.0,0.0,0.4817,0.0,0.0,0.0,0.0,0.0,0.0,0.0,0.0,0.0,0.0,0.0,0.0,0.0,0.0,0.0,0.0,0.0,0.0,0.0,0.0,0.0,0.0,0.341,0.3616,0.3933,0.4158,0.4315,0.4646,0.4838,0.4918,0.5226,0.559,0.5994,0.0,0.0,0.0,0.0,0.0,0.0,0.0,0.0,0.0,0.0,0.0,0.0,0.0,0.0,0.0,0.0,0.0,0.0,0.0,0.0,0.0,0.0,0.0,0.0,0.0,0.0,0.8054,0.8224,0.8343,0.0,0.0,0.0,0.0,0.0,0.0,0.0,0.0,0.0,0.0,1.4121,1.4433,1.4811,1.5496,1.6273,1.7364,1.7526,1.7536,1.7566,1.7599,1.7625,0.0,0.0,0.0,0.0,0.0,0.0,0.0,0.0,0.0,0.0,0.0,0.0,0.0,0.0,0.0,0.0,0.0,0.0,0.0,0.0,0.0,0.0,0.0,0.0,0.0,0.0,0.0,0.461,0.4582,0.0,0.0,0.0,0.0,0.0,0.0,0.0,0.0,0.0,0.0,0.0,0.4562,0.4457,0.0,0.0,0.0,0.0,0.0,0.0,0.0,0.0,0.0,0.0,0.0,0.0,0.334,0.3532,0.3719,0.3928,0.4086,0.4347,0.454,0.4692,0.4934,0.5248,0.5579,0.0,0.0,0.0,0.0,0.0,0.0,0.0,0.0,0.0,0.0,0.0,0.0,0.0,0.0,0.0,0.0,0.0,0.0,0.0,0.0,0.0,0.0,0.0,0.0,0.0,0.6978,0.0,0.0,0.0,0.0,0.0,0.0,0.0,0.0,0.0,0.0,0.0,1.3355,1.3612,1.3832,1.4156,1.4702,1.5165,1.6175,0.0,0.0,0.0,0.0,0.0,0.0,0.0,0.0,0.0,0.0,0.0,0.0,0.0,0.0,1.294,1.1382,1.0759,1.0338,0.9894,0.0,0.0,0.0,0.0,0.0,0.0,0.0,0.0,0.0,0.0,0.0,0.0,0.0,0.0,0.4237,0.4166,0.4019,0.0,0.0,0.0,0.0,0.0,0.0,0.0,0.0,0.4122,0.4093,0.394,0.39,0.3785,0.0,0.3469,0.3268,0.0,0.0,0.0,0.0,0.0,0.0,0.0,0.0,0.3187,0.3403,0.3606,0.3793,0.4004,0.4193,0.4391,0.4604,0.484,0.5124,0.5466,0.5571,0.5579,0.0,0.0,0.0,0.0,0.0,0.0,0.0,0.0,0.0,0.0,0.0,0.0,0.0,0.0,0.0,0.0,0.0,0.0,0.0,0.0,0.0,0.0,0.0,0.7039,0.0,0.0,0.0,0.0,0.0,0.0,0.0,0.0,0.0,1.2013,1.2624,1.3087,1.3329,1.3707,1.4014,1.4177,0.0,0.0,0.0,0.0,0.0,0.0,0.0,1.789,1.8033,1.7815,1.7466,1.7049,1.5744,1.4693,1.4564,0.0,0.0,1.2518,1.1845,1.1469,1.1039,1.0694,1.0414,1.0246,1.0105,0.9881,0.0,0.0,0.0,0.0,0.0,0.0,0.0,0.0,0.4055,0.3898,0.0,0.3764,0.0,0.0,0.0,0.0,0.2977,0.3122,0.0,0.0,0.3128,0.3163,0.3108,0.3101,0.3076,0.3011,0.2946,0.2906,0.2912,0.2953,0.0,0.0,0.0,0.0,0.0,0.0,0.3001,0.3224,0.354,0.3805,0.3976,0.4191,0.438,0.4589,0.4925,0.5238,0.5569,0.5615,0.5638,0.5579,0.5441,0.0,0.0,0.0,0.0,0.0,0.0,0.0,0.0,0.0,0.0,0.0,0.0,0.0,0.0,0.0,0.0,0.0,0.0,0.0,0.0,0.7078,0.0,0.0,0.0,0.0,0.0,0.0,0.0,0.0,0.0,0.0,1.0838,1.2089,1.2976,1.3042,0.0,0.0,0.0,0.0,1.6387,1.7056,1.771,1.823,1.8476,1.8684,1.8869,1.9013,0.0,0.0,1.646,1.5776,1.5421,1.5326,1.5463,1.4999,1.3512,1.2963,1.2579,1.2129,1.178,1.1499,1.1307,1.1168,1.1036,0.3106,0.0,0.0,0.0,0.0,0.3816,0.385,0.3771,0.3727,0.3586,0.3365,0.3162,0.0,0.0,0.0,0.0,0.0,0.0,0.2441,0.2514,0.2786,0.2912,0.2892,0.3042,0.3081,0.3078,0.2994,0.2951,0.2965,0.2907,0.2854,0.2837,0.0,0.0,0.0,0.0,0.3141,0.3337,0.3584,0.3736,0.3794,0.3989,0.4177,0.4377,0.471,0.4985,0.5238,0.5083,0.5053,0.5228,0.4933,0.0,0.0,0.0,0.0,0.0,0.0,0.0,0.0,0.0,0.0,0.0,0.0,0.0,0.0,0.0,0.0,0.0,0.0,0.0,0.6774,0.6946,0.7142,0.0,0.0,0.0,0.0,0.0,0.0,0.0,0.0,0.0,1.0027,1.0801,1.1611,0.0,0.0,1.3271,1.3482,1.444,1.5387,1.6082,1.6738,0.0,1.7495,1.7757,1.7979,1.8215,1.8412,1.8262,1.734,1.8063,1.8518,1.7771,1.7379,1.6794,1.5615,1.44,1.3573,1.3139,1.2874,1.2659,1.2448,1.2348,1.2252,0.2825,0.2809,0.3186,0.3383,0.3425,0.3576,0.359,0.3524,0.3315,0.3141,0.2953,0.2655,0.24,0.2171,0.1917,0.0,0.0,0.0,0.1969,0.2018,0.2337,0.2508,0.256,0.2689,0.274,0.2788,0.2826,0.2796,0.2776,0.2738,0.27,0.2686,0.0,0.0,0.2988,0.2987,0.3087,0.3283,0.346,0.363,0.3808,0.4009,0.4152,0.4217,0.4487,0.4758,0.4979,0.4938,0.4943,0.4944,0.4814,0.4726,0.0,0.0,0.0,0.0,0.0,0.0,0.0,0.0,0.0,0.0,0.0,0.6206,0.6257,0.0,0.0,0.0,0.6559,0.6793,0.6898,0.7287,0.0,0.0,0.0,0.0,0.0,0.0,0.0,0.8825,0.9163,0.9573,1.0084,1.0551,1.1131,1.1892,1.2546,1.3163,1.3693,0.0,1.4747,1.5227,1.5772,1.6256,1.6524,1.679,1.7079,1.7482,1.7983,1.8244,1.8016,1.8944,1.9503,1.8996,1.8741,1.8259,1.7007,1.6029,1.5081,1.4176,1.3845,1.3655,1.3464,1.3338,1.3247,0.2594,0.2636,0.313,0.3407,0.3525,0.3425,0.3372,0.3296,0.2871,0.2622,0.2495,0.219,0.1914,0.164,0.1514,0.0,0.1286,0.154,0.1613,0.1565,0.1849,0.2027,0.2174,0.2181,0.2234,0.2286,0.2482,0.251,0.2404,0.2511,0.2533,0.2505,0.2694,0.2791,0.2814,0.2813,0.2908,0.312,0.3256,0.3548,0.3995,0.4169,0.4218,0.4098,0.4281,0.4507,0.4742,0.5055,0.5061,0.4728,0.4912,0.4862,0.4506,0.0,0.0,0.0,0.0,0.0,0.0,0.0,0.0,0.0,0.0,0.0,0.0,0.0,0.0,0.0,0.7037,0.0,0.7041,0.7877,0.0,0.0,0.0,0.864,0.8518,0.8481,0.8615,0.9057,0.0,0.0,1.0647,1.0986,1.1285,1.1738,1.2565,1.3329,1.3845,1.4115,1.4335,1.4415,1.4877,1.5316,1.5628,1.5897,1.6239,1.6799,1.7238,1.7625,1.8035,1.8589,1.8974,1.9016,1.9405,1.9243,1.7794,1.7525,1.7101,1.5293,1.4867,1.4737,1.4594,1.4473,1.4392,0.2405,0.2541,0.2765,0.2973,0.3129,0.3103,0.3,0.277,0.2543,0.2242,0.1841,0.174,0.1512,0.1186,0.1135,0.1109,0.1059,0.1135,0.1211,0.1314,0.1637,0.179,0.1843,0.2079,0.2213,0.2237,0.2233,0.2195,0.2174,0.2241,0.2349,0.2425,0.2576,0.2707,0.2854,0.287,0.2972,0.3182,0.3415,0.3682,0.3979,0.4053,0.4052,0.4032,0.4117,0.427,0.449,0.4516,0.458,0.4688,0.4517,0.4361,0.4282,0.4465,0.0,0.0,0.0,0.0,0.0,0.0,0.0,0.0,0.0,0.601,0.6039,0.0,0.6071,0.0,0.6842,0.7489,0.7783,0.8038,0.0,0.0,0.8643,0.8659,0.8508,0.8756,0.8973,0.9084,0.9701,1.0248,1.0595,1.1046,1.1419,1.17,1.2271,1.2779,1.3126,1.3393,1.3599,1.3752,1.411,1.448,1.4786,1.5159,1.5557,1.601,1.6372,1.674,1.7154,1.7712,1.8153,1.8291,1.869,1.8686,1.8076,1.8136,1.7931,1.7065,1.6843,1.684,1.6735,1.6623,1.6526,0.1933,0.2102,0.224,0.2384,0.2487,0.2699,0.2645,0.2407,0.2222,0.1933,0.159,0.143,0.1218,0.0953,0.0953,0.0954,0.0979,0.1006,0.1086,0.1166,0.1406,0.1527,0.1529,0.1806,0.1934,0.1932,0.2032,0.2052,0.2021,0.2111,0.2175,0.2219,0.2343,0.2516,0.2675,0.2862,0.3001,0.3127,0.3431,0.3692,0.3856,0.3951,0.3999,0.4005,0.3996,0.4097,0.4266,0.4263,0.4336,0.4513,0.4455,0.4308,0.4081,0.44,0.4612,0.0,0.0,0.0,0.0,0.0,0.0,0.0,0.0,0.0,0.0,0.0,0.6446,0.6622,0.7392,0.7947,0.808,0.8294,0.8521,0.8676,0.8703,0.8733,0.8803,0.9026,0.9281,0.9675,1.0145,1.057,1.0828,1.1113,1.136,1.1459,1.1808,1.2168,1.249,1.2772,1.2982,1.3138,1.345,1.3832,1.4175,1.4582,1.4969,1.5293,1.5622,1.5976,1.6361,1.6892,1.7343,1.7535,1.7939,1.8275,1.827,1.8529,1.8601,1.8495,1.8483,1.832,1.7717,1.7555,1.7506,0.1375,0.1543,0.168,0.1734,0.1762,0.2183,0.2269,0.21,0.1879,0.1684,0.1515,0.1206,0.1009,0.0897,0.0897,0.0897,0.0897,0.1009,0.1066,0.1094,0.1206,0.1263,0.1291,0.1459,0.1543,0.1572,0.1793,0.1904,0.1853,0.1982,0.2032,0.2026,0.2096,0.2245,0.2426,0.2787,0.2977,0.3002,0.3362,0.3597,0.3699,0.3871,0.3976,0.4006,0.3918,0.3935,0.406,0.4121,0.4198,0.4293,0.4517,0.4482,0.4111,0.4438,0.4592,0.0,0.4725,0.0,0.0,0.0,0.0,0.0,0.0,0.0,0.0,0.6826,0.7009,0.7439,0.8151,0.8448,0.8161,0.8566,0.8778,0.8692,0.8717,0.887,0.9139,0.9285,0.9632,1.0384,1.0515,1.0721,1.1092,1.119,1.119,1.1223,1.1397,1.1697,1.208,1.234,1.2484,1.2615,1.2918,1.3353,1.3746,1.4084,1.4381,1.4662,1.4968,1.5293,1.5624,1.6122,1.6549,1.683,1.717,1.7622,1.8237,1.8609,1.8963,1.9175,1.939,1.9238,1.8399,1.8154,1.8027,0.1038,0.1206,0.1347,0.1402,0.1402,0.1486,0.1599,0.1712,0.1656,0.1459,0.1206,0.1009,0.0925,0.0897,0.0897,0.0897,0.0925,0.0925,0.0953,0.0953,0.1066,0.115,0.115,0.1291,0.1347,0.1347,0.1403,0.151,0.1668,0.1695,0.1799,0.2007,0.2032,0.2197,0.2474,0.0,0.0,0.0,0.3174,0.3374,0.3619,0.3696,0.3834,0.3998,0.3827,0.0,0.393,0.3942,0.403,0.4207,0.4318,0.0,0.0,0.0,0.0,0.0,0.0,0.0,0.0,0.0,0.0,0.0,0.5896,0.6206,0.6978,0.7338,0.7588,0.7792,0.8201,0.8406,0.8338,0.8427,0.8486,0.8483,0.8787,0.9054,0.9126,0.9699,1.0172,1.0319,1.0631,1.0896,1.108,1.1125,1.1144,1.1211,1.1247,1.1588,1.2295,1.2183,1.2089,1.2216,1.271,1.3053,1.3285,1.3607,1.3871,1.4072,1.4358,1.4658,1.495,1.5381,1.5803,1.6124,1.6414,1.6834,1.7473,1.7926,1.8313,1.8689,1.9016,1.9323,1.958,1.9655,1.975,0.0645,0.0757,0.0925,0.1009,0.0,0.1066,0.1122,0.115,0.1291,0.1234,0.0981,0.0925,0.0897,0.0897,0.0897,0.0897,0.0897,0.0897,0.0897,0.0897,0.0981,0.1009,0.1009,0.115,0.1206,0.1206,0.1291,0.1347,0.1459,0.1543,0.1683,0.1793,0.1931,0.2072,0.2266,0.2464,0.2747,0.3087,0.3071,0.3197,0.3488,0.3597,0.3711,0.384,0.3721,0.0,0.0,0.0,0.0,0.0,0.0,0.0,0.0,0.0,0.0,0.4523,0.4621,0.4679,0.4685,0.5137,0.5624,0.6059,0.655,0.6994,0.7363,0.7929,0.825,0.8203,0.8262,0.8328,0.8407,0.8599,0.8753,0.8769,0.9159,0.9505,0.9698,1.0017,1.0321,1.0536,1.067,1.0794,1.0938,1.1146,1.1274,1.1393,1.1646,1.1886,1.2088,1.2087,1.2211,1.2733,1.3105,1.3407,1.3563,1.3592,1.3673,1.3847,1.3935,1.4118,1.4369,1.4735,1.5135,1.547,1.5767,1.616,1.674,1.7193,1.7631,1.8028,1.8407,1.8782,1.9282,1.9697,2.0041,0.0252,0.0393,0.0589,0.0645,0.0645,0.0757,0.0757,0.0645,0.0869,0.0,0.0,0.0869,0.0869,0.0841,0.0897,0.0897,0.0897,0.0897,0.0897,0.0897,0.0897,0.0897,0.0897,0.1009,0.1066,0.1066,0.1178,0.1234,0.1263,0.1459,0.1572,0.16,0.1849,0.1987,0.2034,0.2246,0.2593,0.3058,0.2965,0.3043,0.3307,0.3464,0.3573,0.3676,0.3561,0.3563,0.3676,0.3571,0.3649,0.3928,0.4229,0.4551,0.4827,0.4952,0.493,0.4752,0.4802,0.4815,0.4739,0.542,0.5999,0.633,0.7206,0.7748,0.7737,0.8372,0.867,0.8462,0.8404,0.8403,0.844,0.885,0.9109,0.913,0.954,0.9926,1.0184,1.0273,1.0413,1.0669,1.0654,1.068,1.0873,1.1155,1.1425,1.1655,1.1985,1.2325,1.2116,1.2321,1.266,1.3224,1.3484,1.3738,1.3866,1.3812,1.3751,1.3846,1.3804,1.3844,1.4084,1.4258,1.4563,1.5087,1.5258,1.5529,1.6008,1.6483,1.6925,1.7345,1.7757,1.8113,1.8444,1.9025,1.9569,0.0112,0.0224,0.0393,0.0449,0.0449,0.0449,0.0449,0.0449,0.0477,0.0505,0.0477,0.0645,0.0729,0.0729,0.0841,0.0897,0.0897,0.0897,0.0897,0.0897,0.0897,0.0897,0.0897,0.0925,0.0925,0.0925,0.0953,0.1009,0.115,0.1291,0.1431,0.16,0.174,0.1934,0.2144,0.222,0.2392,0.2665,0.2826,0.2933,0.2979,0.3151,0.3374,0.3587,0.3324,0.3313,0.3596,0.3381,0.3389,0.3649,0.391,0.4245,0.4606,0.4675,0.473,0.4874,0.5002,0.5094,0.5192,0.5491,0.5913,0.6506,0.7168,0.7627,0.7861,0.8135,0.8263,0.819,0.8693,0.8906,0.8663,0.8966,0.9201,0.9236,0.9613,0.9907,0.9993,1.0306,1.0559,1.066,1.0616,1.0753,1.1085,1.1226,1.1457,1.1776,1.2144,1.2356,1.2763,1.3103,1.3134,1.3075,1.3275,1.3481,1.3725,1.3755,1.3853,1.3959,1.4157,1.4318,1.4551,1.4301,1.4326,1.4972,1.4927,1.4967,1.5396,1.5765,1.6225,1.668,1.7069,1.7442,1.7808,1.8216,1.868,-0.0028,0.0112,0.0224,0.028,0.028,0.028,0.028,0.028,0.0224,0.028,0.0393,0.0505,0.0589,0.0701,0.0757,0.0813,0.0897,0.0897,0.0897,0.0897,0.0897,0.0897,0.0897,0.0897,0.0897,0.0897,0.0897,0.0925,0.1009,0.1178,0.1347,0.1459,0.1684,0.1907,0.2092,0.213,0.2235,0.239,0.2519,0.2683,0.2887,0.3,0.32,0.3466,0.3297,0.3283,0.3432,0.3351,0.338,0.3555,0.3831,0.4167,0.4529,0.4691,0.4804,0.4911,0.5269,0.5393,0.5196,0.5612,0.6108,0.6678,0.7243,0.7636,0.7822,0.7955,0.812,0.8309,0.8804,0.9048,0.8949,0.9326,0.9587,0.9574,1.0001,1.0284,1.0301,1.0375,1.0595,1.0805,1.08,1.0949,1.1406,1.1696,1.1943,1.2265,1.2544,1.2907,1.3217,1.3473,1.3667,1.3728,1.3856,1.4016,1.419,1.4124,1.4113,1.4173,1.4195,1.4321,1.4502,1.4381,1.465,1.5021,1.5052,1.5101,1.5296,1.5663,1.5951,1.6009,1.6416,1.6805,1.7191,1.7631,1.8276,-0.0168,-0.0028,0.0084,0.014,0.014,0.014,0.0168,0.014,0.0028,0.0112,0.028,0.0336,0.0449,0.0589,0.0673,0.0757,0.0841,0.0897,0.0897,0.0897,0.0897,0.0897,0.0897,0.0897,0.0897,0.0897,0.0897,0.0897,0.0925,0.115,0.1347,0.1431,0.1684,0.188,0.2013,0.2082,0.2115,0.2212,0.2258,0.2482,0.28,0.2843,0.3019,0.3278,0.3279,0.3254,0.3294,0.3354,0.3438,0.3533,0.3816,0.4107,0.4409,0.465,0.4828,0.4948,0.5415,0.5583,0.5372,0.5818,0.6361,0.6814,0.7278,0.763,0.7831,0.7976,0.8171,0.8528,0.897,0.9247,0.9258,0.9634,0.9918,0.9938,1.0239,1.0423,1.0443,1.0444,1.0572,1.0921,1.098,1.1167,1.1682,1.2093,1.2388,1.2696,1.3084,1.3314,1.342,1.3592,1.3852,1.4145,1.4314,1.4404,1.4662,1.4519,1.4398,1.4407,1.4358,1.4488,1.4678,1.4946,1.5107,1.5343,1.5582,1.5582,1.5471,1.5609,1.5784,1.5776,1.6111,1.6453,1.6727,1.7219,1.7879,-0.0309,-0.0168,-0.0028,0.0028,0.0,0.0,0.0,0.0,0.0,0.0,0.0,0.0168,0.0224,0.028,0.0561,0.0701,0.0729,0.0841,0.0897,0.0897,0.0897,0.0897,0.0897,0.0897,0.0897,0.0897,0.0897,0.0897,0.0925,0.1178,0.1459,0.1712,0.1797,0.1879,0.2007,0.2056,0.2142,0.219,0.227,0.2391,0.2532,0.2661,0.2819,0.3033,0.3028,0.3102,0.3276,0.3362,0.345,0.3592,0.381,0.399,0.4135,0.4339,0.4615,0.4969,0.5226,0.5491,0.5876,0.6163,0.6489,0.6942,0.721,0.7525,0.7952,0.8273,0.8499,0.8763,0.9407,0.9658,0.9379,0.9715,0.9973,0.9978,1.0055,1.0063,1.0145,1.0377,1.0611,1.0618,1.1018,1.1379,1.1874,1.2069,1.2332,1.2911,1.3078,1.321,1.3348,1.3443,1.3563,1.3834,1.4059,1.4251,1.4414,1.4541,1.4568,1.4744,1.4903,1.5022,1.5255,1.5474,1.5721,1.5601,1.6019,1.6117,1.5728,1.5588,1.5649,1.583,1.6106,1.6443,1.6548,1.6889,1.7464,-0.0386,-0.0238,-0.0089,0.0,0.0,0.0,0.0,0.0,0.0,0.0,0.0,0.0056,0.014,0.0224,0.0421,0.0589,0.0701,0.0841,0.0897,0.0897,0.0897,0.0897,0.0897,0.0897,0.0897,0.0897,0.0897,0.0953,0.1038,0.1319,0.1572,0.1769,0.1797,0.1824,0.1875,0.1988,0.2074,0.2133,0.2206,0.2341,0.2487,0.2536,0.2684,0.2925,0.3055,0.3157,0.3249,0.3451,0.358,0.3607,0.3891,0.4175,0.4393,0.4376,0.4629,0.5243,0.5638,0.6003,0.6381,0.6522,0.6762,0.7153,0.7418,0.7759,0.8151,0.8557,0.8839,0.9045,0.951,0.9748,0.9647,0.9842,1.0009,1.0009,1.0009,1.0095,1.0326,1.0492,1.0747,1.1208,1.1463,1.1733,1.2182,1.2364,1.2565,1.2929,1.3056,1.3148,1.3214,1.3319,1.3486,1.3658,1.3852,1.4041,1.4233,1.4402,1.4541,1.4697,1.4875,1.5102,1.5295,1.5519,1.564,1.5727,1.6163,1.6267,1.5785,1.5938,1.6044,1.6129,1.6467,1.6834,1.6711,1.6982,1.7324,-0.0432,-0.0339,-0.0093,0.0,0.0,0.0,0.0,0.0,0.0,0.0,0.0,0.0028,0.0112,0.0224,0.0336,0.0505,0.0617,0.0813,0.0897,0.0897,0.0897,0.0897,0.0897,0.0897,0.0925,0.0953,0.0953,0.1066,0.1234,0.1487,0.1656,0.1769,0.1797,0.1797,0.1825,0.1932,0.2036,0.2101,0.2174,0.2298,0.2433,0.2495,0.2626,0.2826,0.304,0.3165,0.3201,0.3533,0.369,0.3666,0.4028,0.4334,0.4553,0.4453,0.4834,0.5701,0.6023,0.6281,0.6582,0.6709,0.6918,0.7263,0.7577,0.7919,0.8297,0.8698,0.8947,0.9039,0.9341,0.9525,0.9655,0.9754,0.9798,0.9798,0.9897,1.0121,1.0393,1.0599,1.1038,1.1607,1.178,1.2029,1.24,1.2613,1.2735,1.29,1.2978,1.3046,1.3118,1.3281,1.3449,1.3573,1.3668,1.3852,1.4093,1.4257,1.4402,1.4569,1.4748,1.488,1.504,1.5289,1.5541,1.5708,1.6111,1.6314,1.6149,1.6303,1.6455,1.641,1.6676,1.7057,1.689,1.722,1.7373,-0.0494,-0.0433,-0.0124,0.0,0.0,0.0,0.0,0.0,0.0,0.0,0.0,0.014,0.0196,0.0224,0.0364,0.0393,0.0477,0.0757,0.0897,0.0897,0.0897,0.0897,0.0897,0.0897,0.0981,0.1066,0.1066,0.1263,0.1543,0.16,0.1684,0.1797,0.1797,0.1797,0.1825,0.1934,0.2036,0.2114,0.2227,0.2309,0.2358,0.2496,0.2628,0.2729,0.2904,0.3073,0.3223,0.3531,0.3724,0.3776,0.41,0.4364,0.45,0.4648,0.5303,0.6373,0.6298,0.6176,0.6369,0.6598,0.6869,0.7187,0.7536,0.7894,0.8298,0.8578,0.872,0.8724,0.8911,0.9092,0.9357,0.9435,0.9401,0.945,0.9703,0.9953,1.0163,1.0845,1.1281,1.1553,1.1849,1.2161,1.2466,1.2603,1.273,1.2861,1.291,1.2949,1.3074,1.3277,1.344,1.3544,1.3639,1.3692,1.3968,1.4127,1.4314,1.4505,1.4639,1.4736,1.4937,1.5159,1.5407,1.5614,1.583,1.6082,1.6377,1.6585,1.6719,1.6743,1.6764,1.6941,1.7118,1.744,1.761,-0.0359,-0.0196,-0.0064,0.0,0.0,0.0,0.0,0.0,0.0089,0.0117,0.0144,0.0283,0.0308,0.0336,0.0505,0.0589,0.0617,0.0813,0.0897,0.0897,0.0897,0.0897,0.0897,0.0981,0.1038,0.1094,0.1178,0.1347,0.1572,0.1684,0.174,0.1797,0.1797,0.1797,0.1825,0.1852,0.1976,0.2142,0.218,0.2281,0.2473,0.2563,0.2595,0.2654,0.2874,0.3056,0.3192,0.3485,0.3701,0.3839,0.4223,0.4563,0.4832,0.5274,0.5804,0.641,0.6494,0.6556,0.6737,0.6925,0.7167,0.7473,0.7621,0.7806,0.8108,0.8365,0.8508,0.8537,0.8553,0.8861,0.9412,0.943,0.9405,0.9637,0.983,1.0135,1.0632,1.1021,1.1314,1.1669,1.1958,1.2195,1.2426,1.2529,1.2656,1.2861,1.2959,1.2997,1.3017,1.3224,1.3454,1.3573,1.3615,1.3692,1.3973,1.4038,1.4145,1.4384,1.4546,1.4673,1.4857,1.5034,1.5255,1.5458,1.562,1.5836,1.6179,1.6563,1.6741,1.7067,1.7095,1.72,1.7397,1.7714,1.7851,-0.027,0.0,0.0,0.0,0.0,0.0064,0.0095,0.0094,0.0245,0.03,0.0324,0.0432,0.0482,0.0533,0.0701,0.0785,0.0813,0.0897,0.0897,0.0897,0.0953,0.0953,0.0981,0.1094,0.1206,0.1263,0.1403,0.1543,0.1656,0.1769,0.1797,0.1797,0.1797,0.1797,0.1797,0.1853,0.1989,0.2145,0.2216,0.2369,0.257,0.269,0.268,0.2664,0.2889,0.3097,0.3197,0.3464,0.3689,0.3924,0.43,0.4694,0.5089,0.5677,0.6132,0.637,0.6556,0.6723,0.6925,0.7059,0.722,0.7458,0.7579,0.7701,0.7912,0.8064,0.8212,0.8294,0.8619,0.9015,0.9377,0.9495,0.9622,0.9904,1.0074,1.0368,1.0951,1.116,1.1423,1.1796,1.2013,1.2224,1.2421,1.25,1.2652,1.2856,1.3012,1.3051,1.306,1.3214,1.3462,1.3597,1.3663,1.3768,1.3968,1.4057,1.4145,1.4355,1.4448,1.4581,1.4753,1.4926,1.5102,1.5284,1.5486,1.5703,1.6029,1.6436,1.6833,1.7204,1.741,1.7479,1.7711,1.7981,1.8144,-0.0169,0.0,0.0,0.0,0.0067,0.0201,0.0298,0.0324,0.0418,0.0529,0.0538,0.0648,0.0722,0.0735,0.0871,0.0981,0.1038,0.0981,0.0925,0.0953,0.1038,0.1094,0.1122,0.1262,0.1403,0.1599,0.174,0.1797,0.1825,0.1825,0.1852,0.1824,0.1853,0.1852,0.1824,0.1934,0.2072,0.2238,0.2371,0.2505,0.2621,0.2859,0.2871,0.2709,0.2993,0.3186,0.3209,0.3447,0.3687,0.3902,0.4338,0.4818,0.5241,0.572,0.611,0.6349,0.6471,0.659,0.6781,0.6925,0.7,0.7108,0.7314,0.7555,0.7687,0.7757,0.7857,0.8129,0.8762,0.9313,0.9305,0.9627,0.994,1.0122,1.0403,1.0701,1.0946,1.128,1.1598,1.1823,1.2002,1.2204,1.2402,1.2495,1.2598,1.2856,1.3027,1.3109,1.3161,1.3324,1.3467,1.3615,1.3716,1.3815,1.3957,1.4104,1.4239,1.435,1.4402,1.4477,1.4702,1.4886,1.5023,1.5199,1.5424,1.5647,1.5979,1.6371,1.6641,1.6988,1.7283,1.7605,1.7838,1.808,1.8522,-0.0067,0.0034,0.0135,0.0202,0.0202,0.0371,0.0436,0.0465,0.062,0.0767,0.0843,0.0991,0.1113,0.1157,0.1191,0.1206,0.1234,0.1178,0.1178,0.1206,0.1234,0.1262,0.1291,0.1431,0.1626,0.1848,0.2017,0.2073,0.2073,0.2073,0.2073,0.2073,0.2073,0.2073,0.2045,0.2128,0.2212,0.2409,0.2465,0.259,0.2782,0.2912,0.2998,0.3027,0.313,0.3254,0.3332,0.3497,0.3692,0.3906,0.4298,0.476,0.5241,0.565,0.6034,0.6346,0.6432,0.6492,0.666,0.6826,0.6946,0.7027,0.7196,0.737,0.7534,0.7656,0.7743,0.7894,0.8539,0.9201,0.9887,1.0015,1.0161,1.0355,1.056,1.0844,1.1115,1.144,1.1606,1.1653,1.1907,1.216,1.2328,1.2421,1.2603,1.2876,1.306,1.318,1.3223,1.3396,1.3644,1.3815,1.3863,1.3881,1.4041,1.4163,1.4285,1.4378,1.443,1.45,1.4702,1.4828,1.496,1.5176,1.5401,1.5657,1.5994,1.6262,1.6513,1.6776,1.7101,1.7427,1.7747,1.8102,1.8463,0.0101,0.0135,0.0304,0.0371,0.0405,0.054,0.0674,0.0739,0.0925,0.1075,0.1216,0.1289,0.134,0.1409,0.1425,0.1432,0.1487,0.1514,0.1597,0.1598,0.1459,0.1431,0.1515,0.1739,0.1906,0.2043,0.2156,0.2184,0.2184,0.2184,0.2184,0.2184,0.2184,0.2184,0.2212,0.2268,0.2381,0.2493,0.2578,0.272,0.2905,0.3049,0.3179,0.3282,0.3352,0.3473,0.3548,0.3705,0.3814,0.3985,0.439,0.4893,0.5287,0.5601,0.5943,0.6193,0.63,0.6386,0.6535,0.6702,0.6896,0.6989,0.7115,0.7269,0.7479,0.7726,0.7913,0.782,0.8716,0.9634,1.0292,1.0401,1.0438,1.0606,1.0791,1.0983,1.1288,1.1523,1.1619,1.1623,1.1852,1.2121,1.2274,1.2426,1.2607,1.2852,1.3069,1.3218,1.3271,1.3443,1.3697,1.3892,1.391,1.3999,1.4147,1.4246,1.4326,1.4425,1.4505,1.4604,1.4748,1.4805,1.4897,1.5238,1.5491,1.568,1.5966,1.6154,1.6383,1.6663,1.6945,1.7253,1.7577,1.7922,1.8267,0.0304,0.0337,0.0472,0.0573,0.0607,0.0809,0.0976,0.1143,0.1276,0.1456,0.1614,0.1593,0.1549,0.1534,0.1657,0.1739,0.1824,0.1906,0.2017,0.2017,0.185,0.1711,0.1823,0.2074,0.2212,0.224,0.2268,0.2296,0.2351,0.2351,0.2239,0.2322,0.2352,0.2267,0.2379,0.2464,0.2547,0.2605,0.2775,0.2915,0.2972,0.3242,0.3417,0.3452,0.3674,0.3815,0.385,0.3997,0.4058,0.4061,0.4633,0.507,0.5306,0.5601,0.5857,0.6019,0.6123,0.6257,0.641,0.6581,0.6766,0.6946,0.7076,0.7272,0.7514,0.7921,0.8158,0.8041,0.9151,1.0136,1.0401,1.0592,1.0699,1.088,1.1007,1.1162,1.1284,1.1548,1.1623,1.1628,1.1857,1.2155,1.2308,1.2426,1.2632,1.2852,1.3074,1.3199,1.3266,1.3443,1.3697,1.3844,1.3939,1.4075,1.4228,1.4298,1.4378,1.4477,1.4575,1.4696,1.4788,1.484,1.5,1.5323,1.5558,1.5746,1.5923,1.611,1.6368,1.666,1.691,1.7149,1.7447,1.7787,1.8095,0.0371,0.0472,0.0808,0.0942,0.0976,0.1245,0.1412,0.1479,0.1681,0.1842,0.201,0.2019,0.209,0.2182,0.207,0.2073,0.2101,0.2156,0.2156,0.2184,0.21,0.2045,0.2129,0.2326,0.2493,0.255,0.2634,0.2745,0.2853,0.2824,0.2825,0.288,0.2826,0.2825,0.288,0.2881,0.2936,0.2938,0.2993,0.3134,0.3274,0.3444,0.3597,0.3721,0.3929,0.4108,0.4127,0.4275,0.4417,0.4442,0.4886,0.5195,0.5306,0.5564,0.5801,0.5979,0.6043,0.6169,0.6364,0.6489,0.6629,0.6823,0.6976,0.7202,0.7747,0.7922,0.8238,0.8593,0.9403,0.9928,1.0242,1.0543,1.0799,1.1023,1.1175,1.1301,1.1452,1.1603,1.1669,1.1673,1.1893,1.2175,1.2377,1.25,1.2607,1.2847,1.3045,1.3218,1.3266,1.3438,1.3692,1.3873,1.402,1.4156,1.4267,1.4355,1.4454,1.4552,1.4667,1.48,1.4891,1.4954,1.5176,1.5485,1.5631,1.5802,1.5951,1.611,1.6389,1.6645,1.6846,1.7059,1.7406,1.7747,1.8016,0.0673,0.0774,0.1177,0.1311,0.1344,0.1614,0.1748,0.1883,0.2052,0.222,0.2396,0.247,0.2527,0.2579,0.2575,0.255,0.2493,0.2545,0.2602,0.2573,0.2573,0.2518,0.2491,0.2633,0.28,0.2856,0.2941,0.3023,0.3077,0.3105,0.3105,0.3077,0.3105,0.3105,0.3076,0.3105,0.316,0.3217,0.3274,0.3411,0.3548,0.369,0.3913,0.4065,0.4263,0.4401,0.4558,0.464,0.4667,0.4688,0.4971,0.5239,0.5306,0.5547,0.5788,0.6003,0.6006,0.6132,0.6346,0.6465,0.6608,0.6785,0.6953,0.7338,0.7809,0.8088,0.8573,0.9054,0.9502,0.9909,1.0271,1.0594,1.0875,1.1078,1.1276,1.1423,1.1502,1.1682,1.1744,1.1794,1.1972,1.2254,1.2485,1.2524,1.2676,1.2871,1.3064,1.3175,1.3242,1.3467,1.3668,1.3897,1.4049,1.4161,1.4319,1.443,1.4546,1.4639,1.4828,1.4937,1.4977,1.5057,1.526,1.5491,1.5675,1.5859,1.5985,1.6138,1.6368,1.659,1.6769,1.7038,1.7399,1.772,1.7969,0.1109,0.1176,0.1513,0.1648,0.1715,0.1917,0.2118,0.2288,0.2456,0.2589,0.2767,0.2923,0.2893,0.2803,0.2946,0.3012,0.2906,0.2963,0.3048,0.3049,0.3049,0.2993,0.2885,0.2939,0.3078,0.3132,0.3132,0.3187,0.327,0.3242,0.3215,0.3298,0.3272,0.3242,0.3298,0.3272,0.3298,0.3469,0.358,0.3662,0.3827,0.3967,0.4158,0.4377,0.4593,0.4775,0.4978,0.5037,0.4921,0.4717,0.5043,0.5219,0.5331,0.5547,0.5788,0.5957,0.6024,0.6132,0.6349,0.6468,0.6621,0.6828,0.7114,0.7525,0.7997,0.8461,0.8897,0.9332,0.975,1.0118,1.0502,1.0769,1.0998,1.1175,1.1398,1.1502,1.1578,1.1753,1.1852,1.1803,1.2081,1.2328,1.2475,1.2627,1.2754,1.2881,1.3045,1.3175,1.3266,1.3438,1.3692,1.3949,1.4044,1.4114,1.4319,1.4505,1.4639,1.4754,1.4983,1.5097,1.5091,1.5176,1.5311,1.5513,1.5792,1.5947,1.6022,1.6203,1.6411,1.6633,1.6882,1.7136,1.7413,1.772,1.8002,0.1244,0.1546,0.1883,0.2085,0.212,0.2385,0.2654,0.2824,0.2959,0.3126,0.3292,0.3315,0.3263,0.3227,0.3182,0.3065,0.3103,0.3159,0.3105,0.3105,0.3274,0.3359,0.3332,0.3272,0.3215,0.333,0.3444,0.3524,0.3631,0.3687,0.3799,0.3771,0.3716,0.3799,0.3771,0.3744,0.3827,0.3885,0.3912,0.3939,0.405,0.4272,0.4436,0.4574,0.491,0.5153,0.528,0.5424,0.5476,0.5393,0.5335,0.5357,0.536,0.556,0.5801,0.5957,0.6022,0.6129,0.6355,0.6505,0.6653,0.7014,0.7293,0.7672,0.8501,0.8704,0.9105,0.9554,0.9898,1.0257,1.0718,1.0943,1.1146,1.1347,1.1548,1.1694,1.1803,1.1882,1.1932,1.2026,1.217,1.2372,1.2559,1.2652,1.2779,1.2905,1.3031,1.3175,1.3314,1.3433,1.3687,1.3973,1.4025,1.4114,1.4343,1.4552,1.4708,1.4869,1.5074,1.5233,1.5227,1.5244,1.5379,1.5631,1.5953,1.6057,1.6154,1.6306,1.6513,1.6748,1.7009,1.7247,1.7502,1.7787,1.8042,0.1715,0.1917,0.2253,0.2488,0.2622,0.2824,0.3057,0.326,0.3392,0.3526,0.363,0.3618,0.3589,0.3651,0.3574,0.3524,0.3528,0.352,0.352,0.3548,0.3662,0.3719,0.3748,0.3634,0.3577,0.369,0.3748,0.383,0.3909,0.3965,0.3965,0.3993,0.3993,0.3965,0.3993,0.4021,0.4075,0.4215,0.4242,0.4296,0.4434,0.457,0.4767,0.4906,0.5238,0.5483,0.565,0.5723,0.5831,0.5868,0.58,0.5578,0.5438,0.5691,0.5947,0.5993,0.608,0.6245,0.6503,0.6693,0.6906,0.7274,0.7585,0.8122,0.8672,0.8951,0.9318,0.9799,1.0128,1.0433,1.0922,1.1019,1.1221,1.1448,1.1628,1.1773,1.1873,1.1952,1.2047,1.218,1.2303,1.2495,1.2642,1.2725,1.2783,1.291,1.3074,1.3218,1.3295,1.3438,1.3692,1.3921,1.3973,1.4114,1.4366,1.4569,1.4777,1.4966,1.517,1.5284,1.5323,1.5362,1.5401,1.5726,1.6047,1.621,1.6312,1.6463,1.6656,1.6933,1.7191,1.7378,1.7598,1.7875,1.8115,0.222,0.2321,0.2622,0.2889,0.3024,0.3193,0.3394,0.3597,0.3795,0.3892,0.3929,0.3893,0.394,0.3979,0.3953,0.3978,0.3968,0.3967,0.3882,0.391,0.391,0.3967,0.3967,0.3968,0.3995,0.4078,0.4024,0.405,0.405,0.4078,0.4161,0.4133,0.4132,0.4215,0.4159,0.4159,0.4325,0.4517,0.457,0.4624,0.4818,0.4899,0.5097,0.5352,0.5538,0.5782,0.595,0.6014,0.6089,0.6359,0.6341,0.6054,0.5849,0.5904,0.6262,0.6203,0.6347,0.6556,0.6846,0.7035,0.723,0.7604,0.81,0.8547,0.8926,0.9223,0.9555,0.995,1.033,1.0718,1.1074,1.1171,1.1301,1.1498,1.1653,1.1778,1.1932,1.2051,1.2175,1.2274,1.2377,1.2549,1.272,1.2822,1.2881,1.2929,1.3094,1.3218,1.3295,1.3443,1.3692,1.3892,1.3973,1.4237,1.4488,1.4604,1.4834,1.5051,1.5238,1.5329,1.5419,1.5503,1.5614,1.5865,1.6113,1.6318,1.6479,1.6586,1.682,1.7122,1.7309,1.7468,1.7713,1.7955,1.8221,0.2353,0.2654,0.299,0.3125,0.3226,0.3525,0.3761,0.3929,0.4131,0.4329,0.4423,0.4316,0.4266,0.4268,0.4071,0.4016,0.4024,0.4076,0.405,0.405,0.405,0.4078,0.4162,0.4219,0.4272,0.4327,0.4272,0.4218,0.4218,0.4325,0.441,0.4551,0.4551,0.4575,0.4653,0.4732,0.471,0.4792,0.4818,0.4871,0.4983,0.5154,0.5375,0.5686,0.5814,0.6005,0.6173,0.6273,0.6462,0.676,0.6785,0.6755,0.6676,0.661,0.6721,0.6892,0.6868,0.6974,0.723,0.7374,0.7729,0.8126,0.8472,0.8874,0.9266,0.9462,0.9792,1.0205,1.0633,1.0989,1.1095,1.1297,1.1473,1.1644,1.1769,1.1927,1.2051,1.215,1.2258,1.2332,1.2455,1.2583,1.273,1.2852,1.2881,1.2954,1.3099,1.3199,1.3242,1.3443,1.3692,1.3868,1.4002,1.4307,1.4661,1.4736,1.4868,1.5097,1.5278,1.539,1.5503,1.5665,1.5848,1.6134,1.6389,1.6599,1.672,1.675,1.6941,1.7213,1.7379,1.7564,1.7835,1.8102,1.8352,0.2824,0.299,0.3358,0.356,0.3661,0.3826,0.4061,0.4295,0.4427,0.4491,0.455,0.4479,0.4405,0.4338,0.4207,0.4164,0.4242,0.4268,0.427,0.4241,0.4242,0.427,0.4382,0.4441,0.4494,0.4575,0.4548,0.4494,0.447,0.4548,0.4686,0.4767,0.4796,0.4847,0.4899,0.4871,0.4958,0.4985,0.5013,0.5095,0.5262,0.5462,0.5683,0.5871,0.6034,0.6171,0.6334,0.6554,0.6712,0.6901,0.7036,0.709,0.7095,0.719,0.7268,0.7461,0.7349,0.7334,0.76,0.7764,0.8103,0.8559,0.8834,0.9172,0.9574,0.9832,1.0176,1.0663,1.0888,1.1192,1.1297,1.1473,1.1644,1.1773,1.1873,1.1972,1.2105,1.222,1.2303,1.2406,1.2558,1.2681,1.2774,1.2876,1.291,1.2997,1.3094,1.3156,1.3218,1.3443,1.3687,1.3915,1.4091,1.4372,1.4684,1.4759,1.492,1.5154,1.534,1.5452,1.5564,1.5726,1.61,1.6491,1.6705,1.6854,1.689,1.6926,1.713,1.7317,1.755,1.776,1.7982,1.8248,1.8477,0.3261,0.3358,0.3693,0.3928,0.4064,0.4093,0.4328,0.459,0.466,0.4662,0.4645,0.4515,0.4466,0.4413,0.4354,0.4356,0.4489,0.4489,0.4489,0.4519,0.4519,0.4546,0.4601,0.4686,0.4741,0.4739,0.4792,0.482,0.4743,0.4741,0.4822,0.4904,0.4958,0.4958,0.4985,0.5042,0.5071,0.5152,0.5207,0.5373,0.562,0.5789,0.5925,0.6055,0.62,0.6307,0.6549,0.6741,0.6906,0.7017,0.7152,0.7255,0.7249,0.7539,0.7809,0.7912,0.7709,0.7744,0.7936,0.8174,0.8464,0.8862,0.922,0.9491,0.9803,1.0198,1.0739,1.1226,1.1372,1.1418,1.1523,1.1678,1.1769,1.1877,1.1947,1.2022,1.2175,1.2303,1.2455,1.2558,1.2656,1.2754,1.2852,1.2876,1.291,1.3022,1.3123,1.318,1.3242,1.3438,1.3687,1.3962,1.4208,1.4459,1.4678,1.4776,1.496,1.5227,1.5368,1.5491,1.5625,1.5764,1.6225,1.6669,1.689,1.7017,1.7031,1.7122,1.7309,1.7516,1.7747,1.7976,1.8196,1.8393,1.862,0.3393,0.3758,0.3928,0.4097,0.4267,0.4429,0.4593,0.4778,0.4806,0.4842,0.4801,0.4733,0.4656,0.4616,0.4501,0.4468,0.4489,0.4519,0.4574,0.4658,0.4686,0.4739,0.4818,0.4846,0.4875,0.4903,0.4901,0.4871,0.4904,0.4903,0.4958,0.5044,0.5071,0.5128,0.5187,0.524,0.5352,0.5485,0.5538,0.5675,0.5891,0.5978,0.6112,0.6302,0.6413,0.6522,0.6768,0.6933,0.7014,0.7233,0.7287,0.7365,0.7467,0.7711,0.8026,0.8206,0.8235,0.8213,0.8443,0.8593,0.8808,0.9126,0.9413,0.9673,1.0069,1.0484,1.0972,1.1427,1.1578,1.1673,1.1723,1.1832,1.1873,1.1972,1.2101,1.22,1.2328,1.2397,1.2554,1.2656,1.2725,1.2827,1.2929,1.2929,1.2954,1.3041,1.3123,1.318,1.3295,1.351,1.3729,1.4028,1.4278,1.4534,1.469,1.4794,1.5017,1.5289,1.5441,1.5586,1.5764,1.5947,1.6303,1.669,1.6954,1.715,1.7192,1.7303,1.7508,1.7693,1.7875,1.8143,1.84,1.8595,1.8769,0.3761,0.3928,0.4225,0.4393,0.4496,0.4663,0.4785,0.4846,0.4882,0.4856,0.48,0.4732,0.4675,0.4593,0.4537,0.4548,0.4603,0.4603,0.4684,0.4794,0.4822,0.4849,0.4903,0.4958,0.5014,0.5042,0.5099,0.5128,0.5128,0.5071,0.5071,0.5187,0.5213,0.5215,0.5354,0.5432,0.5485,0.562,0.5755,0.5923,0.6089,0.6196,0.6327,0.6539,0.6625,0.6793,0.6985,0.7098,0.7201,0.7389,0.7467,0.7521,0.7598,0.7869,0.8265,0.8788,0.8639,0.8606,0.8682,0.8827,0.9087,0.9372,0.9651,0.9943,1.0411,1.0718,1.1074,1.1452,1.1773,1.1898,1.1952,1.2051,1.2155,1.2229,1.2278,1.2352,1.2451,1.2544,1.2642,1.272,1.2822,1.292,1.2973,1.2968,1.2992,1.3089,1.3171,1.3228,1.3396,1.3639,1.3852,1.4093,1.4366,1.4609,1.4719,1.4834,1.5091,1.534,1.5543,1.5709,1.5937,1.6184,1.6439,1.6791,1.713,1.7289,1.7331,1.7441,1.7598,1.7794,1.8003,1.8255,1.851,1.8757,1.8967,0.4074,0.4144,0.4468,0.4642,0.468,0.478,0.4832,0.4903,0.4846,0.4776,0.4702,0.4677,0.4618,0.457,0.4577,0.4631,0.4741,0.4739,0.4822,0.4903,0.4958,0.4987,0.5044,0.5128,0.5128,0.5156,0.5215,0.5297,0.535,0.5295,0.5266,0.5327,0.5348,0.538,0.5434,0.5542,0.5677,0.5759,0.5975,0.6141,0.6252,0.6413,0.6571,0.6761,0.6898,0.7036,0.7195,0.7281,0.7416,0.7601,0.7681,0.7708,0.7708,0.8112,0.8586,0.8979,0.8959,0.8926,0.9028,0.9159,0.9309,0.9573,0.9918,1.0283,1.0841,1.0972,1.112,1.1569,1.1977,1.2126,1.2175,1.2254,1.2328,1.2377,1.2426,1.2505,1.2583,1.272,1.2827,1.2924,1.3002,1.3036,1.306,1.3007,1.3055,1.3157,1.3219,1.3276,1.3515,1.381,1.4022,1.4257,1.4407,1.465,1.4794,1.4926,1.5164,1.5395,1.5592,1.5826,1.6041,1.6216,1.6411,1.6799,1.7255,1.7447,1.7516,1.757,1.7666,1.7922,1.8156,1.834,1.8581,1.8865,1.9145,0.4268,0.4405,0.4553,0.4714,0.4836,0.4901,0.4915,0.4864,0.4764,0.4728,0.4685,0.4613,0.4603,0.4664,0.4688,0.4741,0.4901,0.4873,0.4958,0.5044,0.5101,0.5158,0.5213,0.5242,0.5297,0.5297,0.5354,0.546,0.5538,0.554,0.543,0.535,0.5515,0.557,0.5624,0.5706,0.5866,0.5975,0.6191,0.6356,0.6465,0.6598,0.6812,0.7001,0.7085,0.7192,0.7464,0.7494,0.7631,0.7845,0.7922,0.7978,0.8058,0.8404,0.888,0.9188,0.9241,0.926,0.9439,0.9462,0.954,0.9747,1.0142,1.0667,1.112,1.1019,1.1242,1.1769,1.2175,1.2382,1.2382,1.2402,1.2529,1.2618,1.2662,1.271,1.2832,1.2958,1.3069,1.3156,1.318,1.3166,1.3214,1.3185,1.3185,1.3257,1.3363,1.3443,1.3781,1.4075,1.4233,1.4425,1.4523,1.4685,1.4863,1.5045,1.5266,1.5468,1.5697,1.5925,1.616,1.6312,1.6448,1.6848,1.7282,1.7481,1.7672,1.776,1.7895,1.8122,1.8327,1.8496,1.8779,1.9108,1.931,0.4423,0.4523,0.4568,0.4643,0.4722,0.4849,0.4855,0.4785,0.4714,0.4692,0.4694,0.4661,0.4684,0.4792,0.4849,0.4904,0.5014,0.5014,0.5101,0.5185,0.5242,0.5272,0.5325,0.5432,0.5485,0.5513,0.5544,0.5629,0.5706,0.5706,0.5681,0.5656,0.5709,0.5709,0.5763,0.5871,0.6032,0.622,0.6356,0.6495,0.6712,0.6844,0.7031,0.7198,0.7303,0.7467,0.7711,0.7738,0.7922,0.8132,0.8265,0.8348,0.8431,0.8775,0.9133,0.9495,0.9495,0.9595,0.9751,0.9744,0.9747,1.0223,1.0637,1.1074,1.1347,1.1322,1.1569,1.1972,1.2323,1.2554,1.2686,1.273,1.2774,1.2881,1.2944,1.2987,1.3089,1.3238,1.3286,1.3348,1.3295,1.3218,1.3319,1.3391,1.3386,1.3386,1.3491,1.3668,1.4004,1.4291,1.443,1.4581,1.4685,1.4823,1.4983,1.5176,1.5357,1.557,1.5802,1.6044,1.6284,1.6392,1.6565,1.6947,1.7309,1.7577,1.7788,1.7969,1.8129,1.8294,1.8471,1.8646,1.8957,1.9317,1.9516,0.4452,0.457,0.457,0.4598,0.4662,0.4758,0.4762,0.4667,0.4619,0.4683,0.4689,0.4741,0.4849,0.4928,0.4958,0.5042,0.5128,0.5185,0.5268,0.5352,0.5407,0.5409,0.5491,0.5572,0.5677,0.5677,0.5734,0.5791,0.5871,0.5848,0.593,0.5955,0.5957,0.5952,0.5896,0.6059,0.625,0.6438,0.6601,0.6709,0.6953,0.7114,0.733,0.747,0.7574,0.7762,0.8002,0.8106,0.8245,0.8477,0.8633,0.8794,0.8956,0.914,0.9443,0.9677,0.9832,0.9862,1.0017,1.0069,1.0142,1.0688,1.0994,1.1297,1.1477,1.1628,1.1773,1.215,1.2495,1.2769,1.2954,1.292,1.3026,1.3132,1.3233,1.33,1.343,1.3554,1.3549,1.3544,1.3515,1.3515,1.3563,1.3687,1.3687,1.3681,1.3758,1.3934,1.4168,1.443,1.4598,1.4731,1.4863,1.5,1.5136,1.5368,1.5576,1.572,1.5957,1.6197,1.6414,1.6515,1.6708,1.7073,1.7413,1.7693,1.7922,1.8102,1.8288,1.8459,1.8646,1.887,1.9116,1.9461,1.9697,0.4324,0.447,0.4484,0.4568,0.4689,0.4696,0.4639,0.4558,0.457,0.4621,0.477,0.4846,0.4985,0.5071,0.5099,0.5183,0.5297,0.5325,0.5405,0.5544,0.5597,0.5654,0.5711,0.5793,0.5818,0.5791,0.5873,0.5952,0.6059,0.6087,0.6193,0.6332,0.6332,0.6277,0.6057,0.6275,0.649,0.6704,0.6923,0.7031,0.7192,0.7383,0.7601,0.7791,0.7895,0.8106,0.8321,0.8477,0.8613,0.8771,0.8949,0.911,0.9304,0.9472,0.9699,0.9936,0.9995,1.0154,1.0466,1.047,1.0722,1.1095,1.1322,1.1528,1.1753,1.1852,1.1952,1.2377,1.2774,1.2997,1.305,1.3094,1.3252,1.342,1.352,1.3597,1.3721,1.3792,1.3763,1.3744,1.3873,1.3973,1.3968,1.3986,1.3986,1.401,1.408,1.4197,1.4384,1.4587,1.4782,1.4891,1.5023,1.5204,1.5368,1.5592,1.5792,1.5919,1.6104,1.6371,1.6565,1.6699,1.6933,1.7226,1.7577,1.7949,1.8122,1.8274,1.8484,1.8704,1.8927,1.9134,1.9376,1.9603,1.983,0.4437,0.4489,0.4489,0.4518,0.4566,0.4566,0.4591,0.4664,0.4737,0.4847,0.4961,0.5014,0.5101,0.5187,0.5242,0.5321,0.5458,0.5517,0.5597,0.5709,0.5734,0.5763,0.5845,0.5927,0.5984,0.6064,0.6143,0.6273,0.6487,0.6433,0.646,0.6596,0.6712,0.6628,0.6542,0.6596,0.6701,0.695,0.7087,0.7219,0.7485,0.7678,0.7872,0.8115,0.8265,0.8448,0.8669,0.8794,0.8952,0.9084,0.926,0.9443,0.958,0.9695,0.9962,1.0201,1.0338,1.0561,1.0896,1.1049,1.107,1.1322,1.1548,1.1778,1.2002,1.2002,1.2254,1.2627,1.3016,1.3238,1.3348,1.3401,1.3544,1.3744,1.3844,1.3844,1.3921,1.3939,1.3939,1.3921,1.4002,1.4109,1.4145,1.4249,1.4273,1.4314,1.4361,1.4413,1.4552,1.48,1.5006,1.5045,1.5153,1.539,1.5592,1.5792,1.6029,1.6197,1.6343,1.6537,1.6714,1.6876,1.7107,1.7392,1.7808,1.8202,1.8327,1.847,1.8748,1.8984,1.9172,1.9332,1.9541,1.9748,1.9988,0.4489,0.4489,0.4546,0.4546,0.4546,0.4575,0.4632,0.4769,0.4903,0.5014,0.5071,0.5156,0.5266,0.538,0.5407,0.5491,0.565,0.5679,0.5734,0.5845,0.593,0.5982,0.6062,0.6139,0.6302,0.6384,0.6465,0.6596,0.6736,0.6763,0.6817,0.6925,0.7036,0.7063,0.6977,0.6977,0.7033,0.7222,0.7354,0.7547,0.7759,0.7999,0.8245,0.8427,0.861,0.8791,0.8949,0.908,0.926,0.9387,0.9566,0.9747,0.9855,0.9962,1.0201,1.0441,1.0744,1.0939,1.1167,1.1473,1.1523,1.1619,1.1848,1.2002,1.215,1.22,1.2451,1.2818,1.3214,1.3425,1.3592,1.3639,1.3834,1.4038,1.4132,1.4132,1.4255,1.4273,1.4273,1.426,1.426,1.4314,1.4361,1.4459,1.4563,1.4598,1.4662,1.4713,1.4759,1.4932,1.5182,1.5272,1.5356,1.5564,1.577,1.5991,1.6225,1.6472,1.6622,1.675,1.6899,1.7052,1.7309,1.7543,1.7916,1.8262,1.8484,1.869,1.8957,1.9183,1.9369,1.9534,1.9697,1.9902,2.0111,0.4519,0.4546,0.466,0.4689,0.4689,0.4715,0.4796,0.4928,0.5044,0.5128,0.5124,0.527,0.5407,0.5565,0.5595,0.5681,0.5795,0.5818,0.595,0.6057,0.6198,0.6277,0.6413,0.6547,0.6625,0.6704,0.6758,0.6871,0.6936,0.7036,0.7144,0.7279,0.7467,0.7497,0.747,0.7467,0.747,0.7545,0.7708,0.7872,0.8109,0.8368,0.8586,0.8771,0.8956,0.9084,0.9237,0.9443,0.9569,0.9725,0.9888,1.0102,1.0209,1.0257,1.0441,1.0744,1.1116,1.1267,1.1444,1.1748,1.1923,1.1997,1.213,1.2229,1.2298,1.2451,1.2652,1.306,1.3488,1.3602,1.3716,1.391,1.4104,1.4244,1.4384,1.4505,1.4655,1.4707,1.4707,1.4684,1.4684,1.4702,1.4684,1.4759,1.4805,1.4851,1.4932,1.5068,1.5085,1.5017,1.5249,1.5503,1.5614,1.5742,1.5963,1.6203,1.6457,1.6708,1.6856,1.6989,1.7115,1.7234,1.7447,1.7706,1.8016,1.8334,1.8671,1.8931,1.9157,1.9362,1.957,1.9687,1.982,2.0,2.02,0.4632,0.466,0.4763,0.482,0.4847,0.4934,0.4987,0.5071,0.5185,0.5295,0.5454,0.5513,0.5597,0.5734,0.5734,0.59,0.6012,0.6119,0.6305,0.6411,0.6519,0.6571,0.668,0.679,0.6901,0.7006,0.7087,0.7195,0.7333,0.741,0.7485,0.7592,0.7839,0.7925,0.8005,0.8032,0.7949,0.7892,0.8058,0.8245,0.8457,0.8689,0.8903,0.9084,0.929,0.9417,0.9543,0.9758,0.9914,1.0098,1.0257,1.0441,1.0543,1.0667,1.0871,1.1347,1.1548,1.1648,1.1843,1.1977,1.2155,1.2377,1.2529,1.2656,1.2676,1.2691,1.2842,1.3296,1.3726,1.3886,1.3999,1.4163,1.4332,1.4471,1.4593,1.4719,1.484,1.4891,1.4891,1.4926,1.4926,1.4931,1.4937,1.4994,1.5045,1.5091,1.5182,1.534,1.5401,1.5311,1.5366,1.5647,1.5893,1.6047,1.6197,1.6429,1.6686,1.6941,1.7067,1.7199,1.7337,1.7482,1.7611,1.7882,1.8268,1.862,1.8939,1.9157,1.9362,1.9563,1.9769,1.9856,1.997,2.0131,2.0296,0.4798,0.4822,0.4932,0.5014,0.5069,0.5238,0.5291,0.5319,0.538,0.5487,0.5593,0.565,0.5761,0.5873,0.593,0.6066,0.6277,0.6386,0.6522,0.6712,0.6869,0.6901,0.6958,0.709,0.7222,0.733,0.7437,0.7542,0.7732,0.7916,0.7993,0.799,0.8212,0.8295,0.8374,0.8427,0.848,0.8427,0.8454,0.8643,0.8824,0.9035,0.9237,0.9364,0.9618,0.9725,0.9803,1.0021,1.0231,1.0389,1.0547,1.0744,1.0922,1.112,1.1372,1.1748,1.1852,1.1923,1.2022,1.22,1.2402,1.2603,1.2827,1.2968,1.3031,1.3045,1.3209,1.3496,1.3886,1.4197,1.428,1.4396,1.4558,1.4702,1.4777,1.488,1.4931,1.5006,1.5046,1.5074,1.5097,1.5102,1.5148,1.5198,1.526,1.5311,1.5385,1.5503,1.5592,1.558,1.5629,1.5812,1.6113,1.6355,1.6504,1.6665,1.692,1.713,1.7255,1.7406,1.7543,1.7666,1.7767,1.8128,1.8574,1.8855,1.9101,1.9343,1.9545,1.9744,1.993,2.0061,2.0138,2.0243,2.0407,0.4901,0.4928,0.5071,0.5211,0.5352,0.5515,0.5595,0.562,0.565,0.5647,0.5677,0.5791,0.5925,0.6062,0.6168,0.6337,0.6519,0.668,0.679,0.696,0.7112,0.7222,0.7333,0.747,0.7625,0.7702,0.7806,0.7943,0.8162,0.8321,0.8398,0.8448,0.8504,0.8583,0.8685,0.8771,0.8847,0.8975,0.8923,0.8979,0.9129,0.9361,0.9618,0.9673,0.9862,1.0054,1.0128,1.0308,1.0539,1.0645,1.0799,1.1044,1.1297,1.1573,1.1848,1.2026,1.213,1.2146,1.2244,1.2402,1.2652,1.2803,1.2954,1.3181,1.3286,1.3204,1.3324,1.3787,1.4197,1.4413,1.4523,1.4599,1.4714,1.4857,1.4954,1.5068,1.5187,1.5238,1.5261,1.5295,1.5295,1.5323,1.534,1.5395,1.5468,1.5541,1.5625,1.5726,1.5792,1.5814,1.5951,1.6054,1.6247,1.6516,1.6733,1.6905,1.7136,1.7323,1.7447,1.7638,1.7828,1.7895,1.7922,1.8397,1.8893,1.9026,1.925,1.9464,1.9664,1.9833,2.0018,2.0235,2.0346,2.0415,2.0501,0.5042,0.5069,0.5375,0.5515,0.554,0.5681,0.5763,0.5763,0.5982,0.5982,0.595,0.6037,0.6173,0.6302,0.6487,0.6682,0.6898,0.6977,0.7139,0.733,0.7488,0.7566,0.7676,0.7895,0.8026,0.8106,0.8185,0.8312,0.8497,0.8639,0.8778,0.8847,0.89,0.8975,0.9028,0.911,0.9211,0.9413,0.9417,0.9394,0.9491,0.954,0.9669,0.9914,1.0162,1.0334,1.0462,1.0641,1.0892,1.1095,1.115,1.1352,1.1598,1.1873,1.2126,1.2328,1.2431,1.2421,1.2515,1.2671,1.2895,1.3099,1.3238,1.3425,1.3467,1.3319,1.3486,1.4046,1.4436,1.4604,1.4713,1.4789,1.4892,1.5006,1.5125,1.5289,1.5424,1.5452,1.5474,1.5497,1.5519,1.5536,1.5558,1.5608,1.5659,1.5742,1.5846,1.5957,1.605,1.6122,1.6321,1.6402,1.6402,1.6607,1.6863,1.7164,1.7392,1.7584,1.7727,1.7916,1.8103,1.8241,1.8385,1.8822,1.9213,1.9306,1.9417,1.9574,1.978,1.9957,2.0158,2.039,2.056,2.0661,2.0695,0.5236,0.5373,0.557,0.5677,0.5734,0.59,0.5987,0.6009,0.6309,0.6413,0.6384,0.6416,0.6492,0.6625,0.6815,0.698,0.7198,0.7327,0.7461,0.7649,0.7839,0.7943,0.8106,0.8262,0.8374,0.8484,0.8659,0.8814,0.8863,0.8919,0.9031,0.911,0.9185,0.9286,0.9364,0.9387,0.9491,0.9747,0.9781,0.9836,0.9862,0.9914,0.9988,1.0261,1.0441,1.059,1.0769,1.0922,1.112,1.1368,1.1498,1.1573,1.1798,1.2047,1.2441,1.2662,1.2744,1.2705,1.2793,1.2958,1.3176,1.3377,1.3515,1.3687,1.3952,1.3829,1.3781,1.4291,1.4702,1.4891,1.4909,1.4966,1.5119,1.5255,1.5334,1.543,1.5547,1.5614,1.5637,1.5659,1.5697,1.579,1.5818,1.5897,1.5947,1.5969,1.6072,1.6088,1.621,1.642,1.6629,1.6793,1.6772,1.6808,1.7046,1.7351,1.7625,1.7815,1.7983,1.8083,1.8215,1.8562,1.8882,1.9202,1.9424,1.9508,1.9636,1.978,1.994,2.0141,2.0331,2.0543,2.0711,2.0868,2.0982,0.5462,0.5622,0.5791,0.585,0.5905,0.6146,0.6284,0.6337,0.663,0.6815,0.6928,0.6869,0.6896,0.6955,0.7117,0.7257,0.7419,0.7655,0.7815,0.8002,0.8195,0.8298,0.8451,0.8606,0.8718,0.8854,0.9005,0.9106,0.9181,0.9234,0.9263,0.9263,0.9342,0.9417,0.9569,0.9669,0.9773,0.9936,1.0047,1.0158,1.0239,1.032,1.0393,1.0518,1.0697,1.0824,1.0998,1.1171,1.1322,1.1573,1.1848,1.1952,1.2076,1.2298,1.2696,1.2968,1.3026,1.2988,1.3012,1.3243,1.3478,1.371,1.381,1.3975,1.4244,1.4337,1.4291,1.4494,1.4909,1.5108,1.5131,1.5176,1.5328,1.5463,1.5541,1.5614,1.5703,1.5798,1.582,1.5842,1.5897,1.5988,1.606,1.616,1.6188,1.6216,1.6237,1.6237,1.6318,1.6622,1.6892,1.7088,1.7199,1.7261,1.7344,1.7509,1.7815,1.8002,1.8149,1.8208,1.8347,1.8671,1.9033,1.9424,1.9607,1.969,1.9833,1.9993,2.0158,2.0321,2.0484,2.0686,2.0884,2.1047,2.1246,0.5626,0.5791,0.6014,0.6123,0.6173,0.647,0.6655,0.6768,0.695,0.7085,0.7255,0.7434,0.7434,0.726,0.7488,0.7652,0.7794,0.8005,0.8165,0.8325,0.854,0.8672,0.8775,0.8923,0.9084,0.9192,0.9244,0.9263,0.9443,0.9495,0.9577,0.9666,0.9766,0.984,0.9888,0.994,1.0021,1.0183,1.0286,1.0368,1.0518,1.0573,1.0547,1.0726,1.1002,1.112,1.1293,1.1498,1.1728,1.1981,1.2229,1.2308,1.2426,1.2598,1.2973,1.3228,1.3286,1.3286,1.3358,1.3573,1.3829,1.414,1.4239,1.4285,1.45,1.4662,1.4685,1.4777,1.5119,1.534,1.5379,1.5407,1.5519,1.5675,1.5798,1.5852,1.5913,1.5991,1.6041,1.6063,1.61,1.616,1.6219,1.629,1.6362,1.6383,1.6442,1.6442,1.6479,1.6814,1.7137,1.7358,1.7584,1.7693,1.7754,1.774,1.7949,1.8162,1.8352,1.845,1.8586,1.876,1.912,1.9589,1.9769,1.9851,2.0018,2.02,2.0365,2.0518,2.0645,2.0827,2.103,2.1238,2.1426]}]]